GFSSE_sfc_dewp_000.txt.gz
Dewpoint
68 69 70 72 72 71 71 70 70 70 70 69 69 68 68 67 67 68 68 69 68 66 66 66 66 66 66 66 67 67 68 68 68 68 69 67 66 66 66 67 67 65 67
69 70 71 71 72 71 71 70 70 70 70 68 68 68 67 67 67 67 67 66 65 64 64 64 64 64 65 66 66 67 67 67 67 67 67 67 66 66 66 67 66 66 67
69 70 70 71 71 71 71 71 71 70 69 68 68 68 67 66 66 66 66 66 64 63 63 62 63 63 64 65 65 65 66 66 66 66 66 63 64 66 66 66 67 67 67
70 70 70 70 71 71 71 71 70 69 69 69 69 67 67 66 65 65 65 65 63 62 62 61 61 61 61 62 62 62 62 63 64 64 62 62 63 65 67 66 66 66 65
69 69 70 70 71 71 71 71 70 70 70 69 69 67 66 65 64 63 63 62 61 61 60 60 59 60 60 61 61 61 61 62 62 60 59 61 64 65 66 66 66 66 66
68 69 69 70 71 71 71 71 71 70 70 69 69 66 66 64 63 62 62 60 60 59 58 58 58 59 60 60 60 60 61 62 61 57 57 59 63 66 67 67 67 67 66
68 69 69 69 70 71 71 71 70 69 69 69 68 67 65 64 63 62 61 60 59 58 59 59 59 60 60 60 60 61 61 62 60 56 56 60 63 66 67 66 66 65 65
68 70 70 70 70 70 70 70 69 69 68 68 68 66 65 64 63 61 60 60 60 59 59 60 60 60 61 61 61 62 62 62 59 56 55 58 62 66 65 64 66 64 64
68 69 69 69 69 69 68 68 68 68 68 68 67 66 66 65 64 62 61 61 61 60 61 61 62 62 62 62 62 62 62 61 55 55 55 57 63 65 64 63 65 66 65
65 66 67 68 69 67 66 67 67 67 67 67 67 66 65 65 64 64 63 62 63 63 62 63 62 62 62 62 62 62 62 56 51 53 53 56 62 63 63 63 63 64 64
65 66 67 67 67 65 65 66 67 67 66 66 66 65 64 62 60 61 63 64 64 63 63 63 64 63 63 62 61 62 61 52 49 51 51 56 60 59 60 62 64 64 63
63 64 65 64 63 63 66 64 63 63 63 63 63 62 62 61 61 62 62 63 64 64 64 64 64 64 63 59 58 59 56 54 49 48 49 56 58 58 58 60 63 63 62
63 63 62 62 62 62 62 62 61 62 61 62 61 61 60 61 60 60 60 59 59 61 60 59 59 59 58 58 57 57 56 55 51 49 49 57 58 58 58 58 61 61 61
60 61 61 61 60 60 60 60 60 60 60 61 61 61 60 59 58 57 57 55 53 53 52 53 55 55 55 54 52 53 54 53 51 49 49 55 56 57 58 58 58 61 61
57 58 58 59 59 59 59 59 59 60 61 61 61 61 59 57 53 53 52 52 52 52 52 51 51 50 50 50 49 49 49 49 49 48 48 52 55 55 56 57 56 58 60
56 57 58 59 57 56 57 58 59 59 60 61 60 58 56 54 53 51 49 48 48 50 49 49 50 49 48 47 45 46 46 46 46 48 48 48 53 53 54 56 57 58 58
54 55 58 58 58 58 58 58 59 58 59 59 56 54 54 51 48 46 44 44 45 47 46 45 45 43 42 42 41 42 42 44 44 48 49 48 48 50 52 53 54 55 56
55 59 60 60 61 60 58 58 57 55 56 55 54 53 49 45 44 44 46 44 45 44 42 43 43 39 41 40 39 39 39 42 42 48 47 46 46 44 46 48 48 49 51
59 60 60 60 59 58 57 55 53 51 50 50 50 46 43 43 43 43 44 44 42 40 40 40 40 40 40 39 39 39 38 39 43 47 46 44 44 44 43 44 46 45 45
57 58 57 56 55 53 52 53 53 50 49 50 47 42 41 41 43 43 42 41 40 39 39 39 38 39 39 40 39 37 37 37 44 46 44 43 43 42 41 41 41 40 40
53 53 53 53 53 51 48 49 49 48 50 45 42 41 40 39 39 40 40 40 40 39 39 40 39 39 38 42 39 37 38 39 41 43 43 42 42 43 42 41 40 37 35
49 50 48 48 47 46 47 48 50 49 45 42 39 38 39 39 38 39 41 41 40 39 39 40 40 39 39 41 40 39 36 37 38 37 39 40 39 41 39 37 40 40 37
41 41 40 41 41 43 47 46 42 41 41 38 39 35 37 38 38 39 40 40 39 39 40 40 39 39 39 39 39 38 34 33 35 36 35 36 36 37 38 39 38 39 37
35 35 37 38 38 38 39 39 38 38 37 39 37 34 36 38 37 38 39 39 39 39 40 40 38 37 38 34 37 35 36 35 33 32 33 33 35 34 37 38 39 39 38
37 37 37 37 37 37 38 40 39 36 38 37 35 34 34 37 37 37 38 38 39 38 37 37 35 33 35 33 34 34 34 34 34 33 29 29 30 33 36 36 38 39 39
38 37 37 38 38 38 37 37 36 36 35 33 35 35 36 36 37 38 37 37 37 36 35 34 33 33 33 33 33 33 33 32 31 31 29 28 27 31 29 35 37 38 39

GFSSE_sfc_dewp_003.txt.gz
Dewpoint
67 68 71 70 71 71 71 70 70 70 70 70 70 69 68 68 68 68 68 68 67 65 64 65 65 65 66 66 67 67 67 67 67 67 68 68 67 66 66 65 66 61 67
68 68 70 70 71 71 70 70 70 70 70 70 69 68 68 68 68 67 66 66 66 63 63 64 64 64 64 65 65 65 65 65 66 66 66 64 64 66 66 66 67 62 67
68 69 68 70 70 71 70 71 71 70 69 69 69 68 67 67 67 66 66 67 65 63 62 62 61 61 61 62 62 62 62 62 63 63 63 60 61 65 67 67 67 66 66
69 69 67 69 70 71 70 71 70 70 69 69 69 68 67 66 66 66 65 66 63 62 61 60 59 59 60 61 61 61 61 62 61 60 56 59 62 66 66 66 66 65 64
68 68 68 69 70 70 70 70 70 70 70 70 69 67 66 65 64 64 63 63 61 59 58 58 58 59 60 61 62 62 62 62 61 56 55 61 63 64 66 66 65 65 65
68 68 69 69 69 70 70 71 71 70 70 70 69 67 66 64 63 62 62 60 59 58 59 60 60 60 61 62 62 62 62 63 61 53 55 58 62 66 66 66 65 65 66
68 68 68 68 69 69 70 71 70 70 69 69 68 67 66 64 63 62 61 60 59 59 61 61 61 61 62 62 63 63 62 63 55 52 52 56 60 65 64 65 65 64 64
67 68 68 69 69 70 70 70 69 68 69 68 68 66 65 65 63 61 61 61 60 60 61 61 61 62 62 63 63 64 63 62 50 48 50 52 62 64 64 64 66 66 66
68 68 68 68 69 69 68 68 68 68 68 68 67 67 66 65 64 62 62 63 63 62 62 63 63 63 63 64 64 64 64 60 51 49 47 47 61 62 63 63 64 65 64
68 67 67 68 68 69 69 67 68 68 67 67 67 66 65 64 64 63 63 62 63 64 64 64 64 64 64 64 64 63 63 59 53 51 48 48 60 60 59 62 63 62 62
66 67 67 67 68 69 69 68 67 67 67 66 65 65 64 62 62 62 63 64 64 64 64 65 65 64 64 63 63 63 62 55 55 52 50 56 59 59 59 61 64 63 61
63 65 66 67 67 68 67 67 66 65 63 63 62 63 63 64 64 63 64 64 64 64 65 64 64 64 62 59 58 58 54 56 54 54 52 58 58 58 58 61 63 63 63
62 63 64 66 67 66 66 65 64 63 63 63 63 63 63 64 64 64 63 62 63 61 57 55 56 56 59 58 55 54 52 51 50 49 50 57 57 59 58 58 62 62 63
63 63 65 64 64 64 62 62 61 60 61 61 62 63 64 62 62 60 57 56 57 55 55 54 53 56 55 52 51 51 48 43 38 40 45 56 56 57 59 59 59 60 62
61 61 61 61 61 61 61 61 61 62 63 64 64 64 63 61 59 57 55 52 52 51 50 50 51 49 47 45 46 44 41 41 41 39 42 54 55 57 58 59 59 60 60
58 59 60 58 58 59 59 61 61 60 60 62 63 61 60 61 58 50 48 48 47 48 48 47 46 43 41 40 40 43 40 40 41 46 44 48 51 52 52 53 55 56 58
57 59 59 59 60 60 60 61 60 58 58 58 58 58 56 53 51 48 47 47 47 46 45 44 41 42 39 36 37 36 37 40 40 48 46 44 43 48 48 48 48 49 49
57 58 58 59 59 59 59 57 54 54 55 55 56 55 49 46 48 49 46 46 43 42 41 41 39 38 38 37 35 35 36 37 48 48 44 43 42 40 44 45 45 45 45
58 58 59 59 58 55 56 52 50 51 48 49 50 47 46 45 46 47 45 44 43 41 42 39 38 38 36 35 29 33 33 35 46 43 44 43 43 42 40 42 42 42 43
59 59 57 57 55 54 54 50 51 49 47 46 41 40 41 41 44 44 44 45 42 41 40 39 38 37 39 39 30 32 34 38 46 44 42 40 41 42 40 40 39 37 42
58 57 56 54 52 51 49 50 50 50 47 40 39 41 41 42 42 44 41 42 42 40 42 41 37 35 34 40 34 30 30 41 43 41 39 38 38 37 40 38 37 35 34
58 57 55 52 48 46 48 50 51 50 44 39 39 41 40 41 40 39 42 41 43 41 43 42 38 34 36 41 32 29 25 25 32 37 34 35 37 36 35 36 37 35 35
53 52 51 48 46 46 47 45 43 43 43 40 38 37 38 40 38 40 43 43 43 43 42 42 40 37 33 37 39 31 26 24 31 30 32 33 35 32 34 34 35 34 36
43 43 43 42 41 41 43 42 43 39 38 40 38 38 39 41 41 39 41 43 44 43 42 41 38 37 35 30 30 32 33 32 24 22 24 26 29 26 30 34 30 33 36
40 42 42 41 40 40 41 41 39 39 39 39 39 41 42 41 41 40 41 42 43 41 42 40 38 34 30 27 26 26 27 24 25 23 16 18 20 21 25 25 30 30 31
40 42 42 39 37 38 39 39 40 39 37 37 39 39 39 40 40 41 41 42 42 41 40 37 35 32 28 27 25 24 21 19 18 23 21 19 18 17 19 24 26 25 24

GFSSE_sfc_dewp_006.txt.gz
Dewpoint
64 66 71 71 71 71 71 70 70 70 70 70 70 69 68 68 68 67 67 67 67 64 64 64 65 64 64 64 64 64 65 65 65 65 65 65 65 66 66 65 67 58 67
66 67 70 70 71 71 70 70 70 70 70 69 69 68 68 68 67 66 66 66 65 63 63 62 61 60 60 61 60 61 61 62 62 63 64 63 65 66 66 64 67 62 66
66 66 66 70 70 70 70 71 71 70 69 69 69 68 67 67 66 66 66 66 64 62 61 59 59 59 59 60 61 61 61 61 61 60 62 55 57 66 65 65 66 65 64
66 66 65 69 70 70 70 70 70 70 69 69 68 67 66 66 65 65 64 64 62 60 58 57 57 58 59 61 62 62 62 62 61 61 49 55 57 65 64 64 64 64 63
66 66 66 69 69 70 70 69 70 70 70 69 68 67 66 64 64 63 63 61 59 58 59 59 59 59 61 62 62 61 61 62 62 56 48 55 57 63 64 64 64 64 64
67 67 67 68 68 68 69 69 70 71 70 70 68 66 65 63 62 62 61 59 59 60 60 60 60 61 62 63 63 61 61 62 61 47 50 55 57 65 65 65 64 64 65
67 67 67 67 68 68 69 70 70 70 70 69 67 66 65 63 61 60 60 60 60 61 61 61 61 62 62 63 63 63 63 62 44 40 41 49 56 64 64 64 63 63 63
65 67 67 68 68 68 69 70 69 69 69 68 67 66 64 63 61 61 61 61 61 61 61 61 61 62 63 63 63 63 64 61 47 44 42 43 61 62 63 64 64 63 63
66 67 67 66 67 68 68 68 68 68 68 67 67 65 64 63 63 62 62 63 63 62 62 62 62 63 63 64 63 63 63 61 50 46 42 43 60 60 59 62 63 63 62
67 66 67 67 67 67 67 68 68 68 67 67 66 65 64 64 62 63 61 63 63 63 63 64 64 65 64 65 64 63 62 62 48 46 44 51 59 59 59 59 62 61 60
65 65 64 64 65 66 65 67 67 67 66 66 64 64 62 58 58 57 62 63 64 65 65 65 64 64 64 64 62 61 61 45 48 45 45 59 59 59 58 59 60 61 60
62 64 65 66 66 66 62 63 61 59 58 58 59 61 59 62 62 61 62 64 64 63 64 61 60 61 60 50 49 55 45 49 45 46 45 57 58 59 59 59 62 63 63
61 63 64 66 66 63 61 58 55 55 58 59 62 63 62 62 62 59 57 56 58 58 53 52 51 49 53 51 48 50 47 44 40 40 48 57 58 58 59 60 60 60 62
59 62 63 61 62 62 56 55 56 56 59 60 61 63 64 62 64 58 54 55 57 53 52 50 49 52 51 48 49 47 46 42 39 39 46 56 57 57 58 58 59 60 60
56 58 60 60 60 59 59 58 59 60 60 63 63 63 62 60 61 58 56 52 51 50 49 48 46 44 43 42 44 44 42 42 42 40 41 53 54 54 55 55 55 55 56
56 58 58 57 58 59 60 62 59 58 60 62 64 64 61 61 61 59 51 48 48 47 46 43 42 40 39 40 39 41 41 40 39 43 38 44 51 50 51 51 51 51 51
56 57 57 59 61 60 58 58 58 57 58 58 61 62 61 60 58 54 49 49 47 46 45 43 41 41 38 37 38 38 38 39 38 44 42 39 41 49 47 47 47 47 48
56 57 57 57 59 59 60 57 57 56 57 56 54 55 53 50 53 51 47 47 44 43 41 41 40 38 38 38 38 35 36 35 37 44 42 43 39 37 45 45 43 43 45
56 57 57 58 58 58 58 55 52 53 50 48 46 45 47 46 47 48 46 46 45 42 43 41 39 39 36 36 34 33 35 35 36 34 40 43 43 42 40 45 44 41 41
57 58 58 56 57 58 56 53 48 46 45 43 42 42 43 43 45 46 45 45 42 39 38 39 40 39 38 39 34 33 36 34 34 37 39 38 38 40 39 41 39 38 44
58 58 57 57 57 55 52 51 48 48 46 43 41 43 43 42 41 43 41 42 42 41 43 43 40 39 37 39 34 30 28 29 34 36 37 34 36 37 38 36 35 34 33
57 56 56 55 55 51 49 48 50 50 45 41 42 43 41 41 39 39 43 41 42 40 42 43 42 37 33 37 36 31 25 23 23 31 32 31 35 33 31 31 34 34 32
57 57 55 53 49 48 47 46 45 45 44 43 41 39 41 42 40 40 42 42 43 41 39 41 40 39 34 33 35 32 27 23 25 25 29 25 32 28 29 27 30 29 29
57 55 51 47 45 44 43 44 45 40 39 40 40 40 40 43 42 40 40 42 43 40 40 40 37 38 35 29 29 26 30 29 25 22 23 25 23 22 26 24 28 26 26
48 47 46 43 41 42 43 43 41 41 39 39 39 40 40 39 40 38 39 41 41 39 40 42 40 35 32 31 29 28 28 24 24 20 18 20 20 19 19 21 24 27 25
43 45 45 42 40 41 41 42 43 41 36 32 29 27 24 23 24 28 29 39 42 42 42 40 38 35 33 30 27 25 23 22 20 19 19 19 18 18 19 21 23 23 24

GFSSE_sfc_dewp_012.txt.gz
Dewpoint
64 68 71 71 71 71 70 70 70 70 70 71 70 69 69 68 68 68 67 67 65 63 61 60 59 60 60 61 61 61 61 61 62 62 64 64 65 65 66 68 66 61 67
65 66 70 71 70 70 70 70 71 71 70 70 69 68 68 68 68 68 67 66 64 61 59 59 60 61 61 61 61 62 62 63 64 65 63 64 66 66 65 68 68 64 67
64 66 67 70 70 70 70 71 71 71 70 69 68 67 67 66 66 66 66 64 63 60 59 60 60 60 60 60 61 61 62 64 65 65 65 63 62 65 64 67 67 66 66
63 63 66 70 70 70 70 70 70 70 69 68 67 66 66 65 64 64 64 64 64 61 60 60 61 62 62 63 63 63 64 64 64 64 53 58 60 66 65 66 66 65 66
63 62 68 70 68 69 69 69 69 69 69 68 67 65 63 62 62 62 65 64 63 61 61 61 62 63 64 65 65 65 64 64 63 58 53 57 59 64 64 64 64 64 66
66 66 68 68 67 68 68 69 70 69 68 68 67 65 62 61 60 62 64 64 62 62 62 62 62 63 65 65 64 64 64 63 62 44 50 58 59 65 64 63 65 65 65
67 67 67 66 67 68 68 70 69 69 68 67 66 65 63 60 61 63 64 64 62 62 62 62 63 64 65 65 64 64 63 63 55 46 50 56 60 63 63 64 64 65 64
66 67 66 67 67 68 68 69 68 68 68 67 66 64 63 64 64 64 65 64 64 64 64 65 65 65 65 64 64 63 62 62 53 52 51 57 63 61 59 62 65 65 64
68 67 66 66 68 68 67 67 67 67 67 66 66 64 64 64 64 64 65 65 65 65 65 66 65 65 65 64 63 62 62 61 56 50 51 56 63 61 59 60 63 63 63
65 67 66 67 67 67 66 66 66 66 66 65 64 63 63 64 64 64 64 65 65 64 64 64 63 62 63 63 62 63 61 59 44 47 52 59 62 60 61 60 62 63 63
63 66 66 66 66 67 66 65 66 66 65 64 63 63 62 60 61 62 63 64 64 63 63 63 61 61 61 62 63 63 63 46 45 44 50 60 60 57 59 61 62 63 64
62 64 64 65 65 65 60 64 62 60 60 60 60 61 61 61 57 55 62 63 63 62 62 62 61 62 61 51 51 59 48 48 45 43 53 59 58 55 57 59 60 61 62
61 62 63 64 65 62 60 59 57 58 60 62 61 62 62 62 62 61 61 61 61 62 57 58 56 54 51 51 49 49 48 44 44 42 55 58 57 53 53 56 56 58 58
59 60 62 61 61 59 56 55 57 59 61 62 62 61 63 63 62 62 60 59 58 57 56 55 53 53 50 48 46 46 46 45 44 43 55 57 57 51 50 51 53 54 54
57 57 57 60 60 60 59 61 62 62 62 63 64 63 63 61 60 59 59 57 58 57 54 50 48 47 46 44 45 45 43 43 43 44 45 55 55 52 49 51 52 53 53
54 56 58 57 60 61 62 61 61 61 61 61 62 64 62 61 60 59 57 53 53 50 48 48 48 47 46 45 43 45 44 42 42 44 41 49 54 54 51 51 50 49 49
55 55 56 59 63 62 61 60 59 56 57 60 62 63 63 59 58 55 53 55 52 50 48 48 47 45 45 43 42 43 42 40 40 42 43 40 50 53 52 48 46 45 45
53 55 57 58 61 61 59 59 60 60 59 55 57 55 53 51 52 53 52 51 51 49 47 46 47 45 44 44 43 42 42 40 37 37 41 39 40 43 50 49 45 44 42
53 56 58 60 60 58 61 59 59 58 53 51 52 52 51 49 50 51 51 52 50 49 48 47 48 47 45 43 41 37 41 38 37 32 33 36 39 42 41 50 50 48 43
55 56 59 59 60 60 59 57 55 54 53 51 50 49 50 48 50 50 51 48 47 47 47 48 47 46 46 43 35 32 38 38 35 37 36 33 34 37 38 37 38 37 44
57 56 58 58 59 59 55 52 52 51 51 49 48 49 48 48 47 47 48 48 48 46 47 46 45 44 43 41 36 34 35 34 32 34 32 31 32 30 36 38 33 32 31
56 57 57 57 57 57 53 54 54 50 49 48 49 48 48 48 46 44 47 46 46 45 45 45 42 42 40 40 35 33 30 29 31 30 32 30 29 32 32 28 31 30 32
57 57 57 57 56 53 53 50 50 49 50 48 47 47 47 46 43 42 43 44 44 43 43 43 41 41 39 38 37 33 30 28 29 31 28 30 31 31 32 31 28 28 27
59 58 56 55 51 51 50 50 50 46 44 46 46 43 40 40 36 31 35 39 40 42 42 43 38 41 40 36 36 34 34 32 26 24 25 25 27 24 28 31 28 28 27
58 57 56 51 47 48 49 49 48 46 46 42 39 37 36 35 35 33 35 39 39 39 40 42 43 42 40 38 36 33 30 30 28 24 21 23 24 25 25 28 29 29 27
56 55 52 46 45 48 48 48 46 42 38 37 33 33 34 34 34 36 37 39 41 41 41 43 42 41 40 38 36 34 30 27 25 25 24 23 23 23 24 26 27 28 30

GFSSE_sfc_dewp_015.txt.gz
Dewpoint
67 70 71 71 71 71 70 70 70 70 70 70 69 69 68 68 68 67 66 65 64 62 61 62 61 61 60 60 61 62 62 63 64 64 66 66 66 66 66 68 66 64 67
68 69 70 70 70 70 71 71 70 70 70 70 69 69 68 67 67 66 65 64 63 61 61 60 60 59 60 61 62 62 62 65 65 65 65 66 66 65 66 68 68 66 68
68 69 69 70 70 70 71 71 70 70 69 68 68 68 67 66 64 65 65 64 64 62 61 61 62 62 62 62 63 64 64 65 65 65 65 64 62 65 66 66 67 67 67
67 67 68 70 70 70 70 70 70 69 68 68 67 66 66 65 64 65 66 65 64 62 62 62 62 62 62 63 64 64 64 64 64 63 59 59 61 65 65 65 64 64 65
65 67 68 69 69 69 70 70 69 68 68 67 66 65 64 63 63 64 65 65 64 62 62 62 62 62 63 65 64 64 64 63 62 57 57 60 62 63 64 63 63 63 64
66 68 67 67 68 69 69 69 69 68 67 66 65 64 62 62 63 64 65 64 62 62 62 62 62 63 65 64 64 64 63 63 58 51 57 61 61 64 64 64 65 64 64
66 66 66 66 67 68 69 69 68 68 67 66 65 64 63 63 63 64 65 64 63 62 62 62 63 64 64 64 64 64 62 61 51 52 56 59 60 62 61 63 64 64 63
66 66 67 68 68 68 67 68 67 67 66 65 65 65 64 65 65 65 65 65 65 65 65 65 65 64 64 64 63 63 62 61 52 51 56 59 64 61 60 61 64 64 64
65 64 66 67 65 67 66 66 66 66 66 64 64 65 64 64 65 65 66 66 65 64 64 64 63 62 63 63 62 63 62 62 50 52 55 59 64 62 61 61 62 64 64
64 63 64 66 66 66 65 65 65 65 64 63 64 63 63 64 64 65 64 65 64 63 62 63 61 61 61 62 62 63 62 56 45 49 55 59 62 59 61 61 62 62 63
63 62 64 63 65 64 65 64 64 65 63 63 63 63 62 60 61 62 62 63 62 61 61 62 61 61 61 59 61 61 59 45 44 48 55 60 60 57 59 60 61 61 61
61 61 61 63 65 65 62 63 62 61 61 59 59 60 59 60 59 59 62 63 63 62 61 61 61 61 58 48 49 53 46 43 43 49 54 59 58 54 57 57 57 57 56
62 63 62 64 64 62 60 61 59 58 59 61 59 59 60 60 61 60 59 60 60 60 57 57 52 50 46 46 46 46 44 41 44 44 55 56 57 51 52 53 54 55 55
62 62 62 64 63 59 61 59 56 57 60 60 60 60 61 61 59 58 57 57 56 56 51 50 49 47 44 44 42 43 42 41 43 42 53 55 56 49 49 51 52 53 53
60 61 60 57 57 55 57 61 61 60 61 62 62 62 61 59 57 57 56 54 51 48 48 47 46 43 43 43 42 44 42 41 41 43 48 55 54 52 49 52 52 52 51
57 57 56 56 58 59 57 58 57 58 57 61 62 62 60 60 59 55 52 51 48 47 47 46 43 42 42 42 42 43 41 41 38 39 41 46 54 55 52 50 48 47 47
55 55 55 57 59 58 58 57 55 56 58 59 55 57 57 56 53 49 51 49 47 46 44 44 44 45 44 43 42 42 41 39 38 37 38 39 50 53 53 48 44 43 44
54 53 55 60 59 58 56 56 57 57 54 54 52 52 50 50 50 50 49 48 47 47 46 46 46 44 44 43 42 41 39 37 35 33 34 34 39 48 52 51 47 44 43
53 53 59 59 56 55 56 58 56 50 50 50 50 49 47 48 48 49 49 47 45 46 47 46 45 45 43 43 37 34 37 37 34 35 31 30 34 35 43 50 48 47 39
54 57 59 57 56 57 58 55 53 50 50 49 47 47 46 46 45 47 48 47 46 45 45 44 43 44 44 40 35 34 35 35 34 34 32 30 31 31 35 34 34 35 41
57 58 58 58 56 58 54 52 51 49 46 46 46 45 46 46 46 44 44 43 44 43 43 43 43 39 39 39 34 33 32 33 30 31 32 31 30 31 32 31 32 31 32
56 57 57 57 57 58 52 50 50 46 45 45 46 46 45 44 43 43 43 43 42 42 41 41 39 38 39 37 33 33 29 30 31 30 29 27 28 30 29 30 29 29 29
55 56 56 56 55 55 51 48 46 46 46 46 45 45 43 37 30 31 36 36 36 39 40 40 39 39 36 36 35 33 29 28 28 28 26 27 27 27 28 29 28 27 26
57 56 57 55 50 50 47 45 43 44 42 43 41 35 31 32 31 31 35 36 36 37 35 39 40 40 37 35 35 33 31 30 25 24 25 25 26 24 26 27 29 27 27
58 59 56 48 46 47 46 45 44 43 38 35 33 31 29 32 32 33 35 35 37 39 39 41 40 39 38 36 34 32 29 28 25 24 22 23 25 25 26 28 28 28 29
58 54 47 44 45 46 46 43 39 34 32 30 30 31 30 32 33 35 33 37 37 39 41 40 39 39 38 36 36 34 30 26 25 25 24 24 23 25 24 25 26 28 28

GFSSE_sfc_dewp_018.txt.gz
Dewpoint
69 71 71 71 71 71 70 71 70 70 69 69 69 68 67 67 66 65 65 64 65 62 60 60 60 61 61 62 62 62 63 63 64 66 68 67 65 66 66 66 67 65 67
69 70 70 70 70 70 71 71 70 69 69 69 68 68 67 66 66 65 65 65 64 62 62 62 61 61 61 62 63 63 64 64 65 66 67 66 65 66 66 66 68 65 66
69 69 69 69 70 70 71 70 70 69 68 67 67 67 66 65 65 65 65 65 65 63 62 61 61 61 61 62 64 64 66 66 66 67 66 62 62 65 65 65 66 65 65
68 68 68 69 70 71 70 70 68 67 67 67 66 65 65 64 65 66 65 65 65 63 61 61 61 61 62 63 65 64 65 64 64 64 60 61 61 64 64 63 62 61 63
66 67 68 69 70 70 70 69 68 68 67 67 66 64 64 64 64 65 65 65 64 62 61 61 61 62 64 64 64 63 63 62 61 59 61 62 61 62 63 63 62 61 61
66 67 68 68 70 69 69 68 68 67 66 66 65 65 65 64 64 65 65 65 62 62 62 62 62 63 64 64 64 63 63 60 58 56 58 61 61 63 62 63 63 61 63
66 66 66 67 67 67 68 68 68 67 66 65 65 65 65 65 64 66 65 65 64 62 62 62 63 64 63 64 64 63 62 59 53 56 58 59 60 61 61 61 62 62 61
65 66 66 67 67 67 67 67 67 66 65 65 65 65 65 65 65 66 66 65 65 65 64 64 63 63 63 63 63 63 61 58 53 54 57 59 63 61 61 62 63 65 63
65 65 64 64 65 65 65 66 66 65 64 65 65 65 65 65 65 65 65 65 65 64 63 62 62 61 62 62 63 62 57 58 51 54 57 59 64 61 61 62 63 63 63
63 63 61 62 62 65 65 65 65 65 64 64 65 64 64 64 65 65 64 64 63 62 61 60 61 61 61 62 62 61 55 55 47 51 54 58 61 59 60 61 61 60 60
63 63 61 62 65 64 64 64 64 64 63 63 63 63 62 61 61 61 62 62 62 61 60 59 60 62 59 59 60 56 52 43 47 50 54 59 59 56 57 58 57 57 57
58 60 62 61 64 64 62 63 61 61 60 59 59 59 58 59 59 60 62 62 61 61 61 59 61 56 51 46 48 50 42 41 43 50 53 58 57 51 54 55 56 56 55
56 59 60 62 63 62 60 61 60 59 58 58 58 58 59 59 60 58 57 58 57 56 50 50 47 45 44 43 44 44 41 40 43 43 52 55 55 48 50 53 54 55 54
59 59 59 62 64 62 60 59 57 57 59 60 60 60 60 59 57 55 56 56 52 50 47 47 46 44 43 42 43 43 41 41 41 43 49 54 54 47 48 51 53 53 52
61 61 60 62 63 60 59 57 58 60 61 61 61 61 59 57 56 53 50 49 47 47 46 44 43 42 42 42 42 41 41 39 37 40 42 52 54 52 50 52 51 49 49
61 61 61 61 57 58 59 59 58 60 61 62 61 60 59 58 54 52 50 47 46 45 45 44 43 43 43 42 42 42 40 38 36 35 38 39 52 56 53 50 47 46 46
60 59 56 57 59 57 56 55 58 60 59 57 58 58 58 57 53 51 48 47 47 46 44 45 44 44 43 43 42 41 38 37 35 34 33 36 44 53 53 46 44 43 44
57 54 57 59 58 57 55 56 57 56 55 53 52 51 50 50 51 49 47 45 45 47 46 45 45 43 43 43 40 36 38 36 34 32 31 32 34 43 48 49 46 44 42
55 54 59 58 56 54 56 57 54 51 49 49 49 48 48 48 49 49 47 45 46 45 45 44 43 44 43 40 36 34 37 34 34 31 30 31 32 34 35 43 41 40 35
53 57 59 56 54 56 57 52 50 49 49 48 47 46 45 45 48 47 45 45 44 43 43 42 40 40 41 40 34 32 32 33 32 32 30 29 30 32 32 31 32 34 40
55 58 57 54 56 56 53 50 49 47 46 46 44 45 46 45 44 44 43 43 43 41 41 42 40 37 37 37 33 33 32 32 31 30 29 29 28 29 29 30 31 30 30
56 58 56 54 56 55 51 50 48 45 45 45 45 45 44 44 43 40 40 36 38 39 40 39 38 37 39 37 33 32 29 30 30 28 28 28 26 27 28 26 28 27 28
57 57 56 55 55 56 52 49 46 46 46 45 44 44 36 32 31 35 35 35 35 36 35 36 39 38 36 36 34 32 28 27 28 28 26 26 26 27 27 27 28 26 27
57 57 57 56 56 56 51 48 44 42 42 44 42 34 30 32 34 35 35 36 36 38 36 38 40 38 36 34 34 32 30 29 24 22 25 25 26 25 25 27 27 27 28
57 57 56 56 55 52 48 48 44 44 42 38 34 30 31 33 35 34 35 37 37 40 40 39 39 37 36 35 33 32 30 28 25 23 22 23 25 25 26 25 26 27 27
57 58 57 49 48 47 46 45 44 38 34 31 30 30 31 33 35 33 35 36 37 40 39 39 39 38 37 36 35 33 30 26 25 24 23 23 22 24 24 24 26 27 27

GFSSE_sfc_dewp_021.txt.gz
Dewpoint
68 70 71 70 70 71 71 70 69 69 68 68 67 66 66 65 65 66 66 64 64 63 62 62 62 62 62 63 64 64 64 64 67 67 68 66 66 66 66 66 66 64 66
68 69 70 70 70 71 71 70 69 69 68 67 67 66 66 65 66 66 65 65 65 62 62 62 62 61 62 64 66 66 64 65 67 67 66 66 65 65 66 65 66 64 66
67 69 69 69 70 71 71 70 69 68 67 66 65 66 65 65 66 66 66 66 65 63 61 61 61 61 61 64 67 67 67 67 67 66 64 62 61 64 64 62 62 62 64
68 68 68 69 70 70 70 69 68 67 66 66 64 64 65 64 65 66 66 65 64 63 61 61 62 62 62 64 65 65 65 64 65 64 62 61 60 63 63 62 61 60 60
68 68 68 69 70 70 69 68 67 67 67 66 65 64 64 64 64 65 66 65 64 62 62 61 62 62 64 63 64 64 63 63 63 61 61 61 60 60 62 61 60 60 60
67 67 68 69 69 69 68 68 68 67 66 65 65 66 65 65 64 65 66 65 62 62 61 61 62 64 64 62 63 63 62 61 59 57 58 60 59 61 61 61 61 61 62
66 67 67 68 68 68 68 68 67 67 66 66 66 66 66 66 65 66 65 65 64 62 62 61 63 64 63 62 62 62 61 60 56 57 58 60 60 61 61 62 63 63 62
64 64 66 67 67 66 67 67 66 66 65 66 66 66 66 66 66 66 66 65 65 64 64 63 62 63 64 62 60 61 60 58 54 56 58 59 63 61 62 63 63 63 63
62 62 62 64 63 64 65 66 65 65 65 66 66 66 65 66 65 65 65 65 64 63 62 62 62 62 63 62 59 60 58 58 51 54 56 58 62 59 60 61 61 61 61
60 61 61 62 63 64 64 64 64 64 64 65 65 65 64 65 65 64 64 64 62 62 62 62 62 62 64 60 58 58 58 53 48 51 54 57 60 57 58 58 58 58 59
59 60 60 60 60 63 64 64 64 64 64 64 64 63 62 61 61 60 62 62 61 61 61 62 61 58 57 59 57 55 50 46 47 50 53 58 58 55 56 56 56 56 56
58 58 58 58 60 63 63 62 61 60 60 60 60 59 59 59 60 60 61 61 61 61 60 59 57 54 48 45 45 46 41 42 44 49 51 56 55 50 53 55 56 55 55
58 59 60 61 62 63 60 61 60 59 58 58 58 57 58 59 59 58 56 56 53 53 46 46 45 44 42 44 43 42 41 41 42 44 51 56 54 48 50 53 55 54 53
58 60 60 61 63 62 60 59 58 57 58 58 58 59 59 57 55 55 54 51 48 48 45 45 45 43 42 43 42 41 39 38 38 40 44 54 53 51 47 52 54 52 51
56 57 58 60 63 61 59 57 56 57 60 60 60 60 58 56 53 49 48 47 47 46 44 43 42 42 42 42 42 40 37 36 35 37 39 49 54 53 47 52 51 49 49
59 58 59 60 62 60 58 57 57 60 61 61 60 59 57 54 52 50 47 46 45 45 44 44 43 43 42 42 41 39 37 35 33 33 36 40 55 56 53 50 47 46 46
60 60 60 60 60 58 58 58 59 61 60 59 59 58 57 54 52 48 47 47 46 45 45 44 44 44 43 42 38 37 37 33 32 31 32 31 42 52 50 48 45 46 46
60 59 58 59 58 57 55 57 59 58 57 56 56 55 52 51 49 47 46 45 46 46 45 44 44 43 43 39 35 36 35 34 31 30 30 32 35 38 45 43 43 41 40
59 56 57 58 57 55 56 57 56 56 52 50 50 49 49 49 49 46 45 46 45 44 44 42 43 42 41 38 34 35 34 32 31 28 28 30 31 31 31 37 41 41 37
57 55 58 57 55 55 55 52 52 49 49 48 48 47 46 49 47 46 45 44 44 42 41 41 37 38 40 38 32 32 32 31 30 30 28 27 28 28 28 28 31 31 39
55 58 57 55 54 56 51 48 47 47 46 46 45 45 46 46 44 43 44 42 41 40 41 40 38 36 37 36 33 32 32 31 29 28 28 26 26 27 27 28 29 28 29
54 57 56 54 56 55 50 48 47 46 45 44 45 44 44 44 43 42 38 35 36 36 36 38 38 37 38 36 33 31 29 30 29 27 27 26 24 26 26 26 27 26 27
54 57 56 54 56 54 51 47 46 45 45 44 43 43 37 36 34 34 35 35 35 35 34 35 38 37 35 34 33 32 28 27 28 28 25 26 25 26 26 26 25 26 27
54 56 57 55 56 54 50 47 44 46 42 43 43 34 30 34 35 35 35 37 37 38 37 40 39 38 35 34 33 31 30 28 25 24 25 25 26 24 24 26 25 26 27
55 56 57 55 55 55 50 48 47 48 46 41 33 30 31 35 35 35 37 37 39 41 40 38 37 36 36 34 33 32 30 28 25 23 21 23 25 25 25 25 25 26 26
56 57 58 56 55 55 52 49 47 48 43 34 30 31 33 35 34 35 36 37 40 40 40 39 38 37 36 35 35 33 30 27 25 24 23 23 23 23 25 25 25 26 27

GFSSE_sfc_dewp_024.txt.gz
Dewpoint
68 70 70 70 70 70 69 69 69 69 68 68 67 66 65 65 66 66 65 65 66 65 62 63 63 64 65 65 65 65 66 68 68 68 67 65 65 66 66 66 66 64 66
68 69 69 70 70 70 69 69 68 68 68 67 66 66 66 66 66 66 66 65 65 65 62 62 64 66 67 66 65 66 67 67 67 66 65 64 64 63 62 62 64 62 65
68 69 68 69 70 70 69 69 68 68 67 66 66 66 66 66 66 66 66 65 65 65 62 61 64 66 67 67 68 68 66 66 66 66 64 61 60 63 62 61 61 60 60
68 68 68 70 70 69 69 68 68 67 66 66 66 66 66 66 66 66 65 65 65 65 61 61 61 63 64 66 67 66 66 65 65 64 61 60 58 61 60 60 59 60 60
68 67 68 69 69 69 68 68 67 67 66 66 65 65 66 65 65 66 65 65 65 65 61 61 60 62 64 64 64 65 64 63 62 60 60 60 59 59 60 61 61 61 61
68 68 68 69 69 68 68 68 68 66 65 65 66 66 66 65 64 66 65 65 64 64 61 61 59 62 64 63 63 63 62 61 60 58 59 60 59 61 62 62 62 62 62
66 66 67 67 68 68 68 68 67 66 66 66 66 66 66 66 66 66 66 65 65 64 63 62 63 62 63 62 63 62 62 60 56 57 59 60 61 61 61 62 63 62 62
62 63 66 66 66 67 68 67 66 66 66 67 67 67 67 66 66 66 66 65 64 64 64 64 64 62 62 63 62 61 60 58 56 57 58 59 62 60 61 61 62 62 62
62 62 63 63 64 65 66 66 66 66 66 67 66 66 66 66 65 65 65 65 64 63 63 64 65 63 61 62 62 60 59 57 52 54 56 59 61 59 58 58 59 60 60
61 61 61 61 61 62 63 64 64 65 66 66 66 65 64 65 65 64 64 64 63 63 63 62 64 61 60 60 60 58 56 52 49 52 54 57 60 56 56 57 56 56 57
59 59 60 60 61 60 64 63 64 65 65 64 64 64 62 61 61 58 62 62 62 62 62 61 60 60 59 57 55 53 49 47 48 50 51 59 57 55 56 56 56 55 55
58 58 59 59 58 58 64 62 59 60 60 60 60 60 59 59 59 60 61 62 62 61 59 58 56 53 48 44 44 46 42 42 43 48 51 58 54 51 55 56 55 55 55
58 58 59 58 59 58 63 60 59 58 59 59 59 58 58 59 59 56 55 53 51 50 45 45 45 44 44 43 42 41 39 39 40 42 51 56 54 50 51 55 55 54 53
55 56 57 58 61 62 61 59 58 57 57 57 57 58 58 57 55 52 51 49 47 46 44 44 44 44 44 43 42 39 38 37 37 39 43 54 55 51 48 55 54 52 51
56 56 58 60 62 62 60 57 57 56 57 57 58 60 58 55 52 48 47 47 46 45 44 43 43 43 43 42 40 38 36 35 35 36 41 56 57 54 50 54 51 50 49
58 59 59 59 61 61 58 56 56 57 59 60 60 58 56 52 50 47 46 45 45 45 44 44 43 43 42 41 39 37 34 33 32 33 35 46 53 52 51 50 48 47 48
57 57 57 59 61 60 58 56 57 60 60 59 59 57 54 52 50 46 46 46 45 44 44 44 44 44 42 38 37 36 34 33 32 32 34 36 43 49 50 48 48 47 46
58 59 59 59 60 58 57 57 58 59 58 58 57 56 52 50 48 47 46 46 46 45 44 44 43 43 40 37 36 35 34 32 31 32 33 34 34 31 39 44 42 41 37
60 59 58 59 58 57 56 57 57 57 56 55 54 52 51 49 47 46 46 46 45 44 43 43 43 42 39 37 35 34 32 31 31 28 29 30 31 30 30 38 39 42 39
59 57 58 58 57 56 56 54 53 51 50 50 49 49 49 48 46 46 46 44 43 42 41 39 37 39 39 37 32 32 32 31 30 29 29 28 29 29 29 31 32 31 37
57 56 57 56 55 55 53 51 51 49 49 47 46 46 48 47 45 44 43 42 41 40 41 39 38 36 37 36 34 33 32 32 29 29 28 28 28 28 29 30 28 28 29
56 57 57 55 55 55 53 48 48 47 45 45 45 45 46 44 43 42 39 39 39 37 36 39 38 38 36 35 33 32 30 31 30 28 28 27 28 28 28 29 29 29 30
55 56 56 55 55 54 51 46 45 46 44 44 43 43 41 39 36 34 35 35 35 35 34 37 38 37 35 34 33 33 30 28 28 29 28 27 28 28 28 28 27 28 30
55 56 57 55 55 54 49 46 44 45 43 43 43 36 32 35 35 35 36 37 37 38 39 39 39 38 36 33 33 32 31 30 28 26 26 26 28 26 27 28 26 27 29
55 55 57 55 55 54 50 47 47 46 45 43 37 31 34 35 35 36 37 38 39 40 39 38 37 36 36 34 33 33 31 29 27 25 22 23 25 26 26 27 27 28 28
54 55 57 55 55 55 52 50 47 48 44 40 36 34 34 34 36 36 37 39 39 39 39 39 38 36 35 35 35 34 31 29 26 25 23 24 23 25 25 27 27 27 28

GFSSE_sfc_dewp_027.txt.gz
Dewpoint
66 66 70 71 70 70 70 69 69 69 68 68 67 67 67 67 66 66 66 66 66 66 64 65 66 66 65 67 66 65 67 68 68 67 66 64 64 63 63 64 64 62 66
67 66 69 70 70 70 69 69 69 68 68 67 67 67 67 66 67 67 66 66 66 66 66 66 66 66 66 67 67 67 66 67 67 66 65 63 62 62 61 61 63 59 63
67 66 67 69 69 69 69 69 68 68 67 67 67 67 67 67 67 66 66 66 66 66 66 67 67 66 67 67 68 67 65 65 66 65 64 55 57 61 60 61 62 61 60
67 65 65 69 69 69 69 68 68 67 67 67 67 67 67 67 67 66 66 65 65 65 65 66 67 67 67 67 67 66 65 65 64 63 55 53 52 60 60 61 61 60 60
67 65 66 69 68 69 68 67 67 67 66 67 67 67 67 67 67 66 66 65 65 64 62 63 64 65 65 66 66 65 64 63 63 58 54 56 55 60 62 61 61 62 62
67 66 67 68 68 68 68 67 67 66 66 66 66 67 67 67 66 66 66 65 65 64 60 62 63 63 64 64 64 64 63 62 60 54 55 59 57 61 62 62 62 62 62
67 67 67 67 67 68 68 67 66 66 66 66 66 66 66 66 66 67 66 65 65 65 63 62 63 64 64 64 63 62 61 61 52 53 54 56 58 60 61 62 62 62 62
66 66 67 66 66 66 67 66 66 67 67 66 66 67 67 67 66 66 66 65 65 65 65 63 64 64 64 63 61 61 61 59 52 53 53 53 60 58 59 60 60 60 60
64 63 63 64 63 63 65 66 66 67 67 67 67 67 67 66 66 65 65 64 64 65 65 63 62 64 63 60 59 59 59 58 52 52 51 50 60 57 57 57 57 58 58
62 62 60 60 61 62 64 65 66 66 66 66 66 66 65 65 65 65 64 64 64 63 65 63 62 62 60 58 57 55 56 55 49 48 51 53 59 56 55 56 56 56 56
60 60 58 59 61 62 63 63 65 66 66 65 64 64 62 59 58 58 61 62 63 62 62 62 60 58 57 56 53 51 51 46 48 47 48 60 57 56 55 55 56 56 56
58 58 58 58 58 58 62 61 62 62 62 61 60 60 59 60 59 58 61 63 62 60 58 57 55 52 49 42 41 46 41 46 47 48 49 58 54 53 56 56 55 55 55
56 56 56 57 57 57 58 60 61 60 60 61 61 60 60 60 59 59 55 53 53 51 45 47 46 44 46 42 41 41 41 40 39 40 50 57 54 50 56 56 54 53 52
55 56 57 57 57 58 59 61 59 58 58 58 58 60 61 58 57 53 49 49 49 47 48 48 47 48 46 44 43 42 42 39 38 40 51 58 56 49 52 57 54 52 51
57 57 56 57 57 61 60 59 58 57 56 58 58 60 60 57 54 50 50 48 47 47 47 47 46 45 44 43 41 39 38 39 41 41 49 55 57 53 54 54 51 51 49
55 57 57 58 60 62 61 59 57 57 58 59 60 61 59 55 52 50 49 47 47 46 47 46 45 44 42 41 39 38 36 35 38 44 46 50 54 53 51 50 48 49 49
54 56 57 59 62 63 61 58 58 58 59 60 60 60 58 54 53 51 48 48 48 48 48 47 47 45 41 39 37 36 35 36 35 40 44 45 44 49 51 49 47 44 43
56 57 58 58 60 63 61 58 58 59 61 61 60 58 55 51 51 51 49 48 48 48 47 46 46 43 42 39 38 35 33 33 36 37 37 38 36 35 42 44 43 41 40
58 58 58 59 60 62 61 58 59 62 61 60 60 56 54 51 50 50 49 49 49 46 47 45 45 45 42 39 36 35 34 32 33 29 32 33 33 31 29 38 41 41 39
57 59 58 59 60 62 59 58 60 59 58 59 59 55 53 49 49 50 49 49 46 45 44 42 43 43 42 39 31 32 33 32 31 32 30 27 30 31 30 31 29 30 36
59 58 58 59 60 59 57 57 58 58 57 57 55 54 53 50 49 49 47 47 45 44 44 44 42 42 39 40 36 34 33 34 32 30 31 30 29 29 31 29 27 26 26
58 59 59 59 59 58 57 57 57 56 54 55 51 52 51 49 48 47 47 44 44 43 44 44 43 40 39 40 37 36 33 32 31 30 29 29 33 30 29 29 30 30 30
58 59 59 58 58 58 58 53 51 53 49 48 47 48 47 48 46 44 45 43 41 39 38 42 42 42 37 37 38 35 32 29 33 32 31 30 32 31 30 30 30 28 30
58 59 59 58 58 57 55 54 53 54 51 48 47 46 44 44 42 37 38 40 40 39 40 41 41 42 40 36 36 34 37 35 29 26 30 31 30 29 32 29 28 29 30
57 58 59 58 57 57 54 54 53 53 53 49 45 42 40 40 39 37 40 41 41 41 43 43 42 41 40 39 36 36 36 34 34 28 22 25 28 28 29 29 29 29 29
58 59 60 58 57 57 55 53 53 52 50 46 43 40 39 38 38 39 39 41 42 42 42 44 43 41 38 37 36 35 31 29 28 28 26 26 27 28 28 29 30 29 30

GFSSE_sfc_dewp_030.txt.gz
Dewpoint
61 63 70 71 71 71 71 70 70 69 69 68 68 68 68 67 67 67 67 67 67 67 66 66 66 67 64 64 67 67 67 67 67 66 65 63 62 62 62 65 63 61 66
62 62 70 70 71 71 70 70 69 68 68 68 68 68 67 68 68 67 67 67 68 67 66 66 67 66 64 64 65 65 65 66 66 66 65 62 61 61 61 62 63 59 63
63 62 66 70 70 70 70 69 68 68 68 68 68 67 68 68 67 67 67 67 68 69 67 66 67 66 64 65 66 66 65 65 65 63 62 48 54 61 61 61 63 61 61
63 62 62 70 69 69 69 68 68 68 68 68 67 68 68 68 67 67 67 67 68 69 68 66 66 65 65 66 67 66 64 64 64 62 50 50 52 61 62 62 62 62 61
64 63 64 69 69 69 68 68 67 67 67 67 68 68 68 67 67 67 67 66 67 68 66 67 66 64 66 66 66 65 63 63 62 55 51 53 54 59 62 62 61 62 62
66 64 68 68 68 68 68 67 67 67 67 67 67 67 67 68 67 67 66 65 65 66 64 64 62 64 65 65 65 63 63 62 58 49 51 56 56 60 61 62 62 62 62
66 67 68 67 68 68 68 67 67 67 66 67 67 67 67 67 67 67 66 66 65 65 64 63 63 64 65 64 62 62 61 59 46 46 50 53 57 59 59 60 61 61 61
67 67 67 67 66 66 67 67 67 67 67 67 67 67 67 67 67 66 66 66 66 64 65 65 65 64 63 61 61 60 60 60 47 46 48 52 59 57 58 58 59 59 59
67 65 65 63 62 64 66 66 67 67 67 67 67 67 66 66 65 65 65 65 65 64 64 65 64 63 60 59 59 59 59 58 46 46 45 50 57 56 55 56 57 57 57
63 63 62 61 61 61 64 66 66 67 67 67 67 65 65 64 65 64 64 64 66 64 63 63 63 61 58 57 56 56 56 56 43 42 45 52 57 55 55 55 56 56 56
59 60 60 60 61 62 61 63 66 67 66 65 64 64 61 53 53 56 62 64 64 63 62 60 59 58 57 54 53 53 53 42 42 41 43 59 57 56 55 55 56 56 55
57 57 58 59 59 59 61 62 63 63 59 60 59 58 55 59 55 54 61 62 62 61 59 57 55 53 51 42 41 49 41 43 41 41 45 57 54 57 56 56 55 55 54
57 57 57 58 58 57 57 60 59 58 60 60 59 57 58 59 57 57 57 55 53 54 45 46 46 44 46 44 43 43 42 40 37 37 48 57 54 51 57 56 54 53 53
56 55 56 55 56 55 55 58 55 54 55 57 57 58 59 56 57 56 54 53 52 49 50 48 48 50 47 46 46 45 44 39 36 38 50 57 56 50 58 55 53 52 51
54 55 54 53 52 54 53 50 52 55 54 53 54 55 54 54 57 54 53 50 49 49 49 48 48 45 46 45 43 42 40 41 41 37 42 56 56 54 55 53 53 51 49
54 54 54 53 53 52 52 55 53 54 53 54 57 59 59 55 57 53 52 50 49 48 48 47 45 44 43 43 43 41 39 38 39 40 38 47 53 54 51 50 50 51 48
55 54 53 56 57 55 57 59 53 54 53 55 58 62 61 57 56 54 51 50 50 49 49 48 47 45 43 40 40 39 38 39 36 40 39 38 44 50 48 47 45 43 42
55 56 56 56 58 59 60 58 53 54 55 57 60 61 60 56 55 54 52 51 49 49 47 46 46 44 43 40 39 37 37 37 39 39 38 38 38 35 43 43 42 40 40
53 54 55 57 58 61 62 58 55 57 58 60 61 60 59 55 54 53 51 51 51 48 48 46 46 45 40 38 37 36 37 34 36 30 35 36 35 34 31 38 39 39 37
54 56 56 58 60 62 60 57 52 57 59 62 61 58 57 53 53 53 52 52 49 46 46 45 44 41 40 38 27 32 36 35 35 35 34 30 34 36 33 32 31 31 35
57 55 56 57 59 60 58 54 53 56 59 60 60 59 57 54 52 53 51 50 48 46 46 46 41 41 38 40 37 37 36 37 36 33 34 32 32 32 34 31 29 26 28
55 57 57 57 58 59 56 53 54 56 57 60 60 59 57 55 52 52 51 48 48 46 46 44 41 37 37 39 39 37 37 36 35 34 32 32 35 32 30 30 30 29 28
54 55 55 56 57 59 57 54 57 58 58 58 57 58 57 55 52 50 51 48 48 45 42 43 41 39 37 39 41 38 36 31 34 33 35 33 34 33 31 30 30 29 29
55 56 56 56 56 58 59 56 57 54 55 57 58 57 54 54 52 48 48 48 47 40 39 39 38 42 41 40 39 36 38 33 25 25 32 33 33 31 33 31 29 30 30
56 56 58 58 57 57 59 58 57 57 56 57 56 54 53 51 50 47 46 45 43 39 40 40 43 43 43 40 38 38 36 33 32 28 26 24 26 27 29 30 30 29 29
56 57 58 58 57 58 59 59 59 58 57 56 53 50 49 46 47 45 42 44 42 39 42 44 46 46 42 40 37 34 30 31 30 29 26 26 25 27 27 28 29 29 29

GFSSE_sfc_dewp_033.txt.gz
Dewpoint
60 65 71 72 72 72 71 71 70 69 69 68 68 68 68 68 68 68 68 68 68 68 67 67 65 65 65 65 66 66 66 67 66 66 65 63 62 63 63 65 63 60 65
61 65 70 71 72 72 71 70 70 69 68 68 69 68 68 68 68 68 68 68 68 68 68 66 64 64 64 64 65 65 65 65 66 65 63 62 62 62 62 62 63 60 63
62 65 69 71 71 71 70 70 69 68 68 69 68 68 68 68 68 68 69 69 69 69 67 65 63 63 64 64 65 65 64 64 63 64 63 51 56 62 62 63 64 62 62
62 64 68 70 70 70 69 69 68 68 68 68 68 68 68 68 68 69 70 69 69 69 67 64 64 64 64 65 65 64 64 63 62 63 51 51 53 63 63 62 62 62 61
62 62 68 69 69 69 68 68 67 68 67 68 68 68 68 68 68 68 69 69 69 69 66 64 64 64 64 66 65 64 63 63 62 55 51 53 54 60 62 62 62 62 62
64 64 68 68 68 68 68 68 68 67 67 68 68 68 68 68 68 67 67 68 69 68 64 63 63 63 65 65 64 62 61 61 62 49 51 55 55 60 61 62 62 63 62
64 67 68 68 68 68 68 68 67 67 68 68 67 67 68 67 67 67 66 67 67 66 64 63 63 63 64 63 62 61 62 61 45 48 50 53 56 58 59 59 60 59 59
67 67 67 68 68 67 67 67 67 67 67 67 67 68 68 68 67 67 66 66 67 66 65 65 64 63 62 61 60 61 60 60 46 47 51 52 58 57 57 58 58 58 58
66 65 66 66 67 67 66 66 67 67 67 67 67 67 66 66 66 66 65 65 65 65 65 64 63 62 59 59 60 58 57 57 45 45 47 50 57 56 56 56 57 57 57
64 63 62 63 65 66 66 66 67 67 67 67 66 65 65 65 65 65 65 64 64 65 64 63 61 60 58 58 57 57 55 57 42 42 47 53 57 55 55 56 56 56 56
61 61 61 61 62 63 64 66 67 67 66 65 64 63 60 56 56 58 64 65 64 63 63 62 60 59 58 56 54 52 54 42 40 41 45 60 57 56 56 56 56 55 55
57 59 60 61 59 57 57 58 59 57 59 58 56 58 54 60 59 56 62 63 62 61 60 59 59 58 55 43 42 50 41 40 37 41 47 59 56 57 56 56 55 54 54
57 58 58 56 56 55 56 57 61 62 62 60 61 58 59 60 60 59 57 57 54 54 45 46 47 47 49 45 44 45 41 38 36 42 50 58 54 56 57 56 54 54 52
56 57 57 57 57 56 57 60 61 60 59 56 56 58 61 59 61 60 56 54 55 50 51 50 49 51 48 46 46 45 42 37 35 42 50 57 55 50 57 55 54 53 51
55 54 54 55 55 56 56 55 55 52 51 53 57 57 57 57 58 55 55 53 52 52 51 51 50 46 47 45 43 41 38 40 39 36 47 55 57 55 56 54 53 52 49
54 54 53 52 52 52 51 52 54 55 52 53 56 55 55 55 59 55 55 52 52 51 51 49 47 45 43 43 42 39 38 36 38 40 40 49 55 55 53 52 53 51 48
51 52 50 51 50 52 50 51 50 52 52 53 52 60 58 54 58 57 54 53 52 51 51 49 47 45 43 39 38 38 37 37 37 38 37 41 47 52 50 48 46 45 43
52 49 47 45 51 53 53 54 53 53 52 50 54 60 60 58 58 57 53 53 52 52 49 47 46 44 42 39 39 37 37 37 38 38 37 37 37 40 46 45 43 42 41
52 51 53 56 53 55 57 56 53 55 54 53 60 63 61 58 56 56 54 54 53 51 49 47 46 44 41 38 37 38 39 38 38 31 35 36 36 33 33 41 40 38 35
54 54 55 56 57 57 59 58 52 50 53 55 60 59 60 57 57 57 54 54 53 50 48 47 47 41 40 39 29 32 39 38 38 37 36 33 34 36 34 34 34 35 37
54 53 53 54 55 56 58 54 50 49 52 57 61 60 59 57 56 57 54 54 53 50 49 49 44 43 38 39 39 40 40 41 41 37 36 34 33 33 35 33 32 28 31
53 54 53 53 55 55 53 52 50 50 51 55 62 60 59 59 56 56 55 53 53 48 49 49 45 40 38 41 41 41 41 39 39 38 36 34 36 34 32 32 32 31 30
53 53 53 54 54 56 55 52 49 49 53 53 57 59 59 59 56 55 55 54 53 50 49 48 45 42 38 41 43 42 39 37 35 37 38 36 36 36 35 32 32 32 31
52 55 54 54 53 54 55 52 51 50 50 54 56 57 58 59 58 54 54 54 52 50 49 47 42 42 42 41 44 41 43 41 32 30 35 36 36 35 36 34 32 32 31
52 53 55 54 54 54 56 56 53 54 54 54 56 58 59 58 57 55 53 54 52 49 48 47 43 43 46 45 45 44 42 38 37 33 30 31 34 31 31 31 32 32 31
51 54 56 54 52 54 55 57 58 56 56 54 58 57 56 56 54 55 51 52 51 49 45 43 45 46 47 45 46 44 37 33 33 33 32 31 29 28 28 30 32 30 30

GFSSE_sfc_dewp_036.txt.gz
Dewpoint
64 69 71 71 72 71 71 71 70 69 69 68 68 68 68 69 69 69 69 69 69 69 66 66 65 64 65 64 64 65 66 66 65 65 65 64 62 63 63 65 64 62 66
66 69 70 71 71 71 71 70 69 68 69 69 69 68 68 69 69 69 69 69 69 67 65 64 64 63 62 64 65 66 66 66 64 64 64 63 62 63 64 62 64 60 63
66 69 70 70 71 71 71 70 69 69 69 69 68 68 69 69 69 69 69 69 69 67 64 64 63 62 61 62 65 64 64 65 66 66 62 57 60 62 63 64 64 62 62
65 68 70 70 70 70 69 69 68 69 69 68 68 69 69 69 69 69 69 68 68 67 64 63 63 62 62 64 65 64 64 64 64 63 54 54 56 63 63 62 63 62 62
65 68 70 70 69 69 69 68 68 68 68 68 68 69 69 69 70 70 69 68 68 66 64 63 63 62 63 64 64 63 62 62 62 55 53 55 57 60 62 63 62 63 62
66 68 69 69 69 69 68 68 68 67 68 68 68 68 68 69 70 69 69 68 68 66 63 62 62 62 64 63 62 63 62 62 60 51 53 57 55 59 60 60 60 61 61
65 68 68 68 68 68 68 68 68 68 68 68 68 67 67 68 68 69 68 68 66 66 63 62 62 63 63 62 61 61 60 60 50 51 52 55 55 58 59 59 58 58 58
65 68 67 68 68 67 67 67 67 68 68 68 67 68 68 67 67 68 67 66 66 66 65 64 64 63 62 61 59 59 59 59 51 50 52 53 58 57 58 58 58 58 58
64 66 66 66 67 67 66 67 67 67 67 68 68 67 67 66 66 67 67 66 66 65 64 64 63 62 60 59 57 57 58 59 49 50 50 53 58 57 57 57 57 57 57
64 65 64 65 66 66 66 66 66 67 67 66 66 65 65 65 65 65 65 65 65 64 63 62 61 60 58 57 55 53 55 57 46 50 52 55 58 56 57 56 56 56 56
62 62 63 64 64 64 64 65 65 66 65 64 64 63 59 58 58 60 64 65 65 63 62 62 61 59 57 55 55 56 54 44 46 51 55 60 57 56 56 56 55 55 55
59 60 60 60 59 61 62 62 64 62 60 58 58 58 58 60 59 61 62 63 63 62 61 60 59 58 55 45 47 54 43 44 46 48 55 59 58 57 57 56 55 55 54
57 59 57 56 57 56 56 57 59 60 61 60 60 59 60 59 59 60 59 58 58 57 50 52 54 51 51 49 49 47 45 41 45 46 56 58 57 57 57 56 55 54 52
57 55 56 55 55 55 54 54 55 59 61 61 59 61 62 60 60 58 57 57 54 53 49 51 54 51 49 48 47 45 43 42 45 47 56 58 58 56 57 56 55 53 51
55 55 56 55 56 56 55 56 56 60 60 57 59 60 60 59 61 59 58 56 54 55 55 55 52 49 48 46 45 42 42 40 40 48 53 57 58 59 57 55 55 52 50
53 53 55 56 57 57 58 58 58 59 59 57 59 59 60 60 59 59 58 57 56 55 55 53 51 48 48 46 43 40 40 40 39 45 48 54 56 57 56 54 54 52 49
52 52 54 55 55 56 56 56 58 56 48 52 57 59 59 57 58 59 57 57 56 55 54 52 48 48 46 42 42 40 41 38 39 39 47 49 51 54 53 50 48 47 45
51 51 51 53 53 53 51 49 53 52 54 55 56 60 59 58 60 60 58 57 56 55 53 51 49 48 46 44 42 41 39 39 38 38 39 42 46 47 50 49 46 45 42
50 49 50 52 50 51 49 49 52 55 58 57 57 61 61 60 59 60 58 57 56 54 54 51 50 48 45 42 41 40 40 40 40 36 37 37 36 42 42 47 45 42 38
49 47 47 48 51 53 51 47 52 53 56 56 57 60 61 60 60 60 59 58 55 54 53 50 49 45 46 44 35 37 42 42 41 40 38 36 38 36 36 38 40 39 41
51 50 51 53 53 53 54 54 55 52 53 54 61 60 62 60 59 59 58 57 55 54 52 52 48 44 42 42 41 42 42 43 42 40 40 39 37 35 36 35 34 35 35
53 53 55 56 56 54 56 57 56 53 52 54 61 61 62 61 58 58 58 56 56 54 53 52 48 46 45 44 43 44 43 42 42 42 40 38 37 36 36 36 34 32 32
54 54 54 55 56 57 57 57 55 53 53 52 59 60 60 60 59 57 58 57 56 55 53 52 49 46 43 44 44 43 41 40 40 41 41 39 39 38 37 37 35 33 33
54 55 54 53 53 54 56 53 53 49 48 52 58 59 59 61 60 58 57 57 57 54 53 51 49 46 44 44 46 45 43 43 38 34 39 39 39 38 39 37 35 34 33
54 55 55 54 54 55 56 56 55 51 51 52 58 58 59 60 60 59 58 57 55 53 51 49 47 45 45 46 45 45 46 47 42 37 34 36 37 37 38 39 36 36 33
53 55 56 55 54 54 56 56 57 55 55 55 57 58 59 59 60 59 56 55 52 51 51 50 50 46 48 47 47 47 47 45 38 37 36 35 34 35 35 36 37 34 34

GFSSE_sfc_dewp_039.txt.gz
Dewpoint
66 70 71 72 72 71 71 70 69 69 69 69 68 69 70 70 70 70 69 68 68 67 65 64 64 64 64 64 64 65 66 66 65 65 65 64 63 63 63 63 64 62 65
64 70 71 71 71 71 70 69 69 69 69 68 69 69 70 69 69 70 68 67 67 66 64 63 62 64 65 65 66 67 66 65 65 65 64 62 63 63 63 63 64 61 64
61 64 70 71 71 71 70 69 69 69 68 68 69 69 69 69 69 70 68 67 67 66 63 61 61 62 63 63 66 66 66 65 64 64 63 60 58 62 63 63 63 62 62
59 63 69 70 70 70 69 69 69 69 68 69 69 69 69 69 69 69 67 67 66 65 62 60 60 62 63 64 64 64 64 63 63 61 56 57 59 62 62 63 63 62 61
64 67 69 69 70 69 69 69 68 68 68 69 69 69 69 69 70 69 67 66 67 65 61 60 61 62 62 63 62 62 63 62 61 58 56 56 57 60 62 62 62 62 62
66 68 69 68 69 69 69 68 68 68 68 68 69 69 70 70 70 69 67 67 66 63 60 60 60 61 62 62 62 62 62 60 58 54 55 57 55 59 59 60 60 60 60
65 68 69 68 67 68 69 68 68 68 68 68 69 69 70 69 69 69 67 67 65 64 62 60 60 62 61 61 61 61 61 59 53 54 54 54 54 58 59 58 58 58 58
65 64 65 69 68 68 68 68 68 68 68 68 68 68 69 69 69 68 67 66 65 65 64 63 63 61 60 60 60 60 61 58 53 53 54 54 58 58 58 58 57 57 57
65 66 65 67 67 66 65 67 67 67 67 68 67 67 67 67 67 67 67 66 66 65 64 63 62 60 58 58 58 58 59 58 52 52 52 54 58 57 57 57 56 56 56
64 64 65 66 66 66 66 66 67 67 66 66 66 65 65 66 67 66 66 65 65 64 63 62 60 58 56 54 54 55 56 57 52 52 54 56 57 57 57 57 56 56 55
63 64 64 64 64 63 63 66 66 66 65 65 64 62 60 60 60 62 65 64 64 63 62 61 59 57 56 53 53 55 53 50 54 55 56 60 57 56 57 56 56 55 54
61 61 62 62 62 62 63 63 63 62 59 58 56 58 57 60 60 62 63 63 63 62 61 60 58 57 52 44 46 50 44 47 52 54 56 60 58 57 57 56 55 54 53
59 58 59 59 59 59 60 62 61 60 60 57 59 58 60 61 60 60 60 59 59 58 54 55 54 48 49 47 44 42 42 45 47 52 56 59 58 57 57 56 55 53 53
54 55 55 56 57 57 55 56 59 60 61 60 60 59 58 59 58 57 56 54 52 51 46 48 51 50 47 45 43 40 40 45 47 52 56 57 58 58 57 56 54 53 51
54 55 55 54 54 54 55 56 58 59 59 59 59 59 59 59 57 56 56 52 52 51 47 52 49 47 46 44 42 40 38 41 47 51 54 58 58 59 57 57 55 53 50
55 55 56 55 55 54 55 56 58 58 57 58 59 58 59 58 58 57 58 54 53 53 53 51 49 48 46 42 39 38 38 38 47 49 52 55 58 59 57 56 54 52 50
54 54 55 55 56 55 55 56 58 58 56 54 52 57 58 58 58 60 58 56 55 53 52 52 49 47 45 43 38 39 37 38 40 46 51 51 53 56 56 56 53 50 48
53 53 54 54 55 55 55 57 58 55 51 48 46 56 57 55 57 57 55 56 55 54 50 48 47 45 43 40 39 38 40 38 36 40 47 49 49 49 53 53 50 48 47
52 52 51 53 54 54 54 56 55 51 47 46 48 56 58 58 57 58 56 57 55 52 52 49 48 46 44 42 40 40 39 39 38 36 37 46 47 46 45 51 51 49 43
51 51 52 53 52 51 51 51 51 50 51 51 55 60 59 59 59 58 58 57 54 52 52 50 47 46 43 41 37 38 38 39 40 38 36 36 38 44 43 42 43 42 44
49 50 52 51 50 49 47 47 48 49 52 54 56 60 60 60 60 58 57 55 53 53 51 49 48 41 40 40 39 39 40 40 39 39 38 36 37 36 38 37 38 36 39
46 46 47 47 48 49 47 45 47 54 51 53 54 60 61 61 60 59 57 54 53 53 52 50 45 43 41 40 39 42 40 40 41 40 40 38 37 35 35 34 34 34 34
47 46 45 45 51 49 50 48 53 55 51 52 55 58 60 58 54 58 58 55 54 54 53 50 46 43 41 43 42 42 40 39 39 40 41 39 36 37 36 36 34 33 33
49 50 51 52 54 52 52 53 54 54 51 49 53 58 59 59 58 59 58 56 55 54 53 50 48 46 44 41 44 44 43 42 38 36 39 39 38 36 36 37 36 34 33
50 51 53 54 54 53 53 54 55 53 52 50 55 58 58 59 59 59 58 57 55 54 53 51 49 47 49 49 46 45 46 47 43 41 36 35 38 38 38 38 36 36 34
53 52 53 53 54 54 55 55 55 55 50 49 50 58 58 59 60 59 58 58 56 51 50 51 50 50 49 49 48 47 47 46 45 42 38 35 35 36 37 38 38 36 35

GFSSE_sfc_dewp_042.txt.gz
Dewpoint
68 70 71 71 72 71 70 69 69 69 69 69 70 70 71 70 69 69 69 68 67 67 64 65 65 65 64 63 63 64 65 65 65 66 65 63 63 64 64 64 65 63 65
66 69 70 70 71 70 69 69 68 68 69 70 70 70 70 70 69 69 68 67 66 65 64 65 65 65 64 64 65 66 66 66 65 64 64 63 62 62 63 63 64 62 65
66 70 69 69 70 70 69 69 68 68 69 70 70 69 70 69 68 68 67 66 65 65 64 64 65 65 65 65 66 66 65 64 64 65 62 58 58 62 63 62 63 61 62
64 68 68 69 70 69 69 68 68 69 69 70 70 69 70 69 68 67 67 65 65 64 63 63 64 62 61 63 65 65 64 63 63 61 58 58 59 63 63 62 62 61 60
60 63 67 69 69 69 69 68 67 68 69 69 69 70 70 68 68 67 66 65 64 63 62 63 62 60 61 63 64 63 63 63 62 58 56 56 55 58 62 62 61 61 61
65 66 68 68 69 69 68 68 68 68 68 68 69 69 70 68 68 67 66 65 64 62 62 60 60 60 62 63 63 63 62 61 58 54 55 57 55 59 59 59 58 57 57
65 66 67 67 68 68 67 68 68 68 68 68 69 69 69 68 68 67 65 65 64 63 60 59 60 61 61 63 63 62 60 60 54 54 54 54 54 58 58 58 58 57 57
64 66 67 68 68 67 67 68 68 68 69 69 69 69 69 68 67 67 65 65 65 64 63 62 61 61 60 61 62 61 60 58 54 54 54 55 58 58 58 57 57 57 56
65 65 64 64 64 67 64 67 67 67 68 68 68 68 69 67 67 66 66 65 64 63 62 61 60 59 59 59 61 60 59 58 52 53 53 54 58 57 57 57 56 56 55
63 63 64 65 64 62 62 66 67 67 67 67 67 67 66 66 66 66 65 64 63 62 61 60 59 59 59 59 60 60 59 57 52 54 55 56 58 57 56 56 55 54 54
63 63 63 63 63 63 63 66 66 66 66 65 66 65 64 64 63 62 63 63 63 61 60 59 59 57 55 57 59 58 56 54 54 54 56 60 57 56 55 55 55 54 53
61 62 62 61 62 62 64 64 64 63 60 60 59 59 60 61 61 61 62 62 61 61 60 59 57 55 52 45 47 53 50 53 54 55 57 60 57 56 56 55 54 53 53
59 61 60 60 61 61 62 62 61 59 59 57 56 58 59 61 61 61 60 59 58 59 55 53 48 48 46 44 42 45 47 48 51 54 58 60 58 57 57 54 54 53 52
58 58 59 59 59 59 60 60 60 57 59 59 59 59 58 58 57 57 56 56 53 51 49 48 49 48 45 43 41 44 46 47 50 52 55 59 59 58 57 56 53 53 52
55 56 57 58 58 58 58 58 59 60 60 60 58 58 56 55 55 55 54 52 50 49 47 51 49 47 45 42 40 41 45 45 48 51 53 56 59 58 57 57 55 52 52
55 55 55 55 56 57 57 57 58 58 58 59 60 58 57 56 55 54 55 51 50 50 47 51 47 46 43 39 39 40 42 47 47 50 53 56 59 59 58 56 55 53 50
55 55 54 55 56 56 56 56 57 58 56 55 56 58 58 57 57 57 57 54 52 51 52 50 49 47 44 40 38 38 39 45 47 49 52 53 56 58 58 57 54 53 50
55 55 55 55 55 54 55 53 55 56 54 51 51 57 57 57 58 58 58 56 55 53 53 51 49 46 45 41 38 39 38 39 44 47 50 50 51 52 55 56 55 51 49
53 54 54 54 54 53 54 54 55 53 49 48 49 53 56 56 57 57 56 56 55 53 50 49 47 46 42 41 39 39 39 38 38 45 47 48 48 48 48 53 53 52 49
52 52 53 53 53 53 54 54 54 52 48 48 49 53 55 57 57 58 56 56 54 52 50 48 47 47 44 42 38 38 38 39 39 40 42 46 47 46 46 47 48 47 49
51 51 52 52 53 52 51 53 52 50 49 50 51 53 57 57 59 58 57 56 54 51 51 49 47 43 42 42 39 38 39 40 39 39 37 40 42 44 44 43 41 39 42
50 51 51 52 52 51 51 51 50 49 49 51 51 55 59 60 59 58 57 56 53 52 51 49 46 43 40 41 38 41 38 41 40 40 39 37 37 41 40 38 37 36 37
49 50 51 51 50 50 49 48 47 49 52 51 51 53 56 59 59 59 57 56 53 52 52 50 46 43 41 42 42 41 40 39 39 40 40 40 38 37 37 36 35 36 35
48 49 50 50 49 49 49 46 45 46 47 49 52 52 56 59 59 58 58 56 54 53 52 51 47 44 43 42 44 44 45 43 38 37 39 40 39 37 36 37 36 34 33
47 46 46 48 47 48 49 47 46 46 48 53 51 51 55 58 58 56 57 57 55 54 54 53 48 46 48 48 48 46 46 46 42 42 39 38 38 39 38 37 37 36 34
47 45 45 45 45 51 49 49 49 50 52 54 51 51 53 56 58 58 58 58 56 56 55 53 51 48 49 47 47 47 47 46 46 44 41 39 37 37 38 38 38 37 36

GFSSE_sfc_dewp_048.txt.gz
Dewpoint
66 63 71 71 70 70 70 69 70 70 71 71 70 71 70 70 70 70 68 68 67 67 65 65 65 64 65 65 64 63 64 65 65 65 66 65 65 66 66 66 65 63 66
68 69 70 70 70 69 70 69 69 69 69 70 70 70 70 70 69 68 67 68 67 67 65 64 64 64 64 64 64 65 65 64 64 64 64 63 63 63 64 64 65 62 65
68 68 66 70 70 69 69 69 69 69 70 70 70 70 69 69 68 67 68 67 67 67 65 65 65 65 65 64 65 65 64 64 63 61 61 56 56 61 61 60 62 61 62
68 67 67 69 69 69 69 70 70 70 70 70 70 69 69 68 68 68 67 67 67 67 65 65 66 65 64 65 65 64 63 62 62 61 60 60 59 62 62 61 60 59 60
67 67 68 68 67 68 69 69 69 70 70 69 69 69 68 68 68 68 67 67 67 66 65 65 65 65 65 65 64 64 61 61 60 57 55 56 56 59 59 58 58 58 58
64 66 68 67 67 67 67 69 69 69 69 69 68 68 68 67 68 67 66 66 66 63 61 62 65 66 65 64 64 62 61 60 58 55 56 57 54 58 58 58 57 57 57
63 65 66 66 66 66 66 66 68 68 68 68 68 67 67 66 66 66 66 65 63 63 63 65 65 65 64 63 62 61 61 59 54 54 54 55 55 59 58 59 58 57 57
63 63 65 66 66 66 64 63 65 66 67 67 67 67 66 66 66 66 65 63 64 66 66 66 65 64 63 62 61 61 60 59 55 54 55 54 58 57 57 56 56 55 55
64 63 62 65 65 65 63 63 64 65 66 67 67 66 66 65 65 65 63 63 64 65 65 64 63 63 63 62 61 60 60 58 54 54 54 54 58 56 56 56 56 55 55
64 65 63 64 64 63 62 61 62 63 64 67 67 66 66 65 64 62 61 61 61 62 63 64 63 62 62 61 60 60 60 57 54 54 55 55 57 56 56 56 56 55 54
62 63 64 64 61 60 59 61 61 60 65 66 67 66 64 62 60 58 60 61 60 60 61 63 63 62 61 61 61 60 57 54 54 55 56 59 57 57 56 56 55 54 54
59 61 62 63 62 61 61 58 57 60 63 65 65 63 62 60 58 57 59 59 59 60 61 63 63 61 59 57 57 57 54 54 55 55 56 59 58 56 56 54 54 53 52
59 60 60 60 59 60 61 60 60 61 61 63 63 62 60 59 59 58 57 56 55 54 51 53 52 52 52 53 52 53 54 54 55 56 59 60 58 57 56 54 53 53 52
58 59 59 58 57 58 60 61 60 61 60 61 61 60 59 59 57 56 54 52 50 48 48 47 46 47 49 51 52 52 53 54 55 56 59 60 59 57 56 55 54 53 52
57 59 59 58 57 57 57 59 60 60 60 61 60 59 58 57 55 54 52 50 48 48 48 46 44 44 46 48 50 51 51 52 53 54 56 60 60 58 57 56 55 54 53
58 58 59 59 58 58 57 58 58 59 60 61 59 58 57 56 54 52 51 48 47 47 49 46 44 43 44 45 46 47 48 48 50 52 54 57 59 59 59 56 55 55 53
56 58 58 58 59 58 58 58 59 59 58 59 58 56 56 55 54 53 51 48 47 48 48 47 45 42 41 42 44 45 45 46 47 49 52 54 57 59 59 59 56 54 53
56 57 58 59 59 59 59 58 58 58 57 58 58 56 54 54 54 52 50 49 48 49 50 48 46 43 41 40 41 44 45 46 46 49 52 55 56 56 58 58 58 56 53
55 56 57 58 58 58 57 57 55 55 57 56 57 56 55 54 54 53 51 51 50 50 51 48 48 45 42 40 39 40 43 45 45 47 50 52 54 54 55 58 57 56 55
54 55 56 57 57 57 57 56 55 54 50 54 55 57 56 55 56 55 54 53 53 51 52 50 47 46 45 41 37 38 39 40 42 46 47 50 51 52 52 53 54 53 54
54 54 55 56 56 56 56 55 54 54 51 49 51 54 57 56 57 57 56 56 55 53 52 50 47 45 43 42 39 39 39 39 39 40 45 47 49 50 49 50 50 49 51
53 54 54 54 55 56 57 56 54 54 50 49 50 53 56 56 57 57 56 56 55 53 51 49 47 45 44 42 39 39 36 38 41 40 40 42 46 47 47 47 48 47 47
52 52 53 53 54 55 55 54 50 50 50 49 49 51 52 55 55 56 56 55 55 53 51 49 47 45 43 42 42 41 39 37 40 42 41 40 41 43 45 45 45 45 43
51 52 52 53 53 53 52 51 50 50 49 49 47 49 50 53 54 56 56 56 55 54 52 51 48 46 44 42 42 42 44 43 39 39 40 41 40 39 41 43 43 42 40
50 51 51 52 52 52 51 51 50 49 49 48 48 48 49 52 53 55 56 56 55 54 53 52 50 47 47 46 47 47 46 45 43 41 39 40 41 41 40 41 41 41 39
50 50 51 51 51 51 50 50 50 50 49 48 48 48 49 51 53 54 56 56 55 54 54 53 52 50 51 50 49 49 47 46 44 42 41 41 40 40 41 41 40 40 40

GFSSE_sfc_dewp_051.txt.gz
Dewpoint
64 65 70 70 71 71 72 71 71 71 71 72 71 71 71 71 71 70 70 70 70 69 67 66 66 66 64 64 65 65 66 67 67 67 67 66 66 66 66 66 66 63 66
62 67 70 70 70 71 71 71 71 71 71 71 71 70 71 71 70 69 69 68 68 68 65 65 65 63 64 64 65 66 66 65 65 66 66 65 65 65 65 65 66 63 64
62 66 67 69 70 70 71 71 71 71 71 71 70 70 70 70 69 68 68 67 67 66 64 64 64 64 65 64 65 65 64 64 63 63 63 57 58 62 62 63 63 62 62
64 67 68 69 69 70 70 70 70 71 71 70 70 70 70 69 68 68 67 67 66 66 64 64 64 64 64 65 65 65 64 64 64 63 56 55 56 61 62 61 61 61 61
67 67 67 69 69 70 70 70 70 70 70 69 69 70 69 69 69 68 67 67 67 66 65 64 65 64 65 65 64 64 63 61 62 57 56 57 56 57 60 59 59 59 59
67 67 68 68 69 70 70 70 70 69 69 69 69 69 68 69 68 68 67 67 67 67 66 65 64 64 65 64 63 62 62 61 59 53 54 54 56 59 59 59 59 58 58
66 68 67 67 67 69 70 70 69 69 68 68 68 68 68 68 68 67 67 66 66 66 65 65 64 64 64 63 62 61 61 60 54 53 53 54 56 59 59 59 58 58 56
64 67 67 67 66 67 68 68 68 68 68 68 67 67 68 67 67 66 65 65 64 66 66 66 65 64 63 62 61 61 60 58 54 53 53 55 58 58 58 57 56 56 55
65 64 66 66 65 65 65 66 66 67 67 67 66 66 66 66 66 65 65 66 66 67 66 65 64 63 62 61 61 61 60 59 53 53 52 52 57 57 57 57 56 55 55
65 64 64 65 66 64 64 63 65 65 65 65 66 65 65 65 65 64 65 67 66 66 65 64 63 63 62 61 61 60 60 59 54 53 52 53 58 57 57 56 56 55 55
63 65 65 65 65 64 63 62 64 65 64 64 65 65 63 62 59 59 62 65 65 64 63 63 63 62 61 61 61 60 59 54 54 53 52 59 58 57 57 56 55 55 54
61 63 64 64 63 63 61 61 63 63 62 62 64 64 61 61 58 56 60 62 63 63 63 63 62 61 58 54 56 57 53 55 54 54 52 59 57 57 57 55 55 54 53
61 61 62 62 61 61 61 60 60 62 63 62 65 62 60 58 58 56 57 56 60 61 59 58 58 54 55 54 53 54 55 55 54 54 55 59 57 56 56 55 54 53 52
59 59 60 61 61 60 60 59 61 61 62 61 64 60 58 57 57 57 54 53 54 56 59 57 55 56 56 54 54 55 55 54 54 54 56 59 59 56 55 54 54 53 52
58 59 58 58 59 60 59 60 61 61 61 62 62 58 56 55 56 52 52 49 50 52 53 53 54 53 54 54 54 54 55 56 56 55 55 59 60 58 56 55 54 54 52
58 59 58 57 58 59 59 59 60 60 60 61 61 59 58 56 56 51 50 49 49 48 50 51 52 52 51 52 53 54 54 55 56 56 55 56 59 59 58 57 56 55 53
58 59 57 58 58 58 58 58 60 59 60 61 60 59 58 56 56 54 50 49 50 50 49 48 49 50 50 50 51 52 52 53 53 54 56 56 56 59 59 59 57 56 54
57 59 58 59 58 58 59 59 59 60 60 60 60 59 57 55 55 53 50 49 51 51 48 46 45 47 47 48 47 47 46 47 48 50 53 55 54 53 58 59 58 57 55
56 58 58 59 58 58 59 59 59 59 59 58 59 58 57 55 53 52 50 50 52 52 50 48 46 45 45 44 44 45 46 45 47 44 48 53 56 56 55 58 58 57 57
56 57 58 58 58 58 58 58 58 58 56 58 59 58 56 54 54 54 51 52 51 52 51 49 48 47 44 43 36 41 45 46 46 47 47 50 54 57 57 56 56 54 56
56 56 57 57 57 57 57 56 56 56 55 56 57 57 57 55 55 56 54 54 52 51 53 53 50 49 46 45 41 41 41 43 45 44 47 47 50 52 54 55 54 52 53
55 55 56 57 57 57 57 57 56 55 53 54 56 58 57 57 56 57 57 56 55 54 54 55 52 49 48 46 43 43 41 41 41 42 42 45 48 49 50 52 53 53 52
54 55 55 56 56 56 57 56 55 53 51 50 52 55 56 57 55 56 58 58 58 58 54 55 54 52 49 47 47 45 42 43 43 43 44 42 44 46 47 49 51 52 52
53 54 54 56 56 56 57 55 53 52 51 50 50 52 52 55 57 57 58 58 58 58 58 57 54 54 53 50 46 44 48 46 43 42 43 44 43 43 47 47 47 49 50
53 53 54 55 55 56 55 55 53 53 52 52 51 51 51 53 54 55 57 58 58 58 58 58 57 55 54 54 50 48 47 46 46 46 46 43 42 43 42 45 46 46 46
51 52 53 53 54 54 55 54 54 53 52 51 50 50 50 50 54 55 54 57 58 59 59 59 58 57 56 54 52 51 48 48 45 44 44 45 43 43 44 43 43 44 44

GFSSE_sfc_dewp_054.txt.gz
Dewpoint
63 63 71 71 72 72 71 71 71 71 71 72 71 71 71 71 71 70 70 70 69 69 68 67 67 66 67 67 67 67 67 68 67 68 67 67 66 67 66 67 66 63 66
64 64 70 71 72 71 71 71 71 71 71 71 71 71 71 71 71 71 70 70 69 69 67 66 65 64 66 66 66 67 67 67 67 67 67 66 66 66 66 66 66 63 64
64 66 67 70 71 72 72 71 71 72 71 71 71 71 71 71 71 70 69 69 68 68 66 64 64 64 65 65 66 65 65 65 65 64 64 59 60 64 63 63 63 62 62
62 65 65 70 70 72 71 71 71 72 71 71 71 71 70 70 69 69 68 67 67 67 64 64 64 63 64 65 65 65 65 63 63 64 53 56 59 62 63 62 62 61 61
63 63 62 70 70 70 71 71 71 71 70 70 70 70 70 69 69 68 67 66 67 66 63 64 64 64 65 65 65 64 64 64 63 56 53 55 56 59 61 60 60 60 60
67 64 67 69 70 70 70 70 70 70 70 69 69 69 69 69 69 68 67 66 67 66 64 64 64 64 64 64 64 63 63 62 61 51 52 56 55 59 59 59 58 58 58
66 66 66 68 69 68 68 70 70 69 69 69 68 68 69 69 68 68 66 67 67 67 64 64 64 64 64 64 63 62 61 61 51 50 52 54 58 59 59 59 57 58 57
66 68 67 68 67 67 67 68 69 68 68 68 68 68 68 68 67 67 67 67 66 66 65 65 65 64 63 62 61 61 61 59 52 50 52 53 59 59 59 57 57 56 56
66 66 68 68 65 66 65 67 67 67 67 67 67 68 67 67 67 66 66 66 66 66 65 65 64 63 62 62 62 61 60 61 51 51 51 53 58 58 57 57 56 56 55
66 64 66 66 67 66 67 66 66 66 66 66 67 66 66 66 65 66 66 67 67 66 65 64 64 63 62 62 61 61 59 59 50 50 50 54 58 57 57 56 56 55 55
64 65 65 63 64 65 65 65 65 65 65 65 65 65 64 62 62 61 62 66 66 64 64 64 63 62 62 61 61 60 59 50 51 49 51 59 58 57 57 56 56 55 55
62 64 65 62 64 64 63 63 64 64 65 64 62 62 62 63 61 57 64 65 65 64 63 63 62 62 57 52 54 58 50 52 51 51 52 59 58 57 57 56 55 55 54
61 62 64 64 64 63 62 62 63 64 63 63 62 61 62 60 57 61 63 62 62 61 56 57 57 52 52 50 51 51 53 53 51 51 55 59 58 57 56 55 55 54 53
60 61 63 64 64 63 62 62 62 63 62 62 62 61 62 58 59 58 58 58 58 56 56 55 53 53 53 51 52 53 54 52 52 52 55 59 59 57 56 55 54 53 52
59 61 62 62 62 61 60 61 62 62 61 62 61 60 58 57 57 54 55 56 56 55 55 54 53 53 52 51 52 53 53 53 53 51 53 59 59 58 56 56 55 54 52
59 59 59 60 61 61 59 60 61 61 61 62 60 57 56 56 56 52 52 50 52 54 54 52 51 50 48 49 51 51 52 53 53 54 52 55 59 59 58 56 56 54 53
58 58 59 59 59 59 59 60 60 61 61 61 58 59 55 55 56 55 48 48 49 50 51 50 51 49 47 47 50 51 50 52 52 53 52 53 56 59 59 59 57 55 54
59 58 58 58 59 59 59 59 59 60 61 61 59 57 55 53 55 53 48 48 48 49 48 48 49 48 47 46 48 48 48 49 50 52 52 52 52 53 58 59 59 58 55
58 59 58 58 59 59 59 59 59 59 59 60 60 55 55 52 51 50 48 49 52 49 48 47 47 47 46 45 45 45 45 44 46 44 49 52 53 52 52 58 58 58 58
57 59 58 58 59 59 59 60 59 59 59 59 58 56 55 52 53 51 48 52 52 50 50 49 48 46 45 43 37 41 44 44 45 45 46 46 49 53 52 53 56 54 57
57 57 58 57 57 58 57 58 58 57 56 57 56 57 58 53 53 53 49 52 52 51 52 53 50 49 45 46 41 42 43 46 47 44 45 46 48 50 53 52 52 51 53
55 57 58 57 58 57 57 58 57 57 54 55 55 56 57 58 53 53 52 51 52 51 55 55 53 50 48 47 44 45 44 44 44 45 44 45 48 46 47 51 51 51 50
55 56 57 57 57 57 57 58 57 57 57 55 54 54 56 57 53 53 54 53 53 52 53 56 55 54 50 51 51 48 46 45 45 46 46 44 47 47 47 47 50 49 51
54 56 57 57 57 57 58 57 56 54 53 54 54 53 54 57 56 53 54 55 56 54 54 55 55 55 55 51 50 49 52 51 46 46 46 46 47 46 47 46 47 49 50
53 55 55 56 57 57 57 56 55 54 53 53 53 54 56 57 56 54 55 57 58 58 58 58 58 58 56 58 53 52 51 50 51 49 48 48 47 46 46 46 48 47 49
53 54 54 55 56 56 56 56 55 55 53 53 53 52 54 55 57 58 56 59 60 59 59 60 60 59 58 57 58 55 53 51 50 49 48 49 48 49 49 48 48 47 47

GFSSE_sfc_dewp_057.txt.gz
Dewpoint
62 67 71 72 73 72 72 71 71 71 72 72 71 71 71 71 71 70 70 70 70 70 69 69 68 68 68 68 68 68 68 68 68 68 68 68 67 67 66 67 66 63 66
64 66 71 72 73 72 72 71 71 71 72 72 71 71 71 71 71 70 70 70 70 69 67 67 68 67 67 67 68 68 68 68 67 67 67 66 66 66 66 66 66 62 64
64 66 67 70 71 72 72 71 71 72 72 71 71 71 71 71 71 70 70 69 69 68 66 66 67 67 66 66 67 67 67 67 66 65 65 61 62 65 64 64 64 63 63
62 65 65 70 70 71 71 71 71 71 71 71 71 71 71 70 70 70 69 69 68 68 65 64 66 66 65 66 65 65 66 66 65 64 58 59 60 64 63 62 62 62 61
64 64 64 70 70 71 71 71 71 71 70 71 71 71 71 70 70 69 68 68 68 67 64 63 64 65 65 66 65 64 64 63 63 59 55 58 59 61 62 61 60 60 61
66 62 67 69 70 71 71 71 71 70 70 69 69 70 70 70 69 68 67 67 67 66 64 65 64 64 65 64 64 64 63 63 63 51 53 57 56 61 61 60 59 59 59
67 65 68 68 69 70 70 70 70 69 69 69 69 69 69 68 68 67 66 66 66 66 65 64 64 64 64 64 64 63 62 60 50 51 52 55 57 60 59 59 58 58 58
66 69 68 68 68 68 68 67 68 68 68 68 68 68 68 68 67 67 67 66 66 65 66 65 64 64 63 63 62 61 60 60 51 51 52 54 59 59 59 58 57 57 57
66 68 69 69 67 67 66 67 67 68 68 68 68 68 67 67 66 66 67 67 66 66 66 64 64 64 63 62 61 60 59 60 50 50 50 53 58 58 58 57 57 56 56
66 67 68 68 67 66 68 66 66 67 66 67 67 67 67 66 66 66 66 66 66 66 65 64 64 63 62 62 61 60 58 58 50 49 51 54 59 58 57 57 56 56 56
64 66 65 66 66 66 65 66 66 66 64 66 67 66 65 63 64 64 64 66 65 64 64 64 63 63 62 61 60 59 60 49 49 50 52 59 58 57 57 56 56 55 55
62 65 65 65 65 65 65 64 65 65 65 64 64 65 63 64 63 60 65 65 64 64 64 63 63 62 57 50 52 57 52 50 50 51 53 60 58 57 57 56 56 55 55
60 63 64 63 63 64 64 65 64 67 66 65 62 61 62 64 62 64 65 64 61 61 58 57 57 51 50 48 52 53 52 52 50 51 56 60 58 57 57 56 55 55 54
59 61 63 62 62 63 64 64 64 63 63 63 62 61 62 62 62 64 61 61 59 56 55 53 51 53 51 50 52 53 53 50 50 52 56 59 59 57 56 55 55 54 53
59 61 63 63 63 63 62 63 63 63 62 62 61 61 62 60 61 61 61 60 57 56 54 53 52 51 51 51 52 53 52 52 52 51 53 59 59 58 56 56 55 54 53
59 60 61 62 62 62 62 62 62 63 62 61 60 60 61 59 60 60 60 57 55 55 53 51 51 50 48 50 52 53 52 52 52 53 52 55 59 59 58 55 55 55 53
58 60 59 61 62 60 60 61 62 62 62 60 60 61 60 58 59 59 57 56 55 55 54 52 52 49 47 48 50 51 51 53 52 53 53 53 55 59 59 58 57 55 54
59 58 59 59 60 60 60 61 61 61 61 60 60 61 58 56 58 58 53 52 51 53 51 49 49 46 46 47 49 49 49 51 52 53 52 53 53 53 57 59 59 58 55
58 58 58 60 60 60 60 60 60 60 60 60 60 57 57 55 53 54 50 53 53 51 50 48 49 48 46 46 47 48 48 48 50 48 51 53 54 53 55 57 59 59 58
58 58 59 58 59 59 59 59 59 59 60 60 58 56 55 52 53 55 54 57 53 48 48 48 51 49 47 46 41 44 46 45 46 46 48 48 51 53 54 57 57 56 58
56 59 59 58 59 59 58 57 57 57 58 58 59 55 56 53 53 55 53 57 56 52 51 53 49 48 46 47 42 42 44 46 47 45 46 46 48 50 52 51 57 55 55
55 58 58 57 58 58 58 58 57 57 57 57 57 59 56 56 52 53 54 53 55 52 55 55 54 49 45 46 41 41 41 43 45 47 47 47 52 47 48 53 53 54 54
55 57 57 57 57 57 58 59 58 57 56 55 55 55 56 57 53 53 55 55 55 55 55 57 56 54 49 49 51 46 44 42 45 48 51 49 52 50 48 48 51 51 52
54 56 57 57 57 57 58 57 57 55 53 53 53 52 52 57 56 53 54 56 57 55 56 58 56 56 55 51 52 50 55 53 49 48 49 50 50 49 52 50 48 50 51
54 56 57 57 57 57 57 57 57 55 55 53 53 53 54 57 58 56 55 57 57 56 57 58 59 59 57 55 54 53 53 52 53 50 50 49 50 48 47 51 50 50 51
53 55 56 57 57 57 57 57 57 55 54 53 53 53 54 55 57 57 55 57 59 60 60 59 60 60 59 58 59 55 55 52 51 53 52 51 53 51 50 51 54 54 53

GFSSE_sfc_dewp_060.txt.gz
Dewpoint
67 68 71 73 72 72 72 71 71 72 71 71 72 72 72 71 70 70 70 69 69 70 69 69 68 68 69 69 69 69 69 69 68 69 68 68 67 67 67 67 66 64 67
67 67 71 72 73 72 72 72 71 72 71 71 72 72 71 71 70 70 70 70 70 70 69 68 68 68 68 68 69 69 69 68 68 68 68 67 66 66 66 66 66 63 65
64 69 69 72 72 72 72 72 72 72 72 71 72 71 71 71 70 70 70 70 69 70 68 68 68 67 68 68 68 68 68 68 67 66 66 62 62 65 65 64 64 64 64
62 67 68 71 72 72 72 71 71 72 71 71 71 71 71 71 71 70 69 69 69 68 68 68 67 66 67 67 67 67 67 66 65 64 60 61 61 64 64 64 63 62 61
63 66 66 70 70 72 71 71 71 71 71 70 71 71 71 71 70 69 69 68 68 67 66 67 66 66 66 66 66 66 66 66 66 60 58 59 61 62 62 61 60 61 60
65 65 68 69 70 70 71 71 70 70 70 70 70 70 71 70 70 69 68 67 67 66 65 66 65 65 65 65 64 64 63 64 64 55 57 60 59 62 61 60 59 59 59
67 68 68 68 69 70 70 70 70 70 69 69 70 70 70 69 69 68 67 67 67 66 66 65 65 64 65 64 63 62 60 61 52 53 55 56 57 59 60 60 59 59 59
68 69 69 68 69 68 69 68 68 67 68 68 69 69 69 68 67 67 67 66 67 66 66 65 65 64 64 63 61 59 60 62 53 53 55 55 59 59 59 59 58 57 57
67 68 70 69 68 67 66 66 66 65 63 68 68 68 68 67 66 67 67 67 67 66 66 65 64 64 63 61 61 59 59 61 52 53 54 55 59 58 58 58 57 57 57
66 68 68 68 68 66 66 66 64 64 60 61 68 67 66 66 66 67 66 66 66 66 65 65 64 64 62 61 59 59 59 60 50 52 54 56 58 58 58 57 57 57 57
65 66 67 67 67 67 65 66 64 64 60 66 67 66 64 64 64 65 65 66 66 64 64 64 64 62 61 59 59 59 60 51 51 53 54 59 58 58 57 57 57 56 56
62 65 65 66 66 65 65 65 63 63 63 66 65 65 64 64 63 63 64 65 65 64 64 63 62 61 57 53 54 57 54 51 52 53 55 59 58 58 57 57 56 56 55
61 64 65 65 65 64 64 64 64 64 64 65 64 64 64 64 63 64 64 64 63 63 60 60 58 52 50 51 53 54 55 52 52 53 57 60 58 57 57 56 56 56 54
60 61 64 64 64 64 64 64 63 62 64 62 62 62 63 62 62 63 62 60 58 57 56 55 53 53 51 52 55 55 53 52 53 54 57 59 59 57 57 56 56 55 54
58 61 63 63 62 63 63 64 63 63 62 62 61 61 62 62 62 62 61 58 55 55 54 52 52 52 53 52 55 54 54 52 53 54 56 59 58 58 56 56 55 55 54
59 61 62 63 63 62 62 63 63 63 62 60 60 60 61 62 61 61 61 58 55 55 54 52 53 53 52 52 54 54 53 52 52 54 55 57 59 58 58 56 55 55 54
59 60 61 61 62 62 62 62 62 62 61 60 59 60 60 61 59 60 59 58 56 55 54 53 53 53 52 52 53 54 54 54 52 53 53 55 57 58 58 58 57 55 55
59 59 60 61 61 61 61 61 62 62 61 59 59 59 59 59 59 59 59 58 56 54 54 55 52 51 51 51 52 52 53 53 53 53 53 53 54 55 58 59 58 58 56
58 59 59 60 60 60 60 61 61 61 61 59 59 58 58 58 58 59 59 59 57 56 55 53 53 51 50 50 51 52 52 52 53 51 53 53 54 54 55 57 59 58 58
58 58 59 59 60 59 60 60 60 60 59 59 58 58 59 56 56 57 55 56 55 54 53 53 52 52 51 50 46 49 51 51 51 52 51 52 54 54 55 55 56 56 58
58 58 58 58 59 59 58 58 58 57 58 58 59 57 57 55 54 55 54 54 54 52 51 53 53 52 51 51 48 49 48 48 50 49 50 50 51 53 55 56 56 55 56
58 58 58 58 58 58 58 57 57 57 58 58 58 55 54 54 53 54 54 54 54 55 54 53 51 51 50 51 47 45 44 45 47 49 49 48 49 50 52 55 56 55 55
56 57 58 57 57 57 58 57 57 57 57 56 56 55 53 54 52 52 55 55 55 56 55 54 54 53 49 50 48 46 43 43 44 47 48 49 48 51 50 51 53 55 55
55 57 57 57 57 57 57 57 56 55 54 52 55 56 54 57 54 52 53 55 55 55 56 57 56 55 55 49 49 48 51 53 51 48 48 49 51 50 50 50 50 52 52
55 57 57 57 57 57 57 57 56 55 53 52 54 54 54 56 58 54 55 56 55 54 54 57 57 56 56 56 52 53 52 52 53 52 49 49 49 49 50 52 52 50 50
54 57 57 57 56 57 57 57 56 55 54 51 52 51 52 53 57 58 54 55 57 57 56 57 58 57 57 57 56 55 54 52 51 52 51 50 50 50 50 51 51 52 52

GFSSE_sfc_dewp_063.txt.gz
Dewpoint
68 71 72 72 72 72 72 72 72 71 71 72 72 72 71 71 70 70 70 69 69 69 69 69 69 68 69 70 70 70 70 69 69 69 69 68 67 67 67 67 68 66 68
68 70 71 72 72 72 72 72 72 71 72 72 72 71 71 70 70 70 69 70 70 70 69 68 68 67 68 69 70 69 69 68 68 68 68 67 66 67 66 66 67 65 67
67 70 71 72 72 72 71 72 72 72 72 72 72 71 70 70 70 70 70 70 70 70 69 68 68 68 68 69 69 68 68 67 67 66 66 63 63 66 65 65 66 65 64
68 69 71 72 72 72 71 72 72 72 72 72 72 71 71 71 71 70 70 70 70 70 68 68 67 68 68 68 68 68 67 67 66 65 62 62 62 64 63 63 63 62 62
66 67 70 71 71 71 71 71 71 71 71 71 71 71 71 71 71 70 69 69 69 69 68 68 67 67 68 68 67 66 66 65 64 61 60 61 60 62 63 62 61 60 60
64 66 69 70 71 71 71 71 71 71 70 70 70 70 71 71 70 69 68 68 69 69 67 66 67 67 66 66 66 66 64 64 61 58 59 61 59 61 60 60 59 59 59
63 67 68 68 70 71 71 71 70 70 69 70 70 70 70 70 69 68 68 67 68 68 67 66 66 66 65 65 64 62 61 61 56 56 56 58 57 60 60 59 59 59 59
64 67 68 68 69 69 69 69 69 69 68 68 69 70 70 69 68 68 67 66 66 66 66 66 65 65 64 63 62 61 61 59 56 55 54 56 59 59 59 59 58 58 58
64 66 68 66 67 67 66 66 65 66 65 66 67 68 68 67 67 67 67 67 67 66 66 65 65 64 63 62 60 61 59 59 55 55 54 54 59 58 58 58 58 57 57
64 65 66 65 66 65 65 65 64 63 62 63 63 65 67 66 66 67 67 67 66 66 65 65 64 63 62 60 59 60 59 59 54 54 55 55 59 58 58 58 58 57 57
64 64 64 64 65 65 65 64 63 62 62 63 63 62 65 65 65 65 66 66 66 65 64 64 63 62 60 59 59 59 58 53 54 54 55 59 58 58 58 58 57 57 57
60 62 63 63 65 65 65 63 63 62 61 62 62 62 65 65 64 64 65 65 65 64 64 63 62 61 57 53 53 56 52 53 54 54 55 59 58 58 58 57 57 56 56
61 63 62 64 64 64 64 62 62 61 62 61 64 65 65 65 64 64 64 63 63 63 61 59 58 53 51 51 52 52 52 53 54 54 57 59 58 58 58 57 57 56 55
60 63 62 63 63 63 64 63 62 62 63 62 64 64 64 64 63 63 62 62 61 60 58 57 54 52 49 51 52 54 52 53 53 55 57 59 59 57 57 57 57 55 54
59 61 62 63 62 63 63 62 62 63 63 63 63 63 63 63 62 62 60 59 57 57 55 53 52 51 49 50 52 52 52 53 53 55 56 59 59 58 57 57 56 56 54
60 61 62 62 62 62 62 62 62 63 62 62 62 62 61 62 62 61 57 55 55 54 52 51 52 51 50 50 53 53 53 53 53 55 55 56 58 59 57 56 56 56 54
59 59 61 62 62 62 61 62 62 62 60 59 60 60 60 61 60 61 56 54 55 54 50 51 52 52 52 53 52 53 53 53 54 54 55 56 56 58 59 58 57 56 55
58 59 61 62 62 61 60 61 62 61 59 58 59 59 60 59 60 61 58 54 56 53 53 52 53 51 52 52 52 52 53 53 53 54 54 55 55 55 57 59 58 58 56
58 59 59 60 60 60 61 61 61 61 60 59 59 59 60 59 58 61 60 58 56 55 55 53 52 50 50 51 51 51 52 53 53 53 53 54 55 55 55 58 58 58 58
58 59 59 60 60 60 60 61 61 61 61 59 58 58 59 58 58 60 59 59 58 57 55 52 51 50 50 51 49 50 51 52 53 53 53 53 54 54 54 54 56 55 58
57 58 58 59 59 59 59 58 59 58 58 58 58 57 58 57 56 55 56 56 55 57 53 50 52 50 50 50 48 49 48 50 50 50 52 53 53 53 54 54 55 55 56
56 57 58 57 58 58 58 58 58 58 58 58 58 58 57 56 54 54 54 55 54 55 54 52 50 50 50 50 47 46 43 44 46 48 49 49 52 53 54 54 55 55 55
56 57 57 57 57 57 58 58 58 58 57 57 57 57 55 54 53 53 53 53 53 53 53 51 50 48 48 49 47 45 43 42 43 45 47 48 48 49 53 55 55 55 55
56 57 57 57 57 57 57 57 56 55 54 54 55 54 53 54 53 52 53 53 53 55 54 52 50 52 50 47 48 48 48 50 47 46 47 48 48 48 50 52 55 55 55
57 57 57 57 57 57 56 56 55 54 53 54 55 55 54 53 53 52 54 54 53 54 55 55 54 52 54 53 48 47 48 51 52 50 47 48 48 50 49 49 50 53 55
56 56 56 56 56 57 56 56 55 54 53 52 53 54 54 54 54 54 53 55 54 53 54 57 56 54 54 55 54 53 51 49 50 50 49 48 48 48 49 50 50 50 51

GFSSE_sfc_dewp_066.txt.gz
Dewpoint
69 71 72 72 72 72 72 71 71 72 72 72 72 72 72 71 71 71 70 70 70 71 70 70 71 70 70 70 70 71 70 69 69 69 69 69 68 68 68 68 68 66 69
69 71 71 72 72 72 72 72 71 72 72 72 72 71 71 71 70 70 70 70 70 71 69 69 70 69 69 69 70 69 69 69 68 68 68 67 67 68 67 67 68 67 68
69 71 71 71 72 72 72 72 72 72 72 72 71 71 71 70 70 69 69 69 70 70 69 68 69 69 69 69 69 69 68 68 67 67 66 64 64 66 66 66 66 66 66
68 70 71 71 71 72 72 72 71 72 72 72 71 71 70 70 71 71 70 69 69 69 67 67 69 68 69 68 68 67 67 67 66 66 63 62 63 65 65 64 64 64 64
67 69 71 71 71 71 71 71 71 71 71 71 70 71 71 71 71 71 70 70 69 70 68 68 68 68 68 67 67 67 66 65 65 63 61 61 61 62 63 62 61 61 61
67 69 70 70 71 71 71 71 71 71 71 71 70 71 71 71 71 70 69 69 69 69 68 67 68 68 67 66 66 65 64 64 63 60 60 60 58 61 61 60 60 59 60
65 67 70 70 71 71 71 71 71 70 70 70 70 70 70 70 70 69 69 68 68 69 68 67 68 67 67 65 64 64 63 62 58 58 58 58 58 60 59 59 59 59 58
66 67 68 70 71 70 69 69 70 70 70 70 70 70 70 69 69 69 68 68 68 67 67 67 66 65 64 63 63 62 61 60 56 56 56 57 60 61 59 60 59 58 58
66 66 67 68 68 67 67 67 67 68 67 67 65 68 69 68 67 68 68 68 67 66 67 66 65 64 63 63 62 61 60 59 54 55 55 56 59 58 59 58 58 58 58
64 65 66 66 67 66 65 66 66 66 66 65 64 64 64 67 67 67 67 67 66 66 66 66 64 63 62 62 61 61 60 59 54 54 53 53 58 58 58 58 58 58 57
64 63 63 64 65 65 64 65 65 65 66 65 64 63 61 65 65 66 65 66 66 65 65 64 63 62 61 61 61 60 58 54 54 55 55 59 58 58 58 57 57 57 57
60 61 62 63 63 64 64 62 62 63 63 62 62 62 61 64 65 65 65 65 65 64 64 63 62 61 57 55 57 58 54 54 54 55 56 60 58 58 58 58 57 57 57
61 61 62 62 64 64 63 63 61 60 61 61 61 60 61 65 64 65 64 63 63 63 60 60 59 53 52 52 53 53 54 54 54 55 57 60 59 58 58 58 57 57 56
61 60 61 62 64 64 63 62 61 60 59 60 61 60 63 64 64 63 61 62 61 60 58 57 54 51 50 52 53 53 53 54 54 55 57 59 59 58 58 58 57 56 56
60 61 61 63 63 64 63 62 60 60 62 60 63 61 63 63 63 62 61 61 60 59 57 54 52 49 50 52 53 53 53 53 54 55 56 59 59 58 58 58 57 56 55
59 59 60 62 63 63 62 62 60 62 62 63 64 63 63 63 62 61 60 58 58 57 55 52 51 48 49 51 53 53 53 53 54 55 56 57 59 59 58 57 57 56 55
59 59 60 60 62 62 61 61 62 62 62 62 63 63 62 62 61 60 57 56 56 54 51 51 52 50 49 51 53 53 53 53 54 55 55 55 57 58 58 58 57 56 55
58 58 61 62 62 62 62 62 61 61 60 60 61 61 62 62 60 58 55 54 53 52 49 51 52 51 50 52 53 53 53 53 54 54 54 55 55 55 57 59 58 58 56
58 58 60 61 61 61 61 62 61 59 59 60 60 60 60 60 60 57 55 55 52 51 49 51 53 51 51 52 52 53 53 53 54 53 53 54 55 55 55 58 58 58 58
58 58 59 60 61 60 61 61 61 60 59 58 59 58 59 58 60 60 56 57 53 52 50 52 52 52 51 52 50 51 52 53 53 53 53 54 54 54 54 55 56 55 57
57 57 58 59 60 60 60 59 59 59 59 59 59 58 59 58 58 60 57 57 56 55 53 52 51 50 51 52 50 49 49 52 53 53 53 53 53 54 54 54 55 55 55
57 56 57 59 59 59 59 59 59 59 59 59 58 58 58 58 57 58 58 56 57 57 55 52 51 50 50 51 49 48 46 45 48 51 53 53 52 53 54 54 54 55 54
57 56 56 58 58 58 58 58 57 58 58 57 58 58 59 58 55 54 57 55 56 56 54 51 51 49 49 50 49 48 43 43 44 45 48 51 53 53 53 54 54 54 55
56 57 56 57 57 57 58 57 57 55 55 56 57 57 58 57 55 54 55 54 55 55 55 53 51 49 49 48 48 47 46 47 44 42 47 47 48 51 53 54 54 54 54
56 56 56 57 57 57 57 57 56 56 56 56 56 56 57 57 55 53 53 55 53 55 56 55 52 50 49 51 48 47 47 50 50 48 46 47 48 48 49 52 54 55 55
56 57 56 56 56 56 57 57 55 55 54 54 55 54 55 54 53 54 52 53 54 54 55 55 53 50 50 50 52 50 48 47 49 49 48 47 47 47 49 49 50 54 55

GFSSE_sfc_dewp_069.txt.gz
Dewpoint
68 70 71 72 72 72 71 72 71 72 72 73 73 73 72 72 72 72 71 71 71 71 70 70 72 71 70 70 70 70 70 70 69 69 69 69 69 68 68 68 69 67 69
68 70 71 72 72 71 71 72 72 72 72 72 72 72 72 72 71 71 71 71 71 71 70 70 71 71 69 70 70 70 69 69 68 68 69 68 68 68 68 68 68 67 69
69 70 71 71 72 72 71 72 72 72 72 72 72 71 71 71 71 71 71 71 71 71 70 70 70 70 70 70 69 69 69 68 68 67 67 65 65 67 67 68 68 67 68
70 70 70 71 71 72 71 71 72 72 72 71 71 71 71 71 70 70 70 70 70 70 69 70 70 69 69 69 68 68 68 67 67 66 63 63 63 66 65 65 66 66 67
69 70 70 71 71 71 71 71 71 71 71 71 71 71 70 70 70 70 70 69 69 70 69 69 69 68 68 67 67 67 67 66 65 63 62 62 62 64 65 64 63 63 63
67 70 70 70 70 71 71 71 71 71 70 70 70 70 70 71 70 70 69 69 69 69 69 69 68 67 67 67 66 66 66 64 63 60 60 61 60 63 62 61 62 62 62
66 68 70 69 70 71 71 71 71 71 70 70 70 70 70 71 71 70 69 69 69 69 69 68 68 67 67 66 66 65 64 63 59 58 58 57 58 61 60 60 59 59 59
65 67 69 70 70 70 70 69 69 70 70 69 70 70 70 70 70 69 69 68 68 68 67 67 66 66 65 65 64 64 63 61 57 57 58 57 60 59 60 60 58 59 58
65 66 67 69 70 69 68 68 67 67 68 69 69 68 68 68 68 68 68 68 68 67 67 67 66 64 65 64 63 62 61 60 55 55 57 58 60 61 59 58 59 58 58
64 64 65 66 66 64 65 66 66 66 65 66 66 66 66 66 67 67 67 67 67 67 66 65 64 64 64 63 62 61 60 59 54 55 54 58 60 60 59 59 58 58 57
63 63 63 64 64 64 65 67 66 65 64 64 66 65 63 64 66 65 66 66 67 65 65 64 63 63 63 62 61 61 58 54 54 54 53 60 59 59 58 58 58 57 57
60 60 62 62 63 63 65 65 65 63 64 63 64 63 62 64 65 64 65 65 65 65 64 63 63 63 61 58 58 58 54 54 55 55 55 60 58 58 58 57 57 57 58
60 60 61 62 64 63 62 62 63 64 64 63 62 62 62 63 64 64 64 64 63 63 60 59 58 56 57 56 54 54 54 54 55 55 57 60 59 58 58 58 57 57 57
59 60 61 63 63 63 62 61 61 61 62 61 61 60 62 62 63 64 63 62 61 60 59 56 52 52 53 53 53 54 54 54 55 55 57 60 60 58 58 58 57 57 57
59 59 62 62 62 63 62 62 60 60 60 60 60 60 62 62 63 64 62 61 59 58 57 54 51 51 52 53 53 53 53 54 55 55 56 59 59 59 58 58 58 57 57
59 59 61 61 63 63 62 61 60 59 60 60 61 60 62 62 63 62 60 60 59 57 56 53 49 50 52 53 53 53 53 54 55 55 56 57 58 59 58 57 57 57 57
60 59 60 61 62 63 62 61 61 62 62 61 61 60 62 63 63 61 60 59 58 56 53 52 50 49 51 53 52 53 53 54 55 55 55 56 57 58 59 58 57 57 56
58 59 59 61 61 62 61 61 62 61 61 62 62 62 61 63 62 60 58 57 57 54 53 51 51 49 50 53 52 53 53 54 54 55 55 55 55 55 58 59 58 57 56
58 58 59 61 60 61 61 61 61 60 60 60 61 62 62 61 60 58 56 55 55 53 52 50 52 50 50 53 53 53 53 53 54 54 54 54 55 55 55 58 58 58 58
57 57 59 59 61 61 61 61 60 60 59 60 60 60 62 61 59 57 55 55 53 50 50 51 51 51 51 52 52 53 53 53 54 53 53 54 54 54 55 55 56 56 58
57 57 59 58 60 60 60 59 59 58 58 59 58 59 60 61 59 56 55 54 52 48 49 52 51 50 51 52 51 50 51 53 53 53 53 53 54 54 54 54 55 55 55
57 57 58 57 59 60 60 60 60 60 59 59 58 58 59 59 60 57 55 55 52 51 52 52 51 50 50 51 50 49 48 48 51 52 53 53 53 53 54 54 54 55 54
56 56 57 57 57 58 60 58 58 58 58 58 58 58 59 59 59 60 56 56 55 53 53 52 51 50 49 50 50 49 45 47 47 48 51 53 52 53 53 53 53 54 55
55 56 56 57 57 58 58 58 57 57 56 57 58 58 59 58 58 58 59 57 57 56 55 53 51 50 50 49 48 48 47 48 47 45 47 50 52 52 52 53 53 53 54
56 56 56 56 57 57 57 57 57 55 55 57 57 57 58 58 57 56 57 57 56 57 56 55 52 49 50 51 48 48 48 49 49 48 45 46 48 50 53 53 54 54 54
55 55 55 55 55 56 56 56 55 55 55 56 56 56 57 58 57 56 57 56 56 56 56 56 54 52 51 51 51 50 49 49 49 49 47 47 46 47 48 50 53 54 55

GFSSE_sfc_dewp_072.txt.gz
Dewpoint
67 69 71 72 70 72 72 72 72 73 73 72 73 73 73 73 72 72 72 71 72 72 72 72 72 72 71 70 70 71 70 70 70 69 69 70 69 68 69 69 69 67 69
68 70 71 71 70 71 72 72 72 73 73 73 73 73 73 72 72 72 72 72 72 72 71 72 72 70 70 70 70 70 70 69 69 69 69 69 68 68 69 69 69 68 69
68 70 71 70 70 71 72 72 72 73 73 73 73 72 72 72 72 72 72 71 71 71 70 70 70 70 70 70 70 69 69 69 69 68 68 66 66 68 68 68 69 68 68
68 69 70 70 70 71 71 71 72 72 72 72 72 72 72 72 71 72 71 71 71 70 70 70 70 70 70 69 69 69 68 68 67 66 64 64 65 67 68 68 67 67 67
69 69 70 71 70 71 71 71 71 72 71 72 72 72 72 71 71 71 71 70 70 70 71 70 70 69 69 68 68 68 67 66 65 63 62 63 63 65 66 66 66 66 66
68 69 69 70 70 71 71 71 71 71 71 71 71 71 71 71 71 71 70 70 70 70 70 69 69 69 68 67 67 66 66 65 63 61 62 63 62 64 63 63 63 64 64
67 68 68 69 70 71 71 71 71 71 70 70 70 70 70 70 70 70 69 69 69 69 69 69 69 68 67 67 66 65 64 63 59 59 58 60 61 63 62 62 62 62 62
65 67 69 69 70 70 70 70 69 70 70 70 70 70 70 69 69 69 69 68 68 68 68 68 68 67 66 66 65 64 63 61 58 57 57 59 62 60 60 59 59 60 60
65 66 67 68 69 70 69 67 66 67 68 69 68 68 68 68 68 67 67 68 68 68 68 67 67 66 66 65 64 63 62 61 57 57 57 56 62 61 61 59 59 59 60
64 64 65 68 69 66 65 66 66 66 66 67 67 65 65 66 66 67 66 67 68 67 67 67 66 66 65 64 63 62 61 59 56 56 58 59 60 58 60 60 59 59 58
63 62 63 66 65 64 64 65 66 66 67 66 66 65 65 65 65 65 65 66 67 66 66 65 65 65 64 63 62 61 58 54 54 54 58 62 61 61 61 59 58 57 57
60 61 61 62 63 63 65 66 65 64 64 64 65 64 64 64 65 64 65 65 65 65 64 63 64 64 61 59 59 58 54 55 54 55 57 61 59 59 58 57 57 57 57
60 60 61 62 63 63 63 64 63 64 63 63 64 63 63 63 64 64 63 64 64 64 60 61 62 59 58 57 55 55 55 55 55 56 58 60 59 58 58 57 57 58 58
59 59 60 63 63 62 63 63 63 63 63 63 63 62 63 63 64 62 63 63 63 60 58 60 58 57 57 55 54 54 55 55 56 56 58 59 60 58 57 58 58 59 57
58 58 61 63 63 63 62 62 62 62 62 62 62 61 62 62 62 61 62 62 61 59 56 54 54 55 54 54 54 54 54 55 55 56 57 59 59 59 58 57 57 57 57
58 59 61 61 62 62 61 61 61 61 61 61 61 61 62 61 63 61 62 61 59 58 55 52 53 53 53 54 54 54 54 55 55 56 56 57 59 59 59 57 57 57 57
59 59 60 61 61 61 61 61 60 60 61 61 61 61 62 62 62 62 61 60 59 57 54 51 50 53 53 53 53 54 54 55 55 56 56 56 57 58 59 59 58 57 57
58 60 60 60 61 61 61 61 61 61 61 60 61 61 61 62 63 62 61 59 57 56 53 50 50 52 53 53 53 53 54 54 55 55 56 56 56 56 58 58 59 58 57
58 59 59 60 60 60 61 61 61 61 61 62 61 62 61 62 62 61 60 59 56 55 53 50 50 51 53 52 52 53 54 54 54 55 55 55 55 55 56 58 58 58 58
57 58 59 60 60 60 61 61 60 60 60 60 61 61 61 63 61 60 58 57 56 54 53 51 50 51 53 53 52 52 53 54 54 54 54 54 55 55 55 56 57 57 57
55 57 58 59 61 61 60 59 59 58 58 59 60 61 61 61 59 57 56 55 53 52 52 51 50 50 52 53 52 51 51 53 53 54 54 54 54 55 55 55 55 56 56
57 57 57 57 60 61 60 59 59 59 59 59 59 60 61 60 58 57 56 53 52 50 51 51 50 50 52 53 51 50 48 50 52 53 53 53 54 54 54 54 55 55 55
56 57 56 57 59 60 60 59 59 58 59 58 58 59 59 61 59 58 57 53 52 49 50 52 51 50 50 51 52 50 47 48 49 51 52 53 53 53 54 54 54 54 55
56 57 56 56 57 59 59 58 57 57 56 58 58 59 59 60 60 58 57 56 52 51 52 51 52 51 51 50 49 49 49 49 49 47 49 52 53 52 53 54 54 54 54
56 56 56 56 57 58 59 58 58 57 57 57 58 58 59 59 59 59 57 57 55 55 55 54 53 51 51 51 50 48 48 49 49 48 47 47 49 52 53 53 53 54 54
55 55 56 55 54 56 57 58 57 56 55 56 56 57 58 57 58 58 59 57 57 57 56 55 54 52 52 52 51 50 50 48 48 49 47 48 47 48 51 53 53 53 54

GFSSE_sfc_dewp_075.txt.gz
Dewpoint
67 68 70 70 70 72 72 72 73 73 73 73 73 73 73 73 73 73 72 72 72 72 72 71 72 72 71 70 71 71 71 70 70 70 70 70 70 70 70 70 69 66 70
67 69 70 70 70 72 72 72 73 73 73 73 73 73 73 73 73 72 72 72 72 72 71 71 72 72 71 70 71 71 70 70 70 70 70 70 69 69 69 70 69 67 69
68 70 70 69 70 72 72 72 73 73 73 73 73 73 73 73 72 72 72 72 71 72 72 71 71 70 70 71 70 70 70 69 69 69 69 66 66 69 69 69 69 69 69
69 70 70 69 70 71 72 72 72 73 73 73 73 73 73 72 72 72 72 71 71 71 71 70 71 70 70 70 69 69 69 69 68 68 65 65 65 68 68 68 68 68 68
68 69 69 69 68 70 71 72 71 71 72 72 72 73 72 72 72 72 71 71 71 70 71 70 70 70 70 69 68 68 68 67 66 65 64 64 65 67 68 68 67 67 67
68 69 69 69 69 70 71 71 72 70 70 72 72 72 72 72 72 72 71 71 71 71 71 70 70 69 68 68 68 67 66 66 65 62 63 64 64 66 66 66 67 66 67
68 69 70 69 70 70 71 71 71 71 69 71 71 71 71 72 71 70 70 70 69 70 70 70 69 68 68 67 67 66 65 64 61 61 61 61 63 64 64 64 64 64 65
69 68 69 70 70 70 70 70 70 69 70 70 70 71 71 70 70 69 68 68 69 69 69 69 68 68 67 66 66 64 63 63 60 59 60 60 64 63 63 63 62 62 63
69 70 69 69 70 69 68 69 68 68 68 69 69 68 68 67 68 67 67 68 68 68 68 68 67 67 67 66 64 63 62 62 59 59 58 58 63 62 61 61 61 61 61
68 69 69 68 69 70 71 67 67 67 67 67 67 67 66 66 66 66 66 67 67 68 67 67 67 66 66 65 63 62 62 61 58 57 57 59 63 60 61 60 60 60 60
66 67 68 67 69 69 70 68 67 67 67 67 67 66 65 65 65 65 65 66 67 66 66 66 66 65 64 63 63 61 60 57 57 57 56 61 62 61 61 59 60 59 59
65 66 67 67 67 67 68 68 68 67 68 67 66 65 66 65 65 64 64 65 65 66 65 65 65 64 62 60 59 59 56 57 56 57 56 62 60 61 61 60 59 58 57
64 65 66 66 66 66 65 67 67 67 68 67 65 65 66 66 65 65 65 65 64 65 64 64 63 60 61 59 58 57 57 56 56 55 57 61 61 60 59 57 58 58 57
62 63 65 65 65 64 65 64 66 65 65 65 66 65 65 65 64 63 63 64 64 64 63 63 61 61 60 59 58 57 57 55 55 55 56 60 61 59 58 57 58 58 58
61 63 63 64 64 64 63 64 64 64 65 64 64 64 63 64 64 63 62 64 63 61 62 61 60 59 59 57 57 56 56 56 56 54 54 59 59 58 58 59 59 59 58
60 62 62 62 64 64 63 63 63 64 64 63 63 63 63 64 64 62 63 63 61 60 60 59 58 58 57 56 56 56 56 56 56 56 54 55 59 60 60 59 59 58 58
59 61 61 62 63 63 62 62 62 62 63 63 62 63 63 63 63 62 62 62 61 59 57 57 57 57 56 55 55 56 55 56 55 56 56 55 56 58 59 59 59 57 57
60 61 61 61 62 62 62 61 62 62 61 62 62 62 62 62 63 62 61 61 61 57 56 55 56 55 55 54 54 54 54 55 55 56 56 55 54 53 57 59 59 59 57
59 61 60 61 61 61 61 61 61 62 62 61 62 61 62 62 63 63 61 61 59 57 55 54 55 56 55 54 53 54 54 54 55 55 56 56 57 55 54 58 58 58 59
59 61 60 61 61 61 61 61 62 62 62 62 62 61 61 63 62 62 61 59 59 57 54 53 55 55 55 54 51 53 54 54 55 55 55 55 56 57 56 56 56 55 57
60 60 59 60 60 61 60 60 60 59 61 61 62 62 61 61 63 61 59 58 59 57 55 55 54 55 54 55 53 53 54 55 55 55 55 55 55 56 56 56 56 55 55
58 60 59 60 60 61 59 59 60 60 60 60 61 62 63 61 61 60 59 58 57 57 56 55 55 54 54 55 52 52 50 52 53 54 54 55 55 54 55 56 56 56 56
58 59 59 59 60 60 61 60 60 60 59 59 59 60 60 60 59 58 58 57 56 56 55 54 54 54 52 54 55 52 50 49 51 53 54 54 55 55 54 55 55 55 56
57 59 58 58 59 60 60 59 59 57 57 58 59 59 60 60 59 58 56 56 55 55 55 55 53 53 53 53 54 52 54 53 50 50 52 54 54 54 55 54 54 55 55
58 58 57 57 58 59 60 59 58 57 57 58 59 59 59 60 59 58 57 56 54 53 55 55 55 54 54 54 53 52 52 51 53 52 50 50 52 53 54 55 55 55 55
57 57 56 57 57 59 59 59 59 58 57 57 58 58 59 59 60 58 58 57 55 54 54 54 54 55 54 55 54 54 52 50 49 49 48 50 50 50 52 54 56 55 55

GFSSE_sfc_dewp_081.txt.gz
Dewpoint
54 68 71 72 73 73 73 73 73 73 73 73 73 73 73 74 73 73 73 73 73 73 73 73 72 71 70 70 71 72 72 72 71 72 71 71 70 70 70 70 70 67 70
59 66 71 72 72 73 73 73 73 73 73 73 73 73 73 73 73 73 73 73 73 73 73 73 71 70 71 71 72 72 71 71 71 70 71 70 70 70 69 70 70 69 70
62 65 69 71 72 73 73 73 73 73 73 73 73 73 73 73 73 73 73 73 73 73 73 71 71 71 71 71 71 71 71 70 70 70 69 65 67 70 70 70 70 70 69
61 66 66 70 72 72 73 73 73 74 73 73 73 73 72 73 73 72 73 72 73 73 72 71 71 71 71 71 70 70 70 70 69 69 65 64 65 69 69 69 69 69 69
57 63 67 70 71 72 72 73 73 73 73 73 73 73 73 73 73 72 72 72 72 73 72 71 71 71 71 70 70 70 69 69 68 66 63 65 66 68 69 69 69 68 68
58 60 69 70 71 72 72 72 73 73 72 72 73 73 73 73 73 71 70 72 72 72 72 71 71 71 70 69 69 69 68 68 66 65 65 65 65 68 68 68 69 69 68
61 63 70 69 69 71 72 72 72 71 72 72 72 72 72 73 72 70 71 71 71 71 71 70 71 70 69 69 68 68 68 68 64 64 65 66 66 68 68 68 67 68 67
64 66 69 69 69 70 71 71 71 71 71 71 72 71 72 70 70 69 69 69 69 69 68 70 70 69 68 68 68 67 66 66 64 62 63 66 67 67 67 67 66 66 65
66 68 70 70 69 69 69 70 70 70 70 70 70 69 69 68 69 69 68 68 68 67 68 69 69 68 68 67 66 65 64 65 62 61 61 62 66 66 66 66 65 65 64
66 68 70 70 70 70 70 69 69 70 69 69 70 68 68 68 67 68 68 67 67 68 67 68 68 67 67 66 65 63 63 62 58 58 61 62 66 64 64 64 64 64 63
64 67 70 70 70 70 69 68 69 69 69 68 68 67 66 67 67 67 65 65 66 66 66 67 67 66 65 64 64 63 62 55 58 57 60 64 64 62 62 62 62 62 61
62 65 69 69 69 69 65 70 68 68 67 67 65 67 67 68 66 65 63 64 66 66 67 67 66 64 64 63 61 62 59 59 53 53 58 63 63 62 62 61 61 61 61
60 62 65 69 69 69 66 69 67 66 65 68 67 67 68 69 66 67 65 65 67 67 67 66 65 66 64 63 61 59 58 56 52 55 60 63 63 62 61 61 60 60 60
57 60 63 66 66 67 64 68 66 65 67 65 66 67 68 67 66 66 64 65 65 66 66 65 66 66 63 62 60 58 59 53 52 57 60 63 63 61 61 60 60 59 59
53 59 62 64 65 65 68 68 67 64 64 67 66 67 67 65 65 63 62 64 63 65 65 65 65 65 62 60 58 58 54 54 53 54 56 62 62 62 60 60 59 59 59
52 58 62 65 65 66 66 66 66 67 66 66 66 66 66 66 64 64 62 63 65 65 64 63 64 64 62 59 57 56 55 53 53 53 54 59 60 61 61 59 59 59 59
46 55 62 66 66 65 65 65 65 66 67 66 66 67 65 65 65 64 64 64 64 64 63 63 63 64 59 57 56 57 53 53 52 52 53 56 57 59 60 61 61 59 59
45 56 61 63 65 64 64 64 64 65 66 66 66 67 65 64 65 64 63 63 64 63 63 63 62 62 59 55 55 53 52 51 52 52 51 52 53 53 58 60 61 61 60
48 57 61 64 64 64 64 64 63 64 65 66 66 65 65 64 64 64 63 63 63 63 62 62 62 61 57 56 55 52 54 51 51 49 51 53 55 54 55 59 59 59 60
50 57 62 63 64 64 63 62 62 63 63 64 63 64 64 65 64 64 63 62 62 62 61 62 61 60 56 55 51 52 57 54 50 50 51 51 52 54 53 55 55 55 59
53 58 61 62 63 62 61 61 61 61 61 62 63 63 63 64 64 64 62 61 61 61 61 61 60 58 58 56 55 54 57 57 57 50 50 49 50 51 53 56 54 52 54
54 58 61 61 62 61 59 59 59 61 61 61 62 63 62 62 63 62 62 61 61 60 59 59 60 58 56 56 53 52 53 53 55 55 53 50 53 51 51 53 53 52 53
53 58 59 61 61 61 60 59 60 61 61 60 61 62 61 62 62 63 62 61 60 59 58 58 59 57 55 57 55 51 49 48 51 55 55 54 55 52 51 51 52 52 53
53 58 59 60 60 60 60 59 59 59 57 59 59 61 61 61 62 62 61 60 60 59 58 59 60 59 57 54 55 52 53 48 48 51 53 54 53 52 54 51 52 53 54
53 57 59 60 59 59 59 59 57 56 57 58 58 60 61 61 61 61 61 60 59 59 59 59 59 59 57 56 54 54 54 53 54 50 49 52 54 52 53 55 53 54 54
51 58 59 59 58 59 59 58 58 57 57 57 58 59 60 60 59 59 60 60 60 59 59 59 59 59 58 57 56 55 53 53 51 49 49 51 52 52 53 55 56 56 56

GFSSE_sfc_dewp_084.txt.gz
Dewpoint
66 69 72 72 73 73 73 73 73 73 73 73 74 74 74 74 74 74 73 73 73 74 74 73 73 71 71 71 72 73 72 72 72 72 72 72 71 70 71 70 70 68 71
68 69 71 72 73 73 73 73 73 73 73 73 73 74 74 74 74 74 73 73 73 74 73 72 72 71 71 72 72 72 71 71 71 71 71 71 71 70 69 70 70 69 71
66 69 70 72 73 73 73 73 73 73 73 73 73 73 74 74 74 73 73 73 73 73 73 72 72 71 71 72 71 71 71 71 70 70 69 67 68 70 70 70 70 70 70
63 67 69 71 72 73 73 73 73 73 73 73 73 73 73 74 73 73 73 73 73 73 72 71 71 71 72 71 71 71 70 70 69 69 66 66 67 70 70 70 70 69 69
63 64 69 71 71 72 72 72 73 73 73 73 73 73 73 73 73 73 72 72 72 73 72 71 71 72 71 70 70 70 69 68 68 67 66 67 67 69 69 69 69 69 69
62 64 69 70 71 72 72 72 73 73 73 72 73 73 73 73 72 72 71 71 72 72 71 71 71 71 70 69 69 69 68 68 67 66 65 67 66 68 68 69 69 69 68
66 70 69 69 71 72 72 72 72 72 72 72 72 73 73 72 71 71 71 71 72 71 71 71 71 70 69 69 69 68 68 68 65 65 66 67 67 68 68 68 68 69 68
68 71 70 70 70 71 71 71 71 71 72 72 72 72 72 72 70 69 69 69 69 69 69 69 69 69 69 69 68 67 67 66 65 65 65 66 68 68 68 67 67 67 67
70 71 71 69 69 70 69 70 70 70 70 71 71 70 71 69 68 69 68 68 68 68 68 68 69 69 69 68 67 66 65 65 64 66 64 64 67 67 67 67 66 66 65
70 71 71 70 70 69 70 69 69 70 69 70 70 69 68 68 68 68 68 66 67 67 67 68 68 68 67 66 66 65 64 65 63 64 62 64 67 66 66 66 66 65 64
67 69 71 71 70 70 70 69 69 70 69 69 69 68 67 68 68 68 67 67 67 66 66 67 67 66 65 65 64 63 63 60 61 60 63 66 66 66 66 65 65 64 64
65 67 69 70 71 70 66 69 69 69 68 68 68 68 68 68 67 67 66 66 66 66 66 67 66 65 64 64 64 63 60 59 60 60 62 64 65 64 64 64 64 63 63
62 65 69 69 70 70 68 70 69 68 68 68 68 68 68 68 66 64 63 64 65 66 66 66 65 65 65 64 63 63 60 59 59 59 62 64 64 62 62 62 62 62 61
58 62 68 68 68 69 68 68 68 68 68 67 68 67 68 67 64 64 63 64 65 65 66 65 65 65 64 64 61 61 60 56 59 59 62 63 63 62 61 60 60 59 61
54 60 64 68 68 68 68 68 68 68 67 67 68 67 67 67 65 65 64 64 64 65 65 65 64 64 64 63 61 59 56 55 58 59 60 62 63 62 61 60 60 59 59
49 58 64 66 67 67 67 68 68 68 68 68 68 66 66 66 65 64 64 64 64 64 65 64 64 64 63 62 61 58 55 54 56 57 59 60 61 62 61 60 59 58 58
47 54 64 66 67 66 66 67 67 67 67 66 66 66 66 66 65 63 63 63 63 64 64 63 63 63 63 63 59 57 55 54 53 56 57 58 59 60 60 60 61 59 58
43 51 63 65 66 66 66 66 65 65 67 66 66 66 66 64 65 64 63 63 64 64 63 62 62 62 62 61 56 55 53 53 53 54 56 56 57 56 59 60 61 61 61
37 52 63 65 65 66 66 65 64 64 66 66 66 66 65 64 64 64 63 64 63 63 62 62 62 62 61 60 54 54 53 52 53 51 54 54 55 55 56 60 60 60 60
35 56 64 64 65 65 65 64 63 64 65 65 65 64 64 64 64 64 63 63 63 62 62 62 61 62 60 58 51 53 54 52 52 53 53 53 54 55 56 57 58 58 59
51 58 64 64 64 64 63 61 62 61 62 63 63 63 64 64 64 64 63 62 62 61 61 61 61 60 60 57 55 55 55 55 53 52 54 54 53 54 55 56 56 55 57
55 58 63 63 63 63 62 61 60 60 62 61 62 62 63 64 64 63 63 62 61 61 61 60 60 59 59 58 52 53 51 53 55 54 53 51 53 53 54 55 54 53 54
56 59 62 62 63 62 61 61 60 61 61 59 61 62 62 63 62 63 63 61 61 61 60 60 60 59 57 58 53 51 51 49 52 55 54 54 54 53 51 54 54 53 54
54 60 61 62 61 62 61 59 59 58 58 58 59 62 62 62 62 62 62 61 61 60 60 60 60 59 58 55 56 53 52 51 49 50 54 54 55 53 54 54 52 53 53
54 60 61 62 61 61 60 60 59 58 58 59 60 60 60 61 62 62 61 61 60 60 59 59 60 59 59 56 53 54 52 53 51 51 50 53 54 54 53 54 54 53 53
53 59 61 61 60 60 60 60 60 58 57 58 59 59 60 60 59 60 61 60 60 60 59 59 60 59 59 58 56 55 54 53 52 52 51 52 51 53 52 54 54 55 54

GFSSE_sfc_dewp_090.txt.gz
Dewpoint
68 71 72 72 73 72 72 72 72 72 73 73 73 73 74 74 73 73 74 73 73 74 74 73 73 73 72 72 73 72 72 71 71 72 72 72 71 71 71 72 71 70 72
69 71 72 72 72 73 73 72 72 73 73 73 73 73 73 74 73 74 74 74 74 74 73 72 73 72 71 72 72 71 71 71 71 71 72 71 71 71 71 71 71 70 71
69 71 72 72 72 72 73 73 73 73 73 73 73 73 73 73 73 73 73 74 74 74 73 72 72 72 72 72 72 71 71 71 71 71 71 69 69 70 71 71 71 71 70
69 70 71 72 72 72 72 72 73 73 73 73 73 73 73 73 73 73 73 73 73 74 73 72 72 72 72 71 71 71 71 70 70 69 68 68 69 70 70 70 70 70 70
69 70 70 71 72 72 72 72 72 73 73 73 73 73 73 73 73 73 72 72 73 73 73 72 72 72 71 70 70 70 70 69 69 68 66 68 68 70 70 70 70 70 70
68 69 70 70 71 72 72 72 72 72 72 72 73 73 73 73 73 73 72 72 73 73 73 72 72 70 70 69 69 69 69 68 67 67 67 68 67 69 69 70 70 69 69
67 69 70 69 70 71 72 72 72 72 72 72 72 72 73 73 73 72 71 72 72 71 70 70 70 69 70 69 69 68 67 67 66 66 66 67 67 69 69 69 69 69 69
67 68 69 70 70 71 71 71 71 71 71 71 72 72 72 72 72 71 71 70 70 69 69 69 69 69 68 69 68 67 66 67 66 66 66 66 68 69 69 68 69 69 68
67 68 68 69 70 70 69 69 69 70 71 71 71 71 71 71 70 70 70 70 69 69 68 68 68 68 67 68 67 66 66 66 66 66 66 66 68 68 69 68 68 68 67
66 67 67 67 68 68 69 68 69 70 70 70 70 70 69 70 70 69 69 69 68 68 68 68 67 68 66 66 66 65 65 66 66 65 66 66 68 68 68 67 67 66 66
67 66 67 67 67 67 67 68 69 69 69 69 69 68 67 68 68 68 67 68 67 66 67 67 66 66 66 66 65 65 65 65 65 65 65 67 68 68 68 67 67 66 66
66 66 66 66 66 66 68 67 67 68 68 68 68 67 67 66 66 66 65 66 65 65 66 67 66 66 66 66 65 64 63 64 64 64 65 66 68 68 68 67 67 66 65
67 67 67 66 67 67 67 66 66 68 67 66 66 65 65 66 66 65 64 65 64 65 65 66 66 65 65 64 64 62 62 62 63 64 65 66 67 67 67 66 66 65 65
66 67 68 67 67 67 68 66 66 66 66 66 65 65 66 65 64 65 64 63 64 64 64 64 64 65 65 64 63 62 61 61 63 64 64 65 66 66 66 66 65 64 64
64 67 67 68 68 68 67 67 66 66 66 66 65 66 66 64 63 63 62 63 63 64 64 63 63 64 64 64 63 61 60 60 62 63 64 63 64 65 66 65 64 63 62
63 66 67 66 68 67 67 66 66 67 66 65 65 66 65 64 63 62 61 63 63 63 63 63 62 63 64 64 63 61 59 60 61 62 62 62 62 63 64 64 63 63 61
42 64 66 66 67 67 66 66 66 65 66 66 65 65 65 64 63 62 61 62 63 63 63 64 63 62 62 63 63 61 60 59 60 61 61 61 61 61 61 62 62 61 60
33 60 66 66 66 66 66 66 65 65 65 65 65 65 65 64 64 63 62 61 63 64 63 63 62 61 61 61 61 61 60 59 59 60 60 60 59 59 60 60 61 62 61
26 49 65 66 66 66 65 65 65 64 64 63 64 64 64 64 64 63 63 63 63 63 63 62 62 61 60 60 61 61 59 58 58 59 59 59 58 58 58 60 60 60 61
24 51 65 65 66 65 65 64 64 64 63 64 63 64 63 64 63 63 62 62 63 63 62 62 61 60 60 60 61 61 56 56 57 58 58 58 57 57 57 58 58 57 59
27 57 63 65 65 65 64 63 62 62 62 62 62 62 63 63 63 62 61 62 63 62 61 60 60 59 60 61 60 57 55 56 56 57 57 57 56 56 56 57 57 57 57
32 55 63 64 64 64 64 62 61 61 61 63 61 61 61 61 61 61 61 62 62 61 61 60 59 59 59 61 58 55 52 53 53 55 55 55 55 55 56 57 57 57 57
38 60 63 63 63 63 63 61 60 59 59 60 61 59 60 61 61 61 62 62 61 61 60 61 60 59 58 59 59 55 51 49 52 53 53 54 53 54 55 56 57 56 56
42 59 62 63 63 62 61 60 59 58 57 59 60 58 59 60 60 61 62 61 61 61 60 60 60 59 59 57 57 58 55 53 49 50 52 53 53 53 54 55 56 55 55
57 60 62 63 62 61 61 60 59 58 57 58 58 58 58 59 60 61 61 61 61 61 61 60 60 59 59 57 56 55 53 53 52 49 49 51 53 53 54 55 55 55 54
51 61 62 62 61 61 60 60 59 58 57 57 58 58 59 59 60 61 61 61 61 61 60 60 60 59 59 58 57 55 53 52 51 51 50 49 50 51 53 54 55 55 54

GFSSE_sfc_dewp_093.txt.gz
Dewpoint
68 71 72 73 73 73 72 72 72 72 73 73 73 74 74 74 74 73 73 73 74 74 73 72 73 73 73 72 73 73 72 72 71 72 72 72 71 71 71 72 71 70 71
69 71 71 72 73 73 73 72 72 72 73 73 73 73 74 74 74 74 73 73 73 74 73 72 72 73 71 72 72 72 71 71 71 71 71 71 70 70 71 71 71 70 71
69 71 71 72 72 73 73 72 72 73 73 73 73 73 73 73 73 73 73 73 74 74 73 72 71 71 71 72 71 71 71 71 71 71 71 69 68 70 70 71 71 71 70
69 71 71 72 72 72 72 72 72 73 73 73 73 73 73 73 73 73 73 73 73 74 72 72 72 72 72 71 70 71 71 71 71 70 69 69 67 70 70 70 70 70 70
69 70 71 71 71 72 72 72 72 73 72 72 73 73 73 73 73 73 73 73 74 73 73 71 71 71 71 70 70 70 70 70 69 68 67 68 67 69 70 70 70 70 70
69 70 70 70 71 72 72 72 72 72 72 72 72 73 73 73 73 73 72 72 73 73 72 72 72 70 70 69 70 70 69 69 68 67 67 69 68 69 69 70 70 70 70
68 69 70 70 71 71 72 72 72 71 71 71 72 72 73 73 73 72 71 72 72 72 71 70 70 70 69 69 70 69 68 68 66 66 66 66 68 69 69 70 69 69 70
68 69 69 70 71 71 71 71 71 71 71 71 71 72 72 72 72 71 71 71 70 70 69 69 69 69 69 69 69 67 67 67 66 65 66 66 69 69 69 69 69 69 69
67 68 69 70 70 70 69 69 69 70 70 70 71 71 71 71 70 71 71 70 70 69 69 69 68 68 68 68 67 66 66 67 65 65 66 67 69 69 68 68 68 68 68
66 66 67 69 69 69 69 68 69 69 70 70 70 70 70 70 70 70 70 70 69 68 68 68 68 67 67 66 66 66 65 66 65 65 66 66 69 68 69 68 68 68 67
65 65 67 67 68 68 68 69 69 70 70 69 70 69 68 68 68 68 68 68 68 67 67 68 67 67 66 66 66 66 65 65 65 65 66 67 68 68 68 68 68 67 66
64 65 66 66 66 66 68 67 67 69 69 68 68 67 67 66 66 66 66 67 67 66 67 66 66 64 65 65 66 66 64 64 64 65 65 67 68 68 67 67 67 66 66
65 65 65 65 66 66 67 67 68 68 66 66 66 66 65 66 67 64 65 64 63 65 64 65 64 64 64 65 65 64 63 64 64 64 65 66 68 68 68 66 66 66 66
65 65 65 65 65 66 66 66 66 66 67 65 65 64 66 66 65 64 64 64 62 64 63 64 64 64 64 64 64 63 62 63 63 63 65 65 66 68 67 67 67 66 65
62 66 66 65 65 66 65 66 66 66 66 65 64 66 66 65 64 64 64 63 63 63 63 62 63 64 63 64 64 63 62 62 63 63 64 64 64 66 66 66 66 65 64
53 64 66 66 66 66 66 65 65 65 65 65 64 66 65 64 63 63 62 62 61 62 63 61 62 62 63 63 63 63 62 62 62 62 63 63 63 64 65 65 65 64 63
43 61 66 67 67 67 66 66 65 65 65 65 64 66 64 64 62 62 61 62 61 62 63 61 61 61 63 63 63 62 61 61 61 62 62 62 62 61 63 65 64 64 62
33 57 66 66 67 67 66 66 66 66 65 65 64 65 65 64 62 62 61 62 62 62 63 62 61 62 62 62 61 61 61 61 61 61 61 61 60 60 61 62 63 63 62
25 43 63 66 66 67 66 66 65 65 65 65 65 65 65 64 63 62 61 61 62 62 62 62 62 61 60 61 60 61 60 60 61 61 60 59 59 59 58 60 60 60 61
23 29 57 65 66 66 65 64 64 63 63 65 64 64 65 64 64 63 62 61 62 61 62 62 61 61 60 60 60 59 59 59 60 60 59 59 58 58 58 58 58 58 59
26 28 51 64 65 66 65 64 64 63 63 63 64 64 64 64 64 63 62 62 61 61 61 61 61 60 59 61 60 57 56 58 59 59 59 58 57 57 57 57 57 56 58
26 36 49 62 65 65 65 64 63 64 64 63 63 63 64 63 62 63 62 61 62 62 61 61 60 59 59 60 58 55 52 54 56 58 58 57 57 56 56 57 57 56 56
42 41 56 61 64 64 64 62 60 61 61 61 62 62 62 62 61 62 61 62 62 61 61 60 60 59 58 60 57 55 52 51 53 54 55 56 55 55 56 56 56 56 56
47 50 56 61 63 64 64 61 60 60 60 61 62 62 61 60 61 61 61 62 62 61 60 60 60 59 58 58 59 58 56 54 52 50 54 54 54 54 55 56 56 56 56
48 50 57 62 63 64 62 61 60 59 59 59 59 60 59 60 61 61 62 62 61 61 60 60 60 60 59 58 58 57 55 55 54 52 50 52 53 53 54 55 56 56 55
47 51 59 62 62 62 62 61 60 58 57 58 58 58 58 59 60 61 61 61 61 60 61 60 60 60 59 59 58 57 54 53 53 52 51 51 51 52 53 54 55 55 55

GFSSE_sfc_dewp_096.txt.gz
Dewpoint
66 70 72 73 73 73 72 72 72 72 73 74 74 74 74 73 73 73 73 74 74 75 74 73 73 73 73 73 73 73 73 72 72 71 72 72 71 71 72 72 71 70 71
67 70 71 72 73 73 72 72 72 72 73 74 74 74 74 73 73 73 73 74 74 74 73 73 73 73 73 73 72 72 72 71 71 71 71 72 71 71 71 71 71 70 71
68 70 71 71 72 73 73 72 72 73 73 73 74 74 74 74 73 73 73 73 74 74 73 72 72 72 72 71 71 71 71 71 70 71 71 69 68 70 71 71 71 71 70
69 70 70 71 71 73 72 72 72 73 73 73 73 74 74 74 73 73 73 73 74 74 73 72 71 72 72 71 71 71 71 71 71 71 69 69 68 70 70 70 70 70 70
69 70 71 71 72 72 72 72 72 72 72 72 73 73 73 73 73 73 73 73 74 73 73 72 72 72 71 70 70 70 71 71 70 69 69 68 68 69 70 70 70 70 70
69 70 70 71 71 72 72 72 72 72 71 72 72 73 73 73 73 73 72 73 74 73 73 72 70 71 70 70 70 70 70 69 68 68 68 68 68 69 70 70 70 70 70
69 70 70 70 71 71 72 72 72 71 71 71 72 72 73 73 73 72 72 72 73 73 72 72 71 70 69 70 70 69 68 68 67 67 67 68 67 69 69 70 70 70 70
68 69 70 71 71 71 71 71 71 71 71 71 71 72 73 72 72 72 72 71 72 71 71 70 70 69 69 69 69 68 67 67 67 66 66 67 68 69 69 69 69 70 70
67 68 69 70 70 70 69 69 69 70 70 70 71 71 71 71 71 71 71 71 71 70 69 69 69 69 69 69 68 66 66 67 66 66 66 67 69 69 69 69 69 69 69
67 68 68 69 70 69 69 68 69 69 69 69 70 70 70 70 70 70 70 70 70 69 69 69 68 68 68 68 66 66 66 66 66 65 66 67 68 69 69 68 68 69 68
65 65 67 67 67 68 69 69 69 70 69 69 69 69 68 68 68 69 69 69 69 67 68 68 68 67 67 67 66 66 66 66 65 65 65 66 68 69 69 68 68 68 68
62 64 66 66 66 66 67 68 68 69 69 69 69 68 68 67 67 67 67 68 68 67 67 67 67 66 65 65 65 66 65 65 65 64 66 66 69 68 69 68 68 68 68
64 64 65 64 65 65 65 67 68 67 68 68 68 67 66 66 66 65 66 65 65 66 66 65 64 63 63 64 65 64 64 64 65 64 65 66 67 68 68 68 67 67 66
64 65 64 65 65 65 66 66 66 66 66 67 66 65 67 67 66 64 65 63 63 63 64 64 64 63 63 64 64 64 63 64 64 64 64 65 66 68 68 67 67 67 66
61 65 65 65 65 65 65 65 65 65 66 66 66 66 67 67 66 65 64 64 62 62 63 63 62 63 63 64 64 63 63 63 63 64 65 64 64 67 68 67 67 66 66
49 60 66 65 65 64 65 65 64 65 65 65 66 66 67 66 65 64 64 64 63 63 62 62 62 63 63 63 63 63 63 63 63 63 64 64 63 64 66 66 66 65 65
32 46 62 66 65 64 65 64 64 65 64 64 64 65 65 65 64 63 63 62 62 62 62 60 62 62 62 63 62 63 62 62 63 63 63 63 63 62 64 65 65 65 65
24 36 48 65 66 65 65 65 64 64 64 64 64 65 65 64 63 63 62 62 62 62 62 61 61 61 62 61 62 62 62 62 62 62 62 63 62 62 62 63 64 64 64
21 28 44 62 66 66 65 65 65 64 64 64 64 64 64 63 63 62 62 62 62 62 62 62 61 61 60 61 61 61 61 61 61 62 61 62 61 60 60 61 61 62 62
38 23 31 56 65 66 66 66 66 65 65 65 64 64 64 63 62 62 62 62 62 62 62 62 61 61 61 61 61 60 60 61 61 61 61 61 60 59 59 59 60 59 60
47 39 27 47 63 66 66 64 64 63 64 65 64 64 64 63 63 63 62 61 62 61 61 61 61 60 60 61 59 57 57 59 60 60 60 59 59 58 58 58 57 57 59
47 48 45 37 59 65 64 65 64 64 64 64 64 64 64 64 63 63 62 62 61 61 61 61 61 60 60 61 58 56 53 55 57 59 60 59 58 57 57 57 57 56 57
45 47 48 50 54 64 64 65 61 63 62 61 62 63 63 64 63 63 62 61 61 61 60 61 61 60 59 60 59 56 51 51 54 56 58 58 57 57 57 57 57 56 56
44 46 47 50 53 63 64 64 62 61 60 61 62 62 63 63 63 63 62 61 60 62 61 61 61 60 59 58 58 58 56 55 53 51 55 56 56 56 56 56 57 56 56
43 44 47 50 55 62 64 63 62 61 61 61 61 56 60 62 62 62 62 60 61 61 61 60 60 60 60 58 58 57 56 55 55 53 51 52 54 55 55 56 56 56 56
43 44 45 49 58 63 63 63 61 60 58 60 61 60 61 61 61 62 62 61 61 60 60 60 60 60 59 59 59 58 56 54 53 53 52 53 53 53 55 55 55 56 56

GFSSE_sfc_dewp_099.txt.gz
Dewpoint
64 69 72 73 73 73 72 72 72 73 73 73 73 73 73 73 73 73 73 74 74 74 74 74 74 73 72 73 73 73 72 72 72 72 72 72 71 71 71 72 71 68 71
66 71 71 72 73 73 73 72 72 73 74 74 73 73 73 73 73 73 73 74 74 74 75 73 73 73 73 73 73 72 72 71 71 71 72 72 72 71 71 71 70 69 71
68 71 71 72 73 73 73 72 72 73 74 74 74 73 73 73 73 73 73 73 74 74 74 73 72 73 73 73 72 72 71 71 71 71 71 67 67 71 71 71 71 71 71
68 70 71 72 72 72 72 72 72 73 74 74 74 74 73 73 73 73 73 73 74 74 74 73 72 73 72 71 71 71 71 71 70 71 68 67 66 71 71 71 71 70 71
68 69 70 71 71 72 72 72 72 73 73 73 74 74 74 74 73 73 73 73 74 74 73 72 73 73 71 70 70 71 71 71 70 69 68 67 67 69 70 71 71 71 70
68 69 71 70 71 72 72 72 72 72 71 72 73 73 74 74 73 73 73 73 74 74 73 73 73 72 70 69 70 70 70 70 69 68 67 68 68 70 70 70 70 70 70
69 70 71 70 71 72 72 72 72 71 71 71 72 73 73 73 73 73 72 73 73 73 72 72 72 71 70 69 70 70 69 69 68 68 67 68 68 70 70 70 70 70 70
69 70 71 71 71 71 71 71 71 70 71 71 71 72 72 72 72 72 72 72 72 72 71 71 70 70 70 70 69 69 68 68 68 68 68 67 69 69 70 70 70 70 70
70 71 71 72 71 70 69 69 69 69 70 70 70 71 71 71 71 71 71 71 71 71 70 70 69 69 69 69 68 67 67 67 68 69 68 68 69 69 70 69 69 69 69
68 69 69 70 71 71 72 69 69 69 69 69 70 70 70 70 70 71 70 71 71 69 69 69 69 69 69 68 68 67 66 67 68 68 69 67 68 69 69 69 69 69 69
67 67 68 69 69 70 70 71 69 69 69 69 70 69 69 70 71 70 70 69 69 68 68 68 68 68 68 67 67 66 66 68 68 68 69 67 68 69 69 69 69 69 69
65 66 67 68 68 69 67 69 71 70 70 70 70 71 71 71 70 70 69 68 68 67 67 67 67 67 66 68 67 67 67 67 67 67 68 66 68 69 69 69 69 69 68
63 65 66 66 67 67 67 67 68 68 68 70 70 69 71 71 70 70 71 69 70 68 69 67 67 67 67 67 66 67 66 66 66 66 66 66 66 69 68 68 68 68 68
64 63 65 66 65 66 66 66 66 67 68 68 68 69 69 69 69 69 68 68 69 68 68 68 68 68 66 66 66 66 65 65 65 66 66 65 64 68 68 68 68 68 67
44 59 66 66 66 66 66 66 66 66 66 66 68 68 68 68 67 67 67 67 67 67 66 67 67 66 66 65 66 65 64 64 64 65 66 64 64 67 68 68 67 67 67
32 37 62 66 66 66 66 66 65 65 66 66 67 67 68 67 67 66 66 66 65 65 66 66 65 65 65 65 64 64 64 64 63 64 65 66 63 65 67 68 67 67 67
31 31 39 62 67 67 66 66 66 66 65 64 66 67 67 67 67 66 65 65 64 64 64 64 63 64 64 65 64 64 64 63 63 63 64 64 64 63 65 66 66 66 66
44 43 40 37 63 68 67 66 67 66 66 65 65 66 67 66 66 66 65 65 65 64 64 63 63 62 63 63 62 63 64 63 63 63 63 64 66 63 63 64 65 65 65
48 50 46 42 49 64 67 67 67 66 66 65 65 65 66 66 65 65 64 64 65 64 64 62 62 62 62 62 62 63 63 62 62 63 62 63 65 64 64 62 62 63 64
49 50 50 48 44 58 66 67 67 66 67 66 65 64 65 66 64 64 64 64 64 64 63 62 61 62 62 62 61 62 62 62 62 62 62 62 63 64 63 63 63 62 61
48 48 49 50 51 47 64 64 63 63 64 65 65 65 65 65 64 63 63 63 63 63 62 62 61 61 61 62 60 59 59 61 61 62 62 62 61 61 62 62 61 61 61
46 47 48 49 50 49 57 63 63 63 64 65 66 65 65 64 64 63 62 62 63 62 62 62 61 60 61 62 59 57 54 56 59 61 61 61 60 60 60 60 60 60 60
44 45 45 48 49 51 53 62 64 64 65 64 65 64 65 64 63 63 63 63 62 62 62 62 62 60 59 61 60 57 53 53 55 58 60 61 60 59 59 59 59 58 58
42 43 43 45 48 51 54 60 62 60 59 62 63 64 64 64 63 63 63 63 62 62 62 62 62 61 61 59 60 60 58 57 54 53 56 59 59 59 59 58 58 57 57
40 40 42 44 46 50 55 59 62 61 62 63 64 63 63 64 62 59 59 62 62 62 62 62 62 61 61 60 59 58 57 57 57 55 53 55 56 58 58 58 58 57 57
39 40 41 43 45 48 56 59 62 62 62 63 62 62 63 62 59 59 61 62 62 62 62 63 62 61 61 60 60 59 57 55 55 56 55 55 54 55 57 57 58 57 57

GFSSE_sfc_dewp_102.txt.gz
Dewpoint
61 67 72 73 73 73 73 73 73 73 73 73 73 73 73 74 73 73 73 74 74 74 75 74 74 74 73 72 73 73 73 73 73 73 73 72 71 71 72 72 71 67 72
63 70 72 72 73 73 73 73 73 73 73 73 73 73 73 73 73 73 73 74 74 74 74 74 74 73 73 74 74 73 72 72 72 72 72 72 71 71 71 71 71 68 71
65 70 72 72 72 73 73 73 74 74 74 74 73 73 74 74 73 73 73 74 74 74 74 73 72 72 74 74 73 72 72 71 71 72 72 66 67 71 71 71 71 71 71
64 69 70 72 72 72 72 73 73 74 75 74 74 74 74 74 73 73 73 73 74 75 74 73 72 74 74 73 72 71 71 71 71 71 67 63 65 71 71 71 71 71 71
65 67 68 71 71 72 72 72 73 73 74 74 74 74 74 74 73 73 73 73 74 75 74 73 73 74 72 71 71 71 71 70 71 69 63 64 64 70 71 71 71 71 70
66 66 70 71 71 71 72 72 72 72 72 73 73 74 74 74 73 73 73 74 75 74 74 73 73 72 70 70 70 70 70 70 70 64 62 65 65 70 71 71 70 70 70
67 68 70 70 71 71 72 72 72 71 71 72 73 73 73 74 73 73 72 73 73 74 73 73 73 71 70 70 70 70 70 69 66 63 62 66 67 71 70 70 70 70 70
69 70 71 71 71 71 71 71 71 70 71 71 72 73 73 73 73 72 72 72 73 73 72 72 71 70 70 70 70 69 69 69 66 63 62 64 69 71 70 70 70 70 70
70 71 71 72 71 70 70 70 69 70 70 70 71 71 72 72 71 72 72 72 72 71 71 71 70 70 70 70 69 68 68 68 64 63 64 63 70 70 70 70 70 70 70
70 71 71 71 71 72 72 69 69 69 69 70 70 70 70 70 71 71 71 71 71 71 71 70 69 69 69 69 68 67 67 67 66 66 66 64 69 69 69 70 70 70 70
68 69 70 70 71 71 71 70 70 70 69 69 70 70 69 69 70 71 70 70 71 69 69 69 68 68 68 68 67 67 67 66 67 66 67 67 69 69 69 70 69 70 69
65 67 69 70 70 70 68 70 71 70 69 70 69 70 69 69 69 66 68 69 69 68 68 68 68 67 68 68 67 67 66 64 68 66 64 67 69 69 68 69 69 69 69
60 64 66 69 70 70 69 69 69 70 69 70 70 69 70 68 69 68 68 69 70 68 67 67 67 67 66 66 67 65 64 66 65 64 63 66 67 68 68 69 68 68 68
38 53 64 66 68 70 68 68 68 69 69 69 69 71 70 69 68 68 66 67 68 67 66 66 65 66 66 66 66 66 65 64 61 62 62 65 65 67 68 69 68 68 68
30 35 50 64 67 68 69 67 67 68 68 68 68 69 69 68 68 67 66 66 67 66 67 66 66 66 66 66 66 65 64 64 63 62 62 64 64 66 68 68 69 68 67
35 35 39 50 63 66 67 67 66 66 66 67 67 68 69 68 68 67 67 67 65 66 67 66 67 66 66 66 66 65 65 64 64 64 64 62 63 65 67 68 68 68 67
43 45 48 46 52 63 66 66 66 64 65 64 66 68 68 68 68 68 66 66 67 66 68 68 68 67 66 65 65 65 64 64 64 64 64 64 65 62 64 66 67 67 67
46 49 50 49 50 52 62 63 65 65 65 64 64 67 67 68 67 68 66 66 66 67 66 66 65 65 64 65 64 65 64 64 64 65 63 64 64 65 64 64 64 66 66
46 50 52 53 53 51 53 61 63 66 66 65 64 65 67 68 67 67 66 65 66 66 65 65 64 64 64 64 62 63 64 64 64 63 63 63 64 65 65 63 63 63 64
47 49 50 51 54 55 52 54 61 61 67 66 65 64 66 68 67 67 66 66 66 65 65 65 64 63 63 62 62 62 63 64 63 63 62 63 63 64 64 63 62 62 62
47 47 48 50 52 52 51 47 56 59 64 63 64 65 66 67 67 66 66 65 65 64 64 64 63 62 62 63 62 61 61 62 62 62 62 62 62 63 64 65 64 61 62
46 48 48 48 49 50 51 51 51 57 59 61 63 66 66 66 67 66 65 64 64 64 64 64 63 61 62 63 60 59 56 57 61 61 62 62 62 62 62 63 62 61 62
45 46 46 47 48 50 52 52 51 57 59 62 64 66 66 66 66 66 65 64 64 64 64 64 63 62 60 62 61 58 55 55 57 60 61 61 61 61 61 61 61 60 60
44 44 44 45 46 47 50 51 53 52 56 59 61 64 65 65 65 65 64 63 63 64 64 64 63 63 62 60 61 61 60 57 55 54 57 61 62 61 61 61 61 60 59
42 42 41 43 44 45 47 49 53 53 59 58 60 63 64 64 64 64 64 64 64 64 64 64 64 64 63 61 60 60 60 58 59 56 54 56 59 60 61 61 61 59 58
41 41 40 41 41 43 45 48 52 57 57 58 59 62 63 64 64 64 64 64 64 63 63 63 63 63 63 62 61 61 59 57 57 56 55 56 56 57 60 60 60 59 59

GFSSE_sfc_dewp_105.txt.gz
Dewpoint
56 69 72 73 73 73 73 74 74 73 73 73 73 74 74 74 74 74 74 74 74 74 75 74 74 73 73 72 72 72 72 72 73 73 73 72 71 72 72 72 72 67 71
62 70 72 72 73 73 73 74 74 73 73 73 73 74 74 74 74 74 74 74 74 75 74 73 73 73 73 73 73 73 72 72 72 73 73 72 71 71 71 72 70 69 71
63 70 71 72 73 73 73 74 74 74 73 73 74 74 74 74 74 74 74 74 74 74 74 73 73 73 73 74 73 72 72 72 72 72 72 66 67 71 70 71 71 71 71
63 66 70 72 72 73 73 73 74 74 74 74 74 74 74 74 74 73 74 74 74 74 74 74 73 73 74 73 72 72 71 71 71 71 68 66 65 71 71 71 71 71 71
61 64 69 71 71 72 72 73 74 74 74 73 73 74 74 74 74 74 73 73 74 74 74 73 72 74 73 72 71 71 71 71 71 70 64 67 65 70 71 71 71 71 70
63 64 70 71 71 72 72 72 73 73 73 73 73 74 74 74 74 73 73 73 74 75 74 73 74 73 71 71 71 71 70 70 70 65 65 66 65 71 71 71 71 70 70
66 66 71 70 71 71 72 72 72 72 73 73 73 73 73 73 73 73 73 73 74 74 74 73 72 71 70 70 71 70 70 70 67 62 63 64 68 71 71 70 70 70 69
69 68 71 71 71 71 71 71 71 71 72 72 73 73 73 73 73 72 72 73 73 73 72 72 72 71 70 70 70 69 69 69 66 64 61 62 70 71 70 70 70 70 70
69 70 70 73 71 71 70 70 70 70 71 71 72 72 73 72 72 72 72 72 72 72 71 72 71 70 70 70 69 69 68 68 65 62 61 63 70 71 70 70 70 70 70
68 70 71 71 71 71 71 70 70 70 70 70 71 71 71 71 71 71 71 72 72 71 71 71 70 70 69 69 68 68 67 67 66 64 59 60 70 70 70 70 70 70 70
66 69 72 71 72 71 70 70 70 70 70 70 70 70 69 71 71 71 70 70 71 70 69 69 68 69 68 68 68 68 67 66 64 63 62 67 68 70 70 70 70 69 70
61 66 70 71 71 71 69 71 70 69 68 68 68 69 70 69 69 67 68 69 70 69 69 69 68 68 68 66 67 67 67 64 66 66 65 67 67 69 70 69 69 70 69
46 63 66 69 71 70 70 70 70 68 68 69 70 69 69 68 68 67 66 68 70 69 68 68 68 68 66 65 67 66 65 65 66 65 63 66 68 69 69 68 69 70 68
32 46 62 65 68 71 69 68 68 68 69 67 68 71 69 68 68 67 64 66 69 67 67 67 67 67 66 66 66 66 67 66 63 64 66 65 66 68 68 68 68 68 68
30 34 40 56 64 67 69 67 67 67 67 68 69 70 67 66 67 65 64 63 66 65 67 66 66 66 66 66 67 66 65 66 65 64 64 64 64 66 67 67 68 68 68
37 37 42 43 52 62 66 68 67 67 66 67 66 69 70 69 68 65 64 63 62 65 68 66 65 67 67 67 67 66 66 66 65 64 61 63 63 64 66 68 68 68 68
40 43 48 51 48 52 61 64 66 65 65 63 64 68 69 69 69 68 66 67 64 64 68 68 68 67 66 65 66 66 65 66 65 64 65 62 63 62 64 64 67 66 68
43 47 49 49 53 55 54 57 61 62 65 64 63 65 67 68 69 68 65 66 66 65 67 67 66 67 65 65 65 64 66 65 65 65 65 65 62 63 64 64 63 65 67
43 47 49 51 52 55 56 54 57 64 64 64 64 64 67 67 66 68 66 66 67 65 67 67 66 66 65 64 63 64 65 64 65 63 63 64 64 64 65 63 63 62 64
46 48 48 49 52 54 53 55 53 54 62 63 63 65 67 68 68 68 66 67 67 65 67 66 65 65 64 64 61 63 63 64 64 64 63 63 63 63 64 65 64 64 62
47 47 48 50 51 50 50 50 50 47 55 59 61 64 67 66 69 68 66 67 66 65 66 65 65 64 64 64 63 62 63 63 64 63 63 62 62 62 64 64 63 64 64
46 47 48 48 49 49 49 50 51 52 51 55 60 63 65 66 68 67 66 66 66 65 65 64 64 63 63 64 61 59 57 58 61 62 62 61 62 62 62 63 63 63 61
44 46 46 46 47 49 50 50 50 52 53 55 60 61 63 66 67 67 67 66 66 65 64 64 64 62 61 63 62 59 56 55 57 61 61 61 61 61 62 62 63 64 63
43 45 45 46 46 46 49 49 50 50 50 48 55 58 62 65 65 67 67 65 65 65 64 64 64 63 62 60 62 61 60 57 55 55 59 61 61 61 61 61 62 62 62
42 44 45 45 44 46 46 47 47 49 51 53 53 58 62 65 65 66 67 65 65 64 64 64 63 63 63 62 61 60 61 60 59 56 54 57 60 61 61 61 61 61 62
41 43 44 43 43 44 43 44 45 47 50 53 53 57 60 65 65 65 65 65 65 65 64 64 65 65 64 63 62 62 60 58 57 57 56 56 56 59 61 61 61 61 61

GFSSE_sfc_dewp_108.txt.gz
Dewpoint
64 69 72 73 74 74 74 73 73 73 73 74 73 74 74 74 74 74 74 74 74 74 75 75 74 74 73 72 72 72 72 72 73 73 72 72 72 72 72 72 72 69 72
68 68 72 72 73 74 74 73 73 73 74 74 74 74 74 74 74 74 74 74 74 75 74 74 74 74 73 73 73 72 72 72 72 72 72 72 73 72 72 71 71 70 72
68 70 70 72 73 73 74 74 74 73 74 74 74 74 74 74 74 74 74 74 74 75 74 73 73 73 73 73 73 72 72 72 72 72 72 68 69 72 71 71 71 72 71
64 71 69 72 72 73 73 73 74 74 74 74 74 74 74 74 74 74 74 74 74 74 74 73 73 73 74 73 72 71 71 71 71 71 70 67 67 72 71 72 72 72 72
62 69 69 71 72 72 73 73 73 74 73 73 73 74 74 74 74 74 74 73 74 74 74 74 73 73 73 72 71 71 71 71 70 70 67 69 69 70 71 72 71 71 70
65 66 70 70 71 72 72 73 73 73 73 73 73 74 74 74 73 73 73 73 74 74 74 74 73 73 72 71 71 70 70 70 70 68 67 69 69 71 71 71 71 70 70
69 71 70 70 71 72 72 73 73 73 73 73 73 73 73 73 73 73 73 73 73 74 74 73 73 72 71 70 71 70 70 69 68 66 67 69 69 71 71 72 71 70 70
71 72 71 71 71 71 71 71 72 72 72 72 72 73 73 73 73 73 72 73 73 73 73 72 72 71 70 70 70 69 69 69 68 66 66 68 70 71 71 71 70 70 70
71 73 73 72 71 71 70 70 70 71 72 72 72 72 72 72 72 72 72 72 73 72 72 72 71 70 70 70 69 69 68 68 68 65 67 68 69 70 71 71 70 70 70
70 72 73 73 72 71 71 70 70 70 70 71 72 71 71 71 72 72 71 72 72 72 71 71 71 70 69 69 68 68 67 68 68 66 66 67 68 72 71 71 70 70 70
67 70 72 72 72 72 71 70 70 70 70 70 71 71 70 72 72 71 70 70 71 70 70 70 70 69 68 68 68 68 68 68 66 65 66 68 68 70 71 70 70 69 69
55 70 71 72 72 72 70 71 70 70 69 70 70 71 72 72 72 70 70 69 70 69 69 69 69 68 68 68 68 68 67 67 66 65 64 67 69 69 71 69 68 68 68
49 66 70 71 71 71 71 72 70 69 69 69 69 70 70 69 70 69 69 69 70 69 70 69 68 68 68 68 67 67 67 66 67 65 64 66 68 69 70 69 69 68 67
50 47 68 70 71 71 71 70 71 71 69 69 69 70 70 69 69 69 67 69 70 69 69 68 68 68 67 67 66 67 67 66 67 64 66 66 67 68 69 69 68 68 68
44 46 50 57 68 71 70 71 70 69 71 69 71 70 68 69 68 68 67 67 68 68 68 67 67 67 66 66 67 66 66 66 65 66 65 65 65 66 68 67 68 68 68
43 46 52 54 56 56 69 69 70 70 70 70 69 69 70 69 67 66 67 65 67 67 67 66 66 66 66 66 66 66 66 66 66 65 65 64 63 64 66 68 67 68 68
44 48 54 55 59 60 59 62 68 68 69 69 68 69 69 69 70 68 67 65 64 66 65 67 67 68 66 66 65 66 66 66 66 65 65 64 63 62 63 66 67 66 66
45 50 52 52 57 59 60 60 58 59 67 67 66 67 69 68 68 68 67 65 67 66 66 67 66 66 66 66 65 65 65 66 65 64 64 64 63 64 63 63 64 66 67
45 51 52 54 55 57 59 59 59 59 57 66 66 66 68 68 67 68 67 66 66 66 66 66 66 66 65 65 65 64 64 65 64 64 64 63 63 64 64 63 63 63 64
48 50 51 52 55 56 56 58 58 57 57 56 63 65 66 68 67 67 67 67 66 65 65 67 65 66 65 64 62 63 64 64 64 64 63 64 64 63 63 64 62 62 62
49 49 49 50 52 51 51 51 52 52 55 55 57 62 66 67 67 66 66 66 66 65 64 66 65 64 64 64 62 62 62 63 63 63 63 63 62 62 62 63 64 64 62
47 48 47 47 48 49 49 51 51 52 52 54 55 57 62 64 66 66 67 66 66 65 64 65 64 63 63 64 61 59 56 58 60 62 63 62 61 62 61 62 63 63 63
46 47 45 46 46 48 49 48 49 50 51 52 53 53 55 62 64 66 66 66 66 65 64 65 64 62 61 63 61 57 54 54 55 60 61 61 60 61 60 60 62 63 63
45 46 45 46 45 45 47 46 47 47 47 49 51 53 54 63 63 65 66 66 65 64 64 64 64 62 61 61 62 60 59 58 54 54 58 61 61 61 60 60 61 62 62
43 44 45 44 43 44 45 45 44 44 46 48 50 52 54 55 62 64 65 65 64 64 63 64 64 62 61 60 60 60 59 59 59 55 52 56 59 60 60 60 60 61 62
41 43 43 42 41 42 43 42 42 42 43 45 47 49 52 55 59 62 64 66 65 64 64 63 60 63 62 62 61 60 59 58 58 56 54 54 55 58 60 60 60 60 61

GFSSE_sfc_dewp_111.txt.gz
Dewpoint
68 71 72 73 74 73 73 73 73 73 73 74 74 74 74 74 73 74 74 74 75 75 75 74 74 74 73 72 72 72 72 72 72 73 72 73 72 72 72 72 71 70 72
69 71 71 73 73 74 73 73 73 73 74 74 74 74 74 74 73 74 74 74 74 75 74 74 73 73 73 73 72 71 71 71 72 72 72 72 73 72 71 72 71 71 72
68 71 71 72 73 74 74 73 73 73 74 74 74 74 74 74 74 74 73 74 74 75 74 73 73 73 73 73 72 71 71 71 71 71 72 70 71 72 71 72 72 72 72
68 70 71 72 72 73 73 73 73 74 74 74 74 74 74 74 74 74 73 73 74 75 74 73 73 73 73 72 71 71 71 71 71 71 70 69 68 71 70 72 72 71 72
69 69 70 71 72 72 73 73 73 73 73 73 73 74 74 74 74 74 73 73 74 75 75 73 73 74 72 72 71 70 70 70 70 70 68 68 69 70 71 71 71 71 71
68 68 70 70 71 72 72 73 73 73 72 72 73 74 74 74 74 73 73 73 74 74 74 75 74 72 72 71 71 70 70 70 70 69 67 68 66 69 69 70 70 70 70
70 70 70 70 71 72 72 72 72 72 72 72 73 73 73 73 73 73 72 73 73 74 74 73 72 72 71 70 70 70 69 69 69 67 68 64 61 63 68 70 70 70 71
70 71 70 71 71 71 71 71 72 72 72 72 72 72 73 73 72 72 72 72 72 73 72 72 72 71 70 70 70 69 68 68 68 67 67 67 65 66 69 70 70 70 70
70 71 70 70 71 70 70 70 70 71 71 71 71 72 72 72 71 72 72 72 72 72 72 71 71 70 70 69 69 68 68 68 68 66 67 67 68 68 70 70 70 70 70
69 71 70 70 70 70 69 69 70 70 70 71 71 71 71 71 71 71 71 71 71 71 71 71 70 70 69 68 68 68 67 67 68 66 67 68 68 69 70 70 70 69 69
68 68 71 71 70 70 70 70 70 70 70 70 71 70 70 71 71 71 70 70 71 70 70 70 70 69 68 68 68 68 67 67 67 66 66 67 68 66 70 70 70 70 69
64 68 69 70 70 70 70 69 69 69 70 70 70 71 71 71 71 71 70 69 69 69 69 69 69 68 68 68 67 67 67 67 67 66 66 67 68 69 71 70 69 69 69
62 68 69 70 70 71 70 69 69 69 69 69 69 70 70 71 71 70 70 69 69 69 70 69 68 68 68 68 67 67 67 67 66 66 65 66 67 69 69 69 69 69 69
33 65 70 70 69 68 69 71 70 68 68 68 68 69 69 69 68 69 69 69 69 69 69 68 68 68 68 68 67 67 67 66 66 65 65 65 66 68 68 69 70 68 68
38 45 50 64 66 68 68 69 70 70 69 68 68 68 69 68 68 68 68 69 69 69 68 68 68 68 67 67 67 66 67 66 66 66 65 65 65 67 69 68 68 69 68
42 48 50 52 54 55 60 65 67 67 68 69 69 69 68 68 67 67 67 67 68 68 68 68 67 67 67 67 66 66 66 66 65 65 64 64 63 64 66 68 69 68 68
47 48 50 52 53 55 56 57 59 65 68 67 68 68 69 68 68 67 66 66 67 68 67 67 66 67 66 66 65 65 65 65 65 65 64 63 62 62 63 66 68 68 68
48 48 50 51 53 54 54 56 56 58 59 63 67 68 67 68 68 68 67 66 65 66 65 66 66 66 65 65 64 64 65 65 65 64 64 63 62 62 61 63 65 67 67
47 48 49 50 51 52 53 54 55 55 56 58 61 65 67 68 67 67 67 67 65 65 66 65 65 65 64 65 64 64 64 64 64 65 63 63 63 63 63 62 62 63 65
47 47 47 49 49 49 50 52 52 53 54 55 54 57 65 67 68 67 66 66 66 65 64 65 65 65 65 64 64 63 63 64 64 63 63 63 63 63 63 63 61 62 63
45 45 46 47 47 48 48 48 48 50 50 51 52 53 54 64 67 67 66 66 66 66 64 65 65 64 62 64 61 60 60 63 63 63 63 63 63 62 61 62 62 61 62
45 45 45 45 45 45 47 47 48 49 50 51 52 52 53 54 58 66 66 66 66 66 65 64 64 63 62 63 60 59 57 57 60 63 63 62 62 61 60 61 63 63 63
43 44 44 44 43 44 44 45 45 45 46 48 49 49 50 52 54 58 65 66 66 66 65 64 63 63 61 61 60 57 54 52 54 57 61 62 61 60 59 59 61 62 63
42 43 42 42 41 41 43 42 42 42 42 43 45 47 48 49 52 55 58 63 65 65 64 62 59 59 57 59 61 61 57 55 52 53 56 59 61 60 60 60 60 61 63
41 41 41 41 41 41 41 41 40 39 41 42 43 44 46 48 50 53 56 61 62 64 63 59 57 59 61 61 57 60 59 58 56 53 52 56 59 60 60 59 59 60 60
39 40 39 39 39 39 39 39 39 38 39 40 41 42 44 46 49 51 55 59 62 62 63 62 60 60 61 60 60 59 57 57 57 56 52 51 55 58 60 60 59 60 61

GFSSE_sfc_dewp_114.txt.gz
Dewpoint
69 72 72 73 73 73 73 73 72 73 73 73 73 73 73 74 74 74 74 74 75 75 75 75 75 74 73 72 72 72 71 71 72 72 72 73 72 72 72 72 71 70 72
70 72 72 73 73 73 73 73 72 73 73 73 73 73 73 73 73 74 74 74 74 75 74 74 74 73 73 73 71 72 71 71 71 71 72 72 72 72 72 72 71 71 72
69 71 72 72 73 73 73 73 73 73 73 73 73 73 73 73 73 73 73 74 75 75 73 73 73 73 73 73 71 71 71 71 71 71 71 70 71 72 71 72 72 72 72
69 70 71 72 73 73 72 72 73 73 73 73 73 73 73 73 73 73 73 73 74 74 73 73 72 73 73 72 71 70 70 71 70 71 69 70 69 72 71 71 72 72 72
69 70 70 71 72 73 72 72 72 73 73 73 73 73 73 73 73 73 72 73 74 75 73 72 72 74 72 71 70 70 70 70 70 70 68 68 69 71 71 72 72 72 71
69 68 70 70 71 72 73 72 72 72 72 72 73 73 73 73 73 73 72 73 74 75 75 73 73 73 71 71 70 70 69 69 69 68 68 68 69 71 71 71 70 71 70
69 68 70 69 71 72 72 72 72 72 72 72 72 73 73 73 73 73 72 72 73 74 74 74 73 72 71 71 70 69 69 69 68 67 66 63 63 70 70 71 71 71 71
69 70 70 70 71 71 71 71 71 71 71 71 72 72 73 72 72 72 72 72 72 72 72 72 71 71 71 70 70 69 68 68 68 66 67 62 62 67 69 71 70 70 70
70 69 70 70 71 70 69 70 70 70 71 71 71 71 72 71 71 71 71 72 72 71 71 71 71 70 70 70 69 68 67 68 66 67 67 65 64 66 68 71 70 70 70
70 69 69 69 70 70 69 69 69 70 70 70 70 70 70 70 71 71 70 71 71 71 71 71 70 70 69 68 68 67 67 67 67 66 67 66 67 68 69 71 70 70 70
69 69 68 69 69 69 69 69 70 70 70 70 70 70 69 71 71 71 70 70 70 69 70 70 70 69 68 68 67 67 67 67 67 67 66 67 68 68 70 70 70 69 69
66 68 69 69 69 68 69 69 69 70 70 71 71 71 71 71 70 71 70 69 69 69 69 69 69 68 68 68 67 67 66 67 67 66 66 66 68 69 67 70 69 69 68
43 67 69 69 69 69 69 68 68 68 68 69 70 70 70 69 71 70 70 70 69 69 69 69 68 68 68 67 66 66 66 66 66 66 66 66 68 69 68 70 70 69 67
53 66 68 68 68 68 68 68 68 68 67 68 68 69 69 69 70 70 70 69 68 69 68 69 69 68 67 67 67 66 66 66 66 66 65 65 66 69 70 69 69 69 68
50 60 64 64 62 65 68 69 70 69 68 67 68 68 69 69 69 69 69 69 68 68 69 68 68 67 67 67 67 66 66 66 66 66 65 64 64 67 68 69 69 69 69
48 50 53 54 55 55 59 59 64 67 67 67 68 68 68 68 68 68 68 68 68 68 68 68 68 67 67 67 66 66 66 66 66 65 64 64 63 64 66 68 69 69 69
49 50 52 53 53 53 54 56 59 60 62 65 68 67 67 68 68 67 67 67 68 68 68 68 67 67 67 66 66 66 66 66 65 64 64 63 63 62 64 66 67 68 69
49 49 49 49 50 50 51 52 53 56 58 59 61 64 67 68 68 68 68 67 67 68 68 68 67 66 66 66 65 65 64 64 64 64 63 63 62 62 61 63 65 67 68
47 47 47 47 47 48 49 50 51 52 53 55 56 57 62 65 67 68 67 67 66 66 67 67 66 66 65 65 65 64 64 64 64 64 63 63 62 61 61 61 62 64 65
45 46 46 46 46 47 47 48 49 50 50 52 52 53 54 56 60 65 66 66 66 65 65 66 66 65 64 64 64 63 63 64 64 64 63 63 62 62 63 62 61 62 62
44 44 44 44 45 44 45 45 46 46 46 48 49 51 52 55 56 55 63 66 65 65 64 64 64 63 63 64 61 59 60 63 63 63 63 63 62 62 63 62 61 61 61
43 42 42 42 42 42 43 45 45 44 47 46 48 48 49 50 52 53 55 60 65 65 64 63 64 63 64 64 62 61 58 59 61 62 63 63 62 63 62 62 62 61 61
41 41 41 41 41 41 42 42 41 42 43 44 43 44 46 47 48 50 52 54 56 64 65 64 63 62 60 61 61 59 55 55 56 58 61 61 61 61 61 60 61 62 62
39 40 40 40 39 40 40 40 39 39 39 40 41 42 43 45 47 49 51 53 55 58 62 64 63 62 59 56 56 58 58 57 53 53 57 61 61 60 60 60 59 61 61
38 38 37 37 37 37 38 39 39 38 38 39 40 41 42 44 46 48 49 50 52 54 58 63 61 57 57 55 54 56 56 58 57 54 51 57 60 60 60 60 59 60 60
37 36 36 35 34 36 37 37 37 37 37 38 39 40 42 44 45 47 48 50 52 55 58 61 62 60 57 56 55 56 57 57 55 54 51 54 55 58 60 59 59 59 60

GFSSE_sfc_dewp_117.txt.gz
Dewpoint
68 72 72 73 73 73 73 72 72 72 73 73 74 74 74 74 74 74 74 74 74 74 75 74 74 73 72 71 71 71 71 71 71 72 72 73 72 72 72 72 72 69 71
68 72 72 72 73 73 73 72 72 72 73 73 73 74 74 74 74 74 74 74 75 75 74 74 73 73 72 71 71 71 71 71 71 71 72 72 72 72 71 72 71 70 71
69 72 72 72 73 73 73 73 73 73 73 74 73 73 73 74 73 73 74 74 75 75 74 73 73 73 73 71 71 71 71 71 71 71 72 70 70 71 71 71 72 72 71
70 71 72 72 72 73 73 73 73 73 73 73 73 73 73 73 74 73 73 74 74 74 74 73 73 73 73 71 70 70 71 71 70 70 69 70 70 71 71 71 71 71 72
69 70 71 72 72 72 72 72 72 73 73 73 73 73 73 73 73 73 73 73 74 74 73 72 72 74 72 71 70 70 70 70 70 70 68 68 69 70 70 71 71 72 71
69 69 70 71 71 72 72 72 72 72 72 72 72 73 73 73 73 73 72 73 74 74 74 73 74 73 71 70 70 69 69 69 69 68 67 68 69 70 70 70 71 71 71
68 69 70 70 71 72 72 72 72 72 71 72 72 72 72 73 73 72 72 73 74 74 74 73 73 72 71 70 70 69 69 68 68 66 66 67 68 71 70 70 71 70 70
68 69 70 70 71 71 72 71 71 71 71 71 72 72 72 72 72 72 71 72 72 73 73 72 72 71 71 70 70 69 68 68 68 66 66 63 64 69 71 70 70 70 70
69 68 68 70 70 70 69 70 70 70 70 70 71 71 71 71 71 71 71 71 72 72 71 72 71 70 70 70 69 68 67 68 67 66 67 63 64 67 70 70 70 70 70
68 68 68 68 69 69 69 69 69 70 70 70 70 70 70 70 70 70 70 71 71 71 71 71 70 70 70 69 68 67 67 67 66 66 66 66 66 65 67 70 70 70 70
68 67 67 67 68 68 68 69 70 70 70 69 70 70 69 70 70 70 70 69 70 69 70 70 70 69 68 68 67 67 67 67 66 66 65 67 68 68 68 70 70 70 70
66 67 67 67 67 67 69 68 68 69 70 70 70 70 70 70 70 70 69 68 69 68 69 69 69 68 68 67 67 67 66 66 66 66 66 66 68 68 68 70 70 70 70
66 67 68 68 68 67 68 67 67 68 69 70 69 69 70 68 69 70 70 69 68 68 68 68 68 68 68 67 66 66 66 66 66 66 66 66 67 69 69 70 70 70 70
50 61 68 68 68 68 69 67 67 67 67 68 69 69 69 69 69 68 68 68 68 68 68 68 68 68 68 67 66 65 65 65 65 65 65 65 66 68 69 69 70 70 69
54 64 64 60 62 66 67 68 69 67 67 66 67 68 68 68 68 68 68 68 68 68 68 68 68 68 68 67 66 66 65 65 65 65 65 64 65 67 69 69 70 69 69
53 53 54 54 54 55 58 59 61 63 66 68 67 67 67 68 68 68 68 68 68 68 68 68 68 67 67 67 67 66 66 65 65 65 65 65 63 65 67 69 69 69 69
51 51 51 51 51 51 52 53 56 57 60 61 62 64 66 67 67 67 67 68 69 68 68 68 67 67 67 67 67 66 66 66 66 65 65 64 64 62 63 66 67 68 68
49 48 48 49 49 49 50 51 51 54 55 56 59 60 61 63 64 67 67 67 68 68 67 67 67 67 66 66 66 65 66 66 65 65 64 64 63 63 63 64 65 67 67
47 46 46 47 47 48 48 49 49 50 50 53 53 55 56 58 59 60 63 67 67 67 67 67 67 67 66 65 65 65 65 65 65 65 64 63 62 62 62 61 62 62 65
45 45 45 44 45 45 46 47 47 46 46 49 49 50 52 54 55 56 58 62 66 65 65 66 65 66 65 65 65 65 64 64 65 65 64 63 62 62 61 60 60 61 62
42 41 42 42 42 43 43 43 45 43 45 45 47 46 47 50 50 50 52 54 57 63 64 63 64 63 64 65 62 61 60 62 62 63 63 63 62 62 61 61 61 60 61
40 40 40 41 41 41 41 42 42 42 44 43 44 43 46 45 47 48 50 51 54 55 58 64 64 62 62 63 60 60 58 59 61 63 63 62 62 62 62 62 62 61 60
38 39 38 39 38 39 40 40 40 41 40 41 40 41 42 44 45 47 48 50 51 53 53 57 63 63 62 61 62 58 53 55 57 59 61 62 61 62 62 61 61 61 60
36 36 35 36 36 38 38 38 38 38 38 39 39 40 41 43 45 47 48 48 49 51 53 55 59 63 63 58 57 58 56 56 54 51 58 60 61 61 61 61 61 61 61
37 36 35 34 34 36 36 37 37 37 38 38 39 39 41 43 44 46 48 47 48 49 50 53 54 58 63 61 56 55 56 55 55 52 51 54 60 61 61 60 60 60 61
34 34 35 34 33 34 35 35 36 36 36 37 37 38 39 40 42 45 46 47 49 50 51 52 54 57 61 60 58 57 55 54 54 53 51 52 53 57 61 61 59 59 59

GFSSE_sfc_dewp_120.txt.gz
Dewpoint
67 70 72 73 73 73 72 72 72 72 73 74 74 74 73 73 73 73 74 74 74 75 74 74 73 72 71 70 71 72 71 71 71 72 73 73 72 72 72 71 71 70 71
69 71 71 73 73 73 73 72 72 73 73 74 74 74 74 73 73 73 74 74 74 75 75 73 73 73 71 71 71 71 71 70 70 71 73 73 72 72 71 72 71 70 71
70 71 71 72 73 73 73 73 73 73 73 73 74 74 74 74 74 74 74 74 74 75 75 73 73 73 71 71 70 71 71 70 70 71 72 71 71 71 71 72 71 71 71
70 71 71 72 73 73 73 73 73 73 73 73 73 74 74 74 74 74 74 74 74 74 74 73 73 73 72 70 70 70 70 70 70 71 70 70 70 71 71 71 71 71 71
70 71 71 71 72 72 72 72 72 73 73 73 73 73 73 73 73 73 73 74 74 75 74 73 73 74 72 70 69 70 70 70 70 69 69 70 70 71 71 71 71 71 71
69 70 70 71 71 72 72 72 72 72 71 72 72 73 73 73 73 73 73 73 74 74 74 73 73 73 71 70 69 69 70 69 70 68 68 69 69 70 71 71 71 71 70
68 69 70 70 71 71 72 72 72 71 71 71 72 72 72 73 73 73 72 73 73 74 73 73 73 71 71 70 69 69 69 69 68 67 67 67 69 70 70 71 71 71 71
68 68 69 71 71 71 71 71 71 71 71 71 71 71 72 72 72 72 72 72 73 73 72 72 71 71 70 70 69 68 68 68 68 66 66 66 67 70 70 69 69 70 70
68 68 68 69 71 70 70 70 69 70 70 70 70 71 71 71 71 71 71 72 72 72 72 71 71 71 70 70 69 68 67 68 67 66 66 64 66 66 70 70 69 69 70
67 67 67 68 69 69 69 69 69 69 69 70 70 70 70 70 70 70 70 70 71 71 71 71 70 70 70 69 68 68 66 67 67 66 66 66 65 66 69 70 70 69 69
67 66 66 67 68 68 68 69 69 70 70 69 70 69 68 70 69 69 69 69 70 69 70 70 70 69 69 68 68 67 67 67 66 66 66 66 67 67 68 70 70 70 69
64 66 66 66 67 67 69 68 68 69 69 70 70 70 70 70 70 69 69 68 69 68 69 69 69 68 68 68 67 67 67 66 66 66 66 66 68 68 68 70 70 70 69
59 66 67 66 66 67 68 67 67 68 69 70 70 70 70 70 69 69 69 69 68 68 68 68 68 68 68 67 66 66 66 66 66 66 66 66 67 69 69 70 70 70 69
31 61 66 66 67 67 68 67 67 68 68 68 69 69 69 69 69 69 68 68 68 68 68 68 69 69 68 67 66 66 66 66 66 66 66 65 66 68 69 70 70 70 70
31 61 67 69 68 68 68 68 67 66 67 67 68 69 69 69 68 68 68 68 68 68 68 67 68 68 68 68 67 66 66 66 66 66 65 64 64 66 69 70 70 69 71
55 58 55 57 60 58 59 60 61 62 64 66 66 67 68 68 68 68 68 68 68 68 68 67 67 67 66 67 67 66 66 66 65 65 65 65 63 64 67 70 70 70 70
52 51 51 52 53 53 54 54 56 57 59 59 61 62 62 63 62 65 67 67 68 68 67 68 67 67 67 66 66 66 66 66 65 65 65 65 65 62 63 66 68 69 69
46 46 47 48 49 50 50 52 53 53 54 55 56 58 58 59 60 61 61 63 67 68 68 67 67 66 66 66 66 66 66 66 66 65 65 65 64 64 63 63 65 66 68
44 44 43 44 45 46 48 49 49 49 50 50 51 52 53 55 55 56 59 61 62 65 66 66 66 66 66 66 66 66 65 65 65 65 65 64 64 64 63 62 62 63 65
41 41 42 42 42 44 45 46 45 45 46 46 47 46 49 50 50 51 53 54 56 60 64 65 64 65 64 65 65 64 65 65 65 64 64 64 63 63 62 62 62 63 61
40 39 40 40 40 41 42 43 43 41 44 44 43 44 46 46 48 48 49 50 53 54 55 59 64 62 61 63 62 61 62 63 64 64 64 63 62 62 62 62 62 61 61
36 36 36 37 38 38 39 41 41 41 43 43 41 43 43 44 46 46 47 48 50 51 52 53 58 63 62 63 61 58 54 56 60 63 64 63 62 63 62 62 62 61 61
36 35 34 35 35 37 38 39 39 40 40 40 40 40 41 43 45 46 47 48 48 49 50 52 54 56 61 62 63 59 55 55 57 60 60 63 63 62 62 62 62 62 62
36 37 37 36 35 35 36 37 37 38 37 39 39 40 40 42 43 45 47 48 49 50 50 50 53 53 57 60 60 62 58 57 55 54 58 61 62 61 61 62 62 62 62
35 36 36 37 37 34 34 35 36 36 37 38 38 38 39 40 42 43 46 46 47 48 50 50 51 51 53 55 59 57 57 56 55 54 53 55 60 60 60 61 62 62 62
35 35 36 34 34 35 34 34 35 35 35 36 36 37 37 39 40 42 42 44 44 46 47 49 52 52 52 53 56 59 57 56 54 53 51 52 54 58 59 59 61 62 62

GFSSE_sfc_dewp_123.txt.gz
Dewpoint
65 69 72 73 73 72 72 72 72 73 74 73 73 73 73 74 73 73 74 74 74 74 74 73 73 73 72 72 73 72 72 71 72 73 73 73 72 72 71 72 71 66 71
68 70 72 73 73 73 72 72 72 73 74 73 73 73 73 73 73 73 74 74 74 74 74 73 73 72 70 71 71 71 71 70 71 73 73 73 72 72 71 71 70 68 71
70 71 71 72 73 73 72 72 73 73 74 74 74 73 73 73 73 73 73 74 74 74 75 73 73 72 71 71 70 71 71 70 71 72 73 68 69 72 71 71 71 71 71
69 70 71 72 72 72 72 72 72 73 74 74 74 74 73 73 73 73 73 73 74 74 75 73 73 73 72 70 70 70 70 70 71 71 68 67 68 71 71 70 70 71 71
69 70 70 72 72 72 72 72 72 73 73 73 74 74 74 74 74 74 73 73 74 75 75 73 73 74 71 69 69 70 70 70 70 69 68 69 69 70 71 71 70 71 71
69 70 71 71 71 72 72 72 72 72 72 72 72 73 74 74 74 73 73 73 74 74 74 73 73 73 71 69 69 69 70 70 69 67 68 69 69 71 71 71 71 70 71
69 70 71 70 71 72 72 72 72 71 71 71 72 72 73 73 73 73 73 73 74 74 73 73 72 72 71 70 69 69 69 69 67 68 68 68 69 71 70 71 71 71 71
69 70 71 71 71 71 71 71 71 71 71 71 71 71 72 73 72 72 72 73 73 73 73 72 72 71 70 70 69 68 68 68 67 67 68 67 69 70 70 71 70 71 70
70 70 71 72 72 70 69 69 69 70 70 70 71 71 71 71 71 72 72 72 72 72 72 71 71 70 70 70 69 68 67 68 66 67 66 67 69 70 70 71 70 70 70
69 71 70 71 72 72 72 69 69 69 69 70 70 70 70 70 70 71 71 71 72 71 71 71 70 70 70 69 68 68 67 67 67 67 67 65 66 68 68 71 70 70 70
66 70 71 70 71 71 71 71 70 70 70 69 70 70 69 71 70 70 69 69 70 70 70 70 70 69 69 69 68 68 67 66 68 66 66 67 67 67 68 71 70 70 70
41 55 69 70 71 71 69 71 71 71 71 71 71 71 71 71 71 70 69 69 69 68 69 69 69 68 68 69 68 68 67 67 67 66 66 66 68 68 68 71 70 70 70
38 41 57 70 70 71 70 70 69 70 70 71 71 71 71 71 71 70 69 70 70 69 69 69 70 71 70 70 68 68 67 68 66 66 65 66 67 69 69 70 70 71 70
37 38 49 68 70 70 70 71 70 69 69 69 70 70 71 71 70 70 69 68 68 69 69 69 68 70 71 70 70 69 68 67 66 66 66 66 67 68 69 70 70 71 70
36 42 53 64 70 70 70 71 71 70 68 68 69 70 70 70 70 70 70 70 69 68 68 68 68 68 69 70 70 69 68 68 67 67 68 65 65 67 68 69 70 70 70
53 54 57 57 58 68 69 70 68 67 67 67 67 67 69 69 69 69 69 69 70 69 69 69 67 67 67 68 68 69 69 68 68 68 67 67 64 65 66 68 69 70 70
48 49 51 52 53 55 58 60 62 61 62 62 62 62 62 62 62 65 68 67 69 69 69 69 68 68 67 67 67 67 68 68 68 68 68 67 65 62 63 66 68 69 69
44 45 45 45 47 50 52 55 56 57 58 58 58 58 57 57 59 60 61 62 62 65 69 69 67 67 66 67 66 66 67 68 67 68 68 67 66 65 63 63 64 66 67
41 41 41 42 43 45 49 49 51 52 51 53 51 53 54 53 53 55 57 59 58 61 63 66 68 67 66 66 67 67 67 67 67 67 67 67 68 66 66 64 62 63 64
37 38 38 40 41 42 44 47 46 47 47 46 47 48 49 51 51 52 54 54 55 57 59 64 64 66 66 67 66 66 67 66 67 67 67 67 67 67 67 67 66 65 61
37 37 37 37 39 39 40 41 43 43 45 44 44 46 47 48 50 50 49 51 53 53 55 56 58 62 64 66 64 63 62 64 64 65 66 67 66 66 66 66 66 66 64
37 37 37 36 37 37 39 40 41 42 43 43 43 44 44 46 48 48 50 50 51 51 53 54 55 57 64 64 61 61 58 61 62 63 65 65 65 66 65 65 65 66 65
35 35 36 36 36 37 38 38 39 40 40 40 41 41 43 44 45 48 48 48 48 50 50 50 53 55 56 62 64 61 56 55 57 60 61 63 65 66 64 65 65 65 65
35 36 35 35 35 37 37 37 38 36 36 38 39 40 41 43 44 44 46 47 48 49 50 50 51 52 54 55 60 63 63 61 58 57 61 62 64 63 64 65 65 65 65
35 36 35 36 35 36 37 38 37 35 36 37 38 39 39 41 41 42 43 44 44 46 47 48 50 52 52 52 54 59 62 62 61 57 56 59 61 61 61 63 64 64 64
36 34 35 34 34 35 36 37 37 36 35 35 35 36 36 37 38 39 40 41 42 43 44 46 47 49 51 53 53 54 55 58 57 57 56 56 57 60 61 62 62 63 64

GFSSE_sfc_dewp_126.txt.gz
Dewpoint
61 67 72 73 72 72 72 72 73 74 73 73 73 74 74 74 73 74 74 74 74 75 75 73 73 73 72 73 73 73 72 72 73 74 73 73 72 72 71 72 71 65 70
64 68 72 72 72 73 73 73 73 74 74 73 73 73 74 74 73 73 74 74 74 75 74 73 73 72 72 72 72 72 71 71 73 73 73 73 72 71 71 72 71 67 71
66 69 71 72 72 72 73 73 73 74 74 74 73 74 74 73 73 73 74 74 74 74 74 72 72 71 71 71 71 71 71 71 72 73 73 66 67 72 71 71 71 71 71
67 68 70 72 72 72 72 72 73 74 75 74 74 74 74 73 73 73 74 74 74 74 74 73 72 72 72 70 71 70 71 71 71 72 67 63 65 71 71 70 71 71 71
66 66 70 72 72 72 72 72 72 73 74 74 74 74 74 73 73 73 73 73 74 75 75 74 73 73 71 70 70 70 70 70 71 70 64 65 65 70 71 70 70 71 71
66 67 71 71 72 72 72 72 72 72 72 73 73 74 74 74 73 73 73 74 74 75 75 74 74 73 71 70 69 70 70 70 70 64 64 67 66 71 71 71 69 70 70
67 69 70 71 71 72 72 72 71 71 71 72 73 73 74 74 74 73 73 73 74 74 74 74 73 73 71 70 69 70 69 69 66 63 64 66 67 71 71 71 71 71 71
69 70 70 71 71 71 72 71 71 71 71 71 71 72 73 73 73 73 73 73 73 73 73 73 72 72 71 70 69 69 69 69 65 63 64 64 70 71 71 72 71 71 71
68 71 72 72 71 71 70 70 70 70 70 71 71 71 72 72 72 72 72 73 73 73 72 72 72 71 71 70 69 68 68 68 65 62 63 64 70 70 71 71 71 71 70
59 68 71 72 72 72 72 70 70 70 70 70 70 70 70 71 71 71 71 72 72 72 72 72 71 71 70 69 69 68 67 68 65 62 63 62 70 70 70 72 71 71 70
44 49 64 71 71 73 72 71 70 70 70 70 70 70 69 69 68 69 70 70 71 70 70 71 70 70 69 69 69 68 68 65 64 62 61 67 68 69 70 70 71 70 70
41 44 45 60 69 71 69 71 71 71 70 70 70 70 71 70 69 67 68 69 70 69 70 70 70 69 69 67 67 68 67 64 64 62 61 67 68 68 68 70 71 70 70
39 39 42 50 64 70 69 69 69 69 69 70 71 71 71 70 71 70 68 68 69 69 68 69 70 71 70 67 64 65 64 65 63 62 62 67 68 69 69 70 71 70 70
41 43 53 55 58 67 69 69 69 68 69 69 70 71 71 71 70 70 70 68 68 67 67 69 70 69 69 68 67 66 66 64 62 62 63 66 67 68 69 69 70 71 70
49 52 56 59 64 66 69 69 70 70 70 70 70 70 70 71 71 70 70 70 70 70 68 68 70 68 69 68 68 67 67 66 65 62 62 65 66 68 69 69 70 70 70
49 50 53 54 57 58 61 67 71 72 70 70 70 70 70 70 70 70 70 69 70 71 71 69 67 68 69 69 68 68 68 67 66 66 63 64 64 66 68 69 69 69 71
47 48 48 49 51 54 55 58 61 62 64 64 65 63 64 65 65 68 68 68 68 69 70 70 69 70 69 69 68 68 68 68 67 66 66 64 64 63 64 67 68 69 69
43 44 44 44 46 49 51 52 55 55 57 58 58 59 59 59 59 62 64 65 65 66 66 70 68 68 68 68 68 67 68 69 68 68 68 68 64 62 63 64 65 67 68
40 41 41 43 43 45 46 49 50 52 51 51 52 52 53 55 55 56 58 61 63 62 63 64 66 68 68 67 67 67 68 68 69 69 68 68 68 67 64 63 63 63 65
40 40 39 40 42 43 43 46 48 48 48 47 48 49 51 52 53 53 53 55 57 57 59 62 63 65 66 66 66 66 67 68 69 68 67 67 67 68 67 66 65 64 62
40 40 39 39 39 39 41 41 43 44 47 46 45 48 48 50 52 52 51 52 53 53 55 58 58 61 63 66 64 64 65 67 65 65 64 62 64 65 67 67 66 65 63
38 39 38 38 39 38 38 39 41 43 44 45 44 46 46 47 49 48 50 49 50 51 53 55 56 55 57 63 63 62 59 61 63 61 61 61 63 63 65 66 66 66 65
38 39 38 38 38 39 40 39 39 41 41 41 41 42 44 45 46 45 47 47 48 49 50 50 51 53 53 55 62 62 58 57 56 59 59 61 62 63 64 65 66 66 66
38 38 39 38 38 38 40 39 41 39 38 39 40 41 41 43 43 43 44 45 46 47 48 49 50 52 52 52 55 62 62 58 55 53 59 61 62 62 64 63 63 64 63
36 36 37 38 37 38 39 39 39 39 38 38 38 40 40 40 41 41 42 42 43 44 45 46 47 48 50 52 52 53 56 60 61 59 53 57 59 60 61 63 63 63 63
37 37 37 37 36 37 36 37 38 38 37 37 37 36 36 37 38 39 39 40 41 42 43 44 45 46 48 49 51 52 52 53 53 56 56 54 54 57 60 60 62 63 63

GFSSE_sfc_dewp_129.txt.gz
Dewpoint
61 66 72 73 73 73 73 74 73 73 73 74 74 74 74 74 74 74 74 74 74 74 74 73 73 73 73 72 73 73 73 74 74 73 73 72 72 72 71 72 71 64 72
62 66 72 72 73 73 73 73 73 73 73 74 74 74 74 74 74 74 74 74 75 75 74 73 73 73 73 74 73 72 72 73 73 73 73 73 72 71 71 71 70 66 72
64 68 70 72 73 73 73 74 74 74 74 74 74 74 74 74 74 74 74 74 74 75 74 73 73 72 72 72 71 71 71 72 72 72 73 66 67 71 70 70 71 71 71
65 69 67 72 72 73 73 73 74 74 74 74 74 74 74 74 73 74 74 74 74 75 74 72 72 72 72 71 71 71 71 71 72 72 68 68 65 71 70 70 71 71 71
63 64 71 72 72 72 72 73 73 74 74 74 74 74 74 74 74 74 74 74 74 75 74 72 72 73 71 70 70 70 71 71 71 69 68 67 67 70 71 70 71 71 71
63 66 71 72 72 71 72 72 73 73 73 73 73 74 74 74 74 73 73 74 75 75 75 74 74 73 70 69 70 70 70 70 70 65 61 66 69 71 71 71 70 70 71
64 67 71 71 72 72 72 72 72 72 72 73 73 73 74 74 74 73 73 73 74 74 74 74 74 73 71 70 69 69 69 69 66 63 60 64 68 71 71 70 71 71 71
65 67 70 72 72 72 72 72 71 71 71 72 73 73 74 74 73 73 73 73 73 74 73 73 73 72 72 70 69 69 69 69 64 63 59 61 70 72 71 71 71 70 71
62 67 71 72 72 71 71 71 71 71 71 71 71 72 73 73 73 73 73 72 73 73 73 73 72 71 71 71 69 68 68 69 65 61 59 61 71 72 71 72 71 71 71
48 56 65 69 71 72 73 70 70 71 71 70 71 70 71 71 72 72 72 72 72 72 72 72 72 71 71 70 69 68 68 68 65 63 59 62 71 71 71 72 72 71 70
43 48 53 60 64 69 71 70 71 71 71 70 70 70 69 68 68 69 70 70 71 71 70 71 70 70 70 69 69 68 68 65 63 62 59 68 70 70 71 72 71 71 70
41 43 44 58 61 65 64 67 71 71 70 70 70 70 71 70 68 66 67 69 70 70 70 70 69 69 69 66 65 68 67 65 62 60 58 68 70 69 70 71 71 71 70
44 46 53 59 65 62 63 63 64 65 67 68 72 72 73 71 70 72 69 69 69 70 69 69 69 68 67 66 63 67 66 65 62 59 60 67 69 69 69 70 70 71 70
46 49 54 56 60 66 67 63 62 62 63 64 66 71 72 72 70 71 70 71 70 68 68 70 71 69 68 68 66 67 65 63 61 59 61 66 68 69 69 69 70 71 70
46 50 51 53 56 59 63 64 71 70 68 68 69 71 71 71 72 72 71 71 71 71 71 69 69 68 69 69 68 67 67 66 65 62 60 65 66 68 69 69 70 70 71
46 47 49 50 53 56 57 59 61 63 65 68 67 65 65 67 70 71 70 70 70 70 69 70 70 69 69 69 69 69 68 67 68 66 61 64 64 66 68 70 71 71 71
44 46 47 48 50 52 55 54 56 58 61 60 62 61 61 61 61 62 65 69 69 70 69 70 70 70 69 68 67 68 69 69 68 68 67 62 65 64 65 67 69 70 70
43 44 45 45 48 50 51 53 52 54 55 56 56 55 57 56 58 59 61 63 65 65 66 67 69 67 68 69 69 68 68 69 69 69 69 67 65 64 64 64 66 67 69
43 44 43 44 45 48 49 49 50 53 51 52 52 52 55 55 55 56 57 60 62 61 64 64 65 66 67 66 66 68 68 67 69 69 68 68 69 67 68 64 63 64 66
42 42 42 43 44 44 45 47 47 48 51 50 49 51 51 52 53 53 53 55 55 55 56 59 62 63 64 64 65 66 66 68 69 69 68 68 67 66 67 67 66 64 62
41 41 40 42 43 42 40 41 44 44 47 48 48 49 49 50 51 51 50 51 52 51 53 55 56 57 56 62 64 65 64 65 67 65 64 64 64 63 65 67 67 68 65
41 41 40 40 41 42 41 42 42 44 44 44 45 46 47 47 48 46 47 47 48 49 50 52 52 52 53 55 60 60 58 62 64 64 63 63 62 58 61 62 64 66 67
40 41 40 40 40 42 43 41 42 42 42 41 42 43 44 45 46 46 45 45 46 47 47 49 50 50 50 52 54 57 56 54 56 63 63 63 62 61 60 60 62 64 65
39 40 40 40 39 40 42 41 42 40 40 41 41 41 42 44 44 44 44 44 44 44 45 46 47 48 49 49 51 51 56 57 55 55 61 62 62 61 61 60 59 61 63
39 39 40 39 39 39 39 40 38 39 38 39 40 41 41 42 42 42 42 42 42 42 43 44 45 45 47 47 48 50 52 51 54 56 54 56 61 61 61 62 63 63 64
38 38 39 38 37 38 38 38 38 38 37 36 36 37 38 38 39 40 39 40 40 41 41 42 43 44 45 47 47 48 49 50 50 50 53 55 55 56 59 61 64 64 64